[[{"header":{"parameterUnit":"m.s-1","parameterCategory":1,"la1":30.6,"la2":29.2853,"lo1":-89.7004,"lo2":-87.6739,"dy":0.0162,"dx":0.0183,"nx":112,"ny":82,"refTime":"2023-10-01T06:00:00:Z","depth":0,"parameterNumber":2,"parameterNumberName":"U-component_of_WINDS"},"data":[0.0,0.0,0.0,0.0,0.0,0.0,0.0,0.0,0.0,0.0,0.0,0.0,0.0,0.0,0.0,0.0,0.0,0.0,0.0,0.0,0.0,0.0,0.0,0.0,0.0,0.0,0.0,0.0,0.0,0.0,0.0,0.0,0.0,0.0,0.0,0.0,0.0,0.0,0.0,0.0,0.0,0.0,0.0,0.0,0.0,0.0,0.0,0.0,0.0,0.0,0.0,0.0,0.0,0.0,0.0,0.0,0.0,0.0,0.0,0.0,0.0,0.0,0.0,0.0,0.0,0.0,0.0,0.0,0.0,0.0,0.0,0.0,0.0,0.0,0.0,0.0,0.0,0.0,0.0,0.0,0.0,0.0,0.0,0.0,0.0,0.0,0.0,0.0,0.0,0.0,-3.6756,-3.8829,-4.184,-4.3816,-4.4163,-4.182,-3.8617,-3.4537,0.0,0.0,0.0,0.0,0.0,0.0,0.0,0.0,0.0,0.0,0.0,0.0,0.0,0.0,0.0,0.0,0.0,0.0,0.0,0.0,0.0,0.0,0.0,0.0,0.0,0.0,0.0,0.0,0.0,0.0,0.0,0.0,0.0,0.0,0.0,0.0,0.0,0.0,0.0,0.0,0.0,0.0,0.0,0.0,0.0,0.0,0.0,0.0,0.0,0.0,0.0,0.0,0.0,0.0,0.0,0.0,0.0,0.0,0.0,0.0,0.0,0.0,0.0,0.0,0.0,0.0,0.0,0.0,0.0,0.0,0.0,0.0,0.0,0.0,0.0,0.0,0.0,0.0,0.0,0.0,0.0,0.0,0.0,0.0,0.0,0.0,0.0,0.0,0.0,0.0,0.0,0.0,0.0,0.0,0.0,0.0,0.0,0.0,0.0,0.0,0.0,0.0,0.0,0.0,-3.648,-4.1452,-4.2975,-4.3719,-4.3816,-4.0985,-3.8208,-3.5783,0.0,0.0,0.0,0.0,0.0,0.0,0.0,0.0,0.0,0.0,0.0,0.0,0.0,0.0,0.0,0.0,0.0,0.0,0.0,0.0,0.0,0.0,0.0,0.0,0.0,0.0,0.0,0.0,0.0,0.0,0.0,0.0,0.0,0.0,0.0,0.0,0.0,0.0,0.0,0.0,0.0,0.0,0.0,0.0,0.0,0.0,0.0,0.0,0.0,0.0,0.0,0.0,0.0,0.0,0.0,0.0,0.0,0.0,0.0,0.0,0.0,0.0,0.0,0.0,0.0,0.0,0.0,0.0,0.0,0.0,0.0,0.0,0.0,0.0,0.0,0.0,0.0,0.0,0.0,0.0,0.0,0.0,0.0,0.0,0.0,0.0,0.0,0.0,0.0,0.0,0.0,0.0,0.0,0.0,0.0,0.0,0.0,0.0,0.0,0.0,0.0,0.0,0.0,-3.7302,-3.9328,-4.3362,-4.4107,-4.4302,-4.4302,-4.1368,-3.8491,-3.6053,-3.3244,0.0,0.0,0.0,0.0,0.0,0.0,0.0,0.0,0.0,0.0,0.0,0.0,0.0,0.0,0.0,0.0,0.0,0.0,0.0,0.0,0.0,0.0,0.0,0.0,0.0,0.0,0.0,0.0,0.0,0.0,0.0,0.0,0.0,0.0,0.0,0.0,0.0,0.0,0.0,0.0,0.0,0.0,0.0,0.0,0.0,0.0,0.0,0.0,0.0,0.0,0.0,0.0,0.0,0.0,0.0,0.0,0.0,0.0,0.0,0.0,0.0,0.0,0.0,0.0,0.0,0.0,0.0,0.0,0.0,0.0,0.0,0.0,0.0,0.0,0.0,0.0,0.0,0.0,0.0,0.0,0.0,0.0,0.0,0.0,0.0,0.0,0.0,0.0,0.0,0.0,0.0,0.0,0.0,0.0,0.0,0.0,0.0,0.0,0.0,0.0,0.0,0.0,-3.9924,-4.1615,-4.401,-4.4431,-4.4464,-4.4302,-4.1591,-3.8771,-3.6135,-3.3377,0.0,0.0,0.0,0.0,0.0,0.0,0.0,0.0,0.0,0.0,0.0,0.0,0.0,0.0,0.0,0.0,0.0,0.0,0.0,0.0,0.0,0.0,0.0,0.0,0.0,0.0,0.0,0.0,0.0,0.0,0.0,0.0,0.0,0.0,0.0,0.0,0.0,0.0,0.0,0.0,0.0,0.0,0.0,0.0,0.0,0.0,0.0,0.0,0.0,0.0,0.0,0.0,0.0,0.0,0.0,0.0,0.0,0.0,0.0,0.0,0.0,0.0,0.0,0.0,0.0,0.0,0.0,0.0,0.0,0.0,0.0,0.0,0.0,0.0,0.0,0.0,0.0,0.0,0.0,0.0,0.0,0.0,0.0,0.0,0.0,0.0,0.0,0.0,0.0,0.0,0.0,0.0,0.0,0.0,0.0,0.0,0.0,0.0,0.0,0.0,0.0,0.0,-3.9058,-4.1151,-4.2588,-4.3363,-4.3524,-4.2813,-4.0774,-3.8606,-3.6405,-3.3391,0.0,0.0,0.0,0.0,0.0,0.0,0.0,0.0,0.0,0.0,0.0,0.0,0.0,0.0,0.0,0.0,0.0,0.0,0.0,0.0,0.0,0.0,0.0,0.0,0.0,0.0,0.0,0.0,0.0,0.0,0.0,0.0,0.0,0.0,0.0,0.0,0.0,0.0,0.0,0.0,0.0,0.0,0.0,0.0,0.0,0.0,0.0,0.0,0.0,0.0,0.0,0.0,0.0,0.0,0.0,0.0,0.0,0.0,0.0,0.0,0.0,0.0,0.0,0.0,0.0,0.0,0.0,0.0,0.0,0.0,0.0,0.0,0.0,0.0,0.0,0.0,0.0,0.0,0.0,0.0,0.0,0.0,0.0,0.0,0.0,0.0,0.0,0.0,0.0,0.0,0.0,0.0,0.0,0.0,0.0,0.0,0.0,0.0,0.0,0.0,0.0,0.0,-3.7963,-3.9999,0.0,-4.2174,-4.2048,-4.1421,-3.9471,-3.7326,-3.5131,0.0,0.0,0.0,0.0,0.0,0.0,0.0,0.0,0.0,0.0,0.0,0.0,0.0,0.0,0.0,0.0,0.0,0.0,0.0,0.0,0.0,0.0,0.0,0.0,0.0,0.0,0.0,0.0,0.0,0.0,0.0,0.0,0.0,0.0,0.0,0.0,0.0,0.0,0.0,0.0,0.0,0.0,0.0,0.0,0.0,0.0,0.0,0.0,0.0,0.0,0.0,0.0,0.0,0.0,0.0,0.0,0.0,0.0,0.0,0.0,0.0,0.0,0.0,0.0,0.0,0.0,0.0,0.0,0.0,0.0,0.0,0.0,0.0,0.0,0.0,0.0,0.0,0.0,0.0,0.0,0.0,0.0,0.0,0.0,0.0,0.0,0.0,0.0,0.0,0.0,0.0,0.0,0.0,0.0,0.0,0.0,0.0,0.0,0.0,0.0,0.0,0.0,-3.496,-3.6999,-3.8959,0.0,-4.0974,-4.0701,-4.0303,-3.8109,-3.5951,-3.4085,0.0,0.0,0.0,0.0,0.0,0.0,0.0,0.0,0.0,0.0,0.0,0.0,0.0,0.0,0.0,0.0,0.0,0.0,0.0,0.0,0.0,0.0,0.0,0.0,0.0,0.0,0.0,0.0,0.0,0.0,0.0,0.0,0.0,0.0,0.0,0.0,0.0,0.0,0.0,0.0,0.0,0.0,0.0,0.0,0.0,0.0,0.0,0.0,0.0,0.0,0.0,0.0,0.0,0.0,0.0,0.0,0.0,0.0,0.0,0.0,0.0,0.0,0.0,0.0,0.0,0.0,0.0,0.0,0.0,0.0,0.0,0.0,0.0,0.0,0.0,0.0,0.0,0.0,0.0,0.0,0.0,0.0,0.0,0.0,0.0,0.0,0.0,0.0,0.0,0.0,0.0,0.0,0.0,0.0,0.0,0.0,0.0,0.0,0.0,0.0,0.0,0.0,-3.4195,-3.6184,-3.8163,-4.0159,-3.9865,-3.9498,-3.9434,-3.6813,-3.4664,0.0,0.0,0.0,0.0,0.0,0.0,0.0,0.0,0.0,0.0,0.0,0.0,0.0,0.0,0.0,0.0,0.0,0.0,0.0,0.0,0.0,0.0,0.0,0.0,0.0,0.0,0.0,0.0,0.0,0.0,0.0,0.0,0.0,0.0,0.0,0.0,0.0,0.0,0.0,0.0,0.0,0.0,0.0,0.0,0.0,0.0,0.0,0.0,0.0,0.0,0.0,0.0,0.0,0.0,0.0,0.0,0.0,0.0,0.0,0.0,0.0,0.0,0.0,0.0,0.0,0.0,0.0,0.0,0.0,0.0,0.0,0.0,0.0,0.0,0.0,0.0,0.0,0.0,0.0,0.0,0.0,0.0,0.0,0.0,0.0,0.0,0.0,0.0,0.0,0.0,0.0,0.0,0.0,0.0,0.0,0.0,0.0,0.0,0.0,0.0,0.0,0.0,0.0,-3.2256,-3.4868,-3.7034,-3.8102,-3.8434,-3.8161,-3.7105,-3.5452,-3.3669,-3.1752,0.0,0.0,0.0,0.0,0.0,0.0,0.0,0.0,0.0,0.0,0.0,0.0,0.0,0.0,0.0,0.0,0.0,0.0,0.0,0.0,0.0,0.0,0.0,0.0,0.0,0.0,0.0,0.0,0.0,0.0,0.0,0.0,0.0,0.0,0.0,0.0,0.0,0.0,0.0,0.0,0.0,0.0,0.0,0.0,0.0,0.0,0.0,0.0,0.0,0.0,0.0,0.0,0.0,0.0,0.0,0.0,0.0,0.0,0.0,0.0,0.0,0.0,0.0,0.0,0.0,0.0,0.0,0.0,0.0,0.0,0.0,0.0,0.0,0.0,0.0,0.0,0.0,0.0,0.0,0.0,0.0,0.0,0.0,0.0,0.0,0.0,0.0,0.0,0.0,0.0,0.0,0.0,0.0,0.0,0.0,0.0,0.0,0.0,0.0,0.0,0.0,0.0,-3.2135,-3.4564,-3.6555,-3.7564,-3.7767,-3.7461,-3.6461,-3.4727,-3.291,-3.1037,0.0,0.0,0.0,0.0,0.0,0.0,0.0,0.0,0.0,0.0,0.0,0.0,0.0,0.0,0.0,0.0,0.0,0.0,0.0,0.0,0.0,0.0,0.0,0.0,0.0,0.0,0.0,0.0,0.0,0.0,0.0,0.0,0.0,0.0,0.0,0.0,0.0,0.0,0.0,0.0,0.0,0.0,0.0,0.0,0.0,0.0,0.0,0.0,0.0,0.0,0.0,0.0,0.0,0.0,0.0,0.0,0.0,0.0,0.0,0.0,0.0,0.0,0.0,0.0,0.0,0.0,0.0,0.0,0.0,0.0,0.0,0.0,0.0,0.0,0.0,0.0,0.0,0.0,0.0,0.0,0.0,0.0,0.0,0.0,0.0,0.0,0.0,0.0,0.0,0.0,0.0,0.0,0.0,0.0,0.0,0.0,0.0,0.0,0.0,0.0,0.0,0.0,-3.2992,-3.4663,-3.6192,-3.7584,-3.7362,-3.6962,-3.6719,-3.4348,-3.2303,-3.0841,0.0,0.0,0.0,0.0,0.0,0.0,0.0,0.0,0.0,0.0,0.0,0.0,0.0,0.0,0.0,0.0,0.0,0.0,0.0,0.0,0.0,0.0,0.0,0.0,0.0,0.0,0.0,0.0,0.0,0.0,0.0,0.0,0.0,0.0,0.0,0.0,0.0,0.0,0.0,0.0,0.0,0.0,0.0,0.0,0.0,0.0,0.0,0.0,0.0,0.0,0.0,0.0,0.0,0.0,0.0,0.0,0.0,0.0,0.0,0.0,-3.575,-3.4576,0.0,0.0,0.0,0.0,0.0,0.0,0.0,0.0,0.0,0.0,0.0,0.0,0.0,0.0,0.0,0.0,0.0,0.0,0.0,0.0,0.0,0.0,0.0,0.0,0.0,0.0,0.0,0.0,0.0,0.0,0.0,0.0,0.0,0.0,0.0,0.0,0.0,0.0,0.0,0.0,-3.1354,-3.2486,-3.3441,-3.4213,-3.4989,-3.5209,-3.4484,-3.3062,-3.1439,-2.9592,-2.8305,0.0,0.0,0.0,0.0,0.0,0.0,0.0,0.0,0.0,0.0,0.0,0.0,0.0,0.0,0.0,0.0,0.0,0.0,0.0,0.0,0.0,0.0,0.0,0.0,0.0,0.0,0.0,0.0,0.0,0.0,0.0,0.0,0.0,0.0,0.0,0.0,0.0,0.0,0.0,0.0,0.0,0.0,0.0,0.0,0.0,0.0,0.0,0.0,0.0,0.0,0.0,0.0,0.0,0.0,0.0,0.0,0.0,0.0,0.0,-3.5892,-3.4668,0.0,0.0,0.0,0.0,0.0,0.0,0.0,0.0,0.0,0.0,0.0,0.0,0.0,0.0,0.0,0.0,0.0,0.0,0.0,0.0,0.0,0.0,0.0,0.0,0.0,0.0,0.0,0.0,0.0,0.0,0.0,0.0,0.0,0.0,0.0,0.0,0.0,0.0,0.0,0.0,-3.0984,-3.1853,-3.2729,-3.394,-3.4606,-3.4658,-3.3872,-3.2697,-3.1273,-2.9534,-2.8653,0.0,0.0,0.0,0.0,0.0,0.0,0.0,0.0,0.0,0.0,0.0,0.0,0.0,0.0,0.0,0.0,0.0,0.0,0.0,0.0,0.0,0.0,0.0,0.0,0.0,0.0,0.0,0.0,0.0,0.0,0.0,0.0,0.0,0.0,0.0,0.0,0.0,0.0,0.0,0.0,0.0,0.0,0.0,0.0,0.0,0.0,0.0,0.0,0.0,0.0,0.0,0.0,0.0,-3.6312,-3.6553,-3.671,-3.671,-3.667,-3.6581,-3.6291,-3.5161,-3.3441,-3.3534,0.0,0.0,0.0,0.0,0.0,0.0,0.0,0.0,0.0,0.0,0.0,0.0,0.0,0.0,0.0,0.0,0.0,0.0,0.0,0.0,0.0,0.0,-2.973,-2.9445,-3.0181,-3.0687,-2.9779,0.0,0.0,0.0,0.0,0.0,0.0,0.0,0.0,0.0,0.0,0.0,-3.0818,-3.1348,-3.2163,-3.393,-3.405,-3.3878,-3.3558,-3.2228,-3.0907,-2.9802,-2.9173,-2.8089,0.0,0.0,0.0,0.0,0.0,0.0,0.0,0.0,0.0,0.0,0.0,0.0,0.0,0.0,0.0,0.0,0.0,0.0,0.0,0.0,0.0,0.0,0.0,0.0,0.0,0.0,0.0,0.0,0.0,0.0,0.0,0.0,-2.8096,-2.8392,0.0,0.0,0.0,0.0,0.0,0.0,0.0,0.0,0.0,0.0,0.0,0.0,0.0,-3.5425,-3.6084,-3.8094,-3.8829,-3.8358,-4.0232,-4.0681,-3.9894,-3.9894,-3.9693,-3.9336,-3.8887,0.0,-3.4276,-3.2543,0.0,0.0,0.0,0.0,0.0,0.0,0.0,0.0,0.0,0.0,0.0,0.0,0.0,0.0,0.0,0.0,0.0,0.0,0.0,0.0,0.0,0.0,-2.8871,-2.958,-2.9782,-2.9979,-3.0555,-2.9772,-2.8971,-2.9054,-2.82,-2.7494,0.0,0.0,0.0,0.0,0.0,0.0,-2.9321,-2.9209,-2.9431,-3.0619,-3.0326,-3.057,-3.1869,-3.0138,-2.9083,-2.9351,-2.8421,-2.7354,-2.6191,-2.5564,0.0,0.0,0.0,0.0,0.0,0.0,0.0,0.0,0.0,0.0,0.0,0.0,0.0,0.0,0.0,0.0,0.0,0.0,0.0,0.0,0.0,0.0,0.0,0.0,0.0,0.0,0.0,0.0,0.0,-2.7772,-2.8482,-2.7809,-2.8826,-2.9168,0.0,0.0,0.0,0.0,0.0,0.0,0.0,0.0,0.0,-3.3795,-3.558,-3.6204,-3.5611,-3.7901,-3.8697,-3.7947,-3.918,-3.963,-3.9473,-3.9473,-3.9327,-3.9162,-3.8707,-3.7451,-3.5651,-3.438,-3.2833,-3.1211,0.0,0.0,0.0,0.0,-2.9845,-2.9899,-2.9352,-2.8874,-2.847,-2.8508,0.0,0.0,0.0,0.0,0.0,0.0,0.0,-2.7776,-2.7501,-2.7889,-2.8567,-2.9228,-2.9175,-2.9102,-2.946,-2.863,-2.8004,-2.8628,-2.8557,-2.8147,-2.7293,-2.6962,0.0,0.0,0.0,-2.7201,-2.8604,-2.863,-2.8907,-2.9989,-2.9893,-2.9893,-3.0302,-2.9484,-2.8931,-2.8859,-2.8426,-2.7528,-2.6108,-2.5559,-2.4728,0.0,0.0,0.0,0.0,0.0,0.0,0.0,0.0,0.0,0.0,0.0,0.0,0.0,0.0,0.0,0.0,0.0,0.0,0.0,0.0,0.0,0.0,0.0,0.0,0.0,0.0,0.0,0.0,-2.8004,-2.8911,-2.7438,-2.9291,-3.0005,0.0,0.0,0.0,0.0,0.0,0.0,-3.2748,-3.3233,-3.3793,-3.4427,-3.6496,-3.7074,-3.5968,-3.7967,-3.8573,-3.7971,-3.8349,-3.8595,-3.8744,-3.865,-3.8593,-3.8402,-3.7877,-3.7184,-3.6353,-3.5534,-3.3921,-3.1878,-3.1172,-3.1008,-3.1153,-3.0727,-3.0578,-3.056,-3.0194,-2.9659,-2.9022,-2.8814,-2.8125,-2.7357,-2.7051,0.0,0.0,0.0,0.0,-2.7063,-2.7452,-2.7647,-2.7889,-2.8533,-2.8403,-2.8209,-2.8492,-2.7882,-2.7426,-2.793,-2.8369,-2.8201,-2.6922,-2.6484,0.0,0.0,0.0,-2.6959,-2.8162,-2.8426,-2.8859,-2.9797,-2.9653,-2.9402,-2.9195,-2.8773,-2.8366,-2.7964,-2.7824,-2.7048,-2.5485,-2.5066,-2.4205,-2.2772,0.0,0.0,0.0,0.0,0.0,0.0,0.0,0.0,0.0,0.0,0.0,0.0,0.0,0.0,0.0,0.0,0.0,0.0,0.0,0.0,0.0,0.0,0.0,0.0,0.0,0.0,0.0,0.0,0.0,-2.7606,-3.0606,0.0,0.0,0.0,0.0,-3.239,-3.2369,-3.3109,-3.4769,-3.4373,-3.4796,-3.6512,-3.7457,-3.8311,-3.9069,-3.9601,-3.9829,-3.9788,-3.9807,-3.9591,-3.9276,-3.8884,-3.8465,-3.8021,-3.7173,-3.6366,-3.5558,-3.437,-3.3819,-3.3483,-3.1604,-3.1402,-3.183,-3.0334,-2.9751,-2.9603,-2.8351,-2.7658,-2.7437,-2.8192,-2.8313,-2.8114,-2.7334,-2.7618,0.0,0.0,-2.6774,-2.6906,-2.5825,-2.5811,-2.6364,-2.7286,-2.737,-2.7533,-2.8458,-2.8232,-2.764,-2.6949,-2.6771,-2.6635,-2.6314,0.0,-2.6849,-2.6849,-2.7282,-2.7681,-2.7714,-2.817,-2.8715,-2.9292,-2.845,-2.8068,-2.8665,-2.7405,-2.6522,-2.641,-2.5954,-2.5094,-2.3865,-2.3602,-2.3118,-2.2344,-2.2113,0.0,0.0,0.0,0.0,0.0,0.0,0.0,0.0,0.0,0.0,0.0,0.0,0.0,0.0,0.0,0.0,0.0,0.0,0.0,0.0,0.0,0.0,0.0,0.0,0.0,0.0,0.0,0.0,-2.9785,-3.1866,0.0,-3.0732,-3.1334,-3.2054,-3.2435,-3.2979,-3.3962,-3.5285,-3.5678,-3.6331,-3.7498,-3.8091,-3.8517,-3.8832,-3.8961,-3.8906,-3.8706,-3.8706,-3.8368,-3.7715,-3.7825,-3.7509,-3.6842,-3.6842,-3.6384,-3.554,-3.4581,-3.3725,-3.2916,-3.1396,-3.0831,-3.0792,-3.0241,-2.9855,-2.9589,-2.9412,-2.9067,-2.8627,-2.815,-2.7623,-2.7112,-2.6582,-2.6403,-2.6372,-2.6196,-2.6281,-2.6364,-2.6238,-2.6261,-2.6422,-2.6507,-2.6258,-2.604,-2.6176,-2.5616,-2.5013,-2.491,-2.5775,-2.6324,-2.5605,-2.5345,-2.5276,-2.5457,-2.5512,-2.5694,-2.6233,-2.6289,-2.6385,-2.6582,-2.6251,-2.5994,-2.6027,-2.5483,-2.5057,-2.4753,-2.4562,-2.3962,-2.2757,-2.2412,-2.175,-2.0759,-2.0429,-2.0177,0.0,0.0,0.0,0.0,0.0,0.0,0.0,0.0,0.0,0.0,0.0,0.0,0.0,0.0,0.0,0.0,0.0,0.0,0.0,0.0,0.0,0.0,0.0,0.0,0.0,-2.9841,-3.1652,-3.1351,-3.3471,-3.4219,-3.2525,-3.2933,-3.3465,-3.389,-3.4584,-3.5504,-3.6586,-3.7154,-3.7686,-3.8199,-3.8493,-3.8487,-3.8438,-3.8438,-3.8218,-3.7814,-3.7814,-3.7539,-3.7044,-3.7173,-3.6861,-3.6201,-3.6219,-3.5834,-3.5155,-3.433,-3.345,-3.2496,-3.1561,-3.0956,-3.0589,-3.0442,-3.0039,-2.9599,-2.9745,-2.9525,-2.9012,-2.8077,-2.7416,-2.6885,-2.6388,-2.6131,-2.6004,-2.6186,-2.6223,-2.6243,-2.6518,-2.6481,-2.6279,-2.5911,-2.5506,-2.512,-2.4666,-2.4134,-2.3724,-2.3592,-2.473,-2.549,-2.4951,-2.4724,-2.4616,-2.4803,-2.4679,-2.4785,-2.5315,-2.521,-2.5083,-2.5083,-2.5083,-2.4872,-2.4305,-2.4284,-2.3909,-2.3145,-2.3063,-2.2574,-2.1479,-2.1167,-2.0593,-1.9714,-1.9439,-1.9292,-1.9292,0.0,0.0,0.0,0.0,0.0,0.0,0.0,0.0,0.0,0.0,0.0,0.0,0.0,0.0,0.0,0.0,0.0,0.0,0.0,0.0,0.0,0.0,0.0,-2.8253,-3.1662,-3.3705,-3.2313,-3.5302,-3.6531,-3.4183,-3.5357,-3.6439,-3.6842,-3.7246,-3.7814,-3.8524,-3.856,-3.856,-3.856,-3.856,-3.8438,-3.8016,-3.8016,-3.7814,-3.7411,-3.7411,-3.7393,-3.7356,-3.6971,-3.6567,-3.6109,-3.5339,-3.477,-3.433,-3.3523,-3.2955,-3.2551,-3.2166,-3.1763,-3.1341,-3.0919,-3.0259,-2.9549,-2.9122,-2.8718,-2.8333,-2.7969,-2.7822,-2.7656,-2.6848,-2.6866,-2.7086,-2.6701,-2.6591,-2.6591,-2.6591,-2.6279,-2.5911,-2.5525,-2.5069,-2.4666,-2.4293,-2.4183,-2.3944,-2.3078,-2.3469,-2.4024,-2.4291,-2.4693,-2.4999,-2.4999,-2.4999,0.0,-2.4999,-2.4999,-2.4999,-2.4999,-2.4999,-2.466,-2.378,-2.3737,-2.3083,-2.1558,-2.1478,-2.0977,-1.9952,-1.9875,-1.9674,-1.9311,-1.9292,-1.9292,-1.9292,0.0,0.0,0.0,0.0,0.0,0.0,0.0,0.0,0.0,0.0,0.0,0.0,0.0,0.0,0.0,0.0,0.0,0.0,0.0,0.0,0.0,-2.8689,-3.1066,-3.1295,-3.3316,-3.508,-3.5834,-3.7062,-3.7594,-3.6916,-3.7264,-3.7558,-3.7686,-3.8071,-3.8401,-3.856,-3.856,-3.856,-3.856,-3.856,-3.8438,-3.8016,-3.8016,-3.7668,-3.6989,-3.6989,-3.6696,-3.6109,-3.5999,-3.5559,-3.488,-3.4678,-3.4348,-3.3908,-3.3101,-3.2698,-3.2551,-3.2166,-3.1579,-3.0919,-3.0516,-2.9855,-2.9122,-2.9012,-2.8718,-2.837,-2.826,-2.782,-2.7306,-2.7086,-2.6885,-2.6719,-2.6628,-2.6591,-2.6591,-2.6591,-2.6279,-2.5911,-2.5525,-2.5069,-2.4666,-2.4293,-2.3914,-2.3639,-2.337,-2.3028,-2.2708,-2.2471,-2.2542,-2.2711,-2.2887,-2.2755,0.0,-2.2887,-2.2775,-2.2624,-2.2624,-2.2624,-2.2421,-2.19,-2.1819,-2.1521,-2.0832,-2.0495,-2.0196,-1.9893,-1.9641,-1.9421,-1.9292,-1.9292,-1.9292,0.0,0.0,0.0,0.0,0.0,0.0,0.0,0.0,0.0,0.0,0.0,0.0,0.0,0.0,0.0,0.0,0.0,0.0,0.0,0.0,0.0,0.0,-2.8589,-3.1029,-3.2098,-3.4287,-3.6201,-3.7301,-3.7778,-3.8089,-3.8255,-3.8273,-3.8273,-3.8273,-3.8511,-3.856,-3.856,-3.856,-3.856,-3.856,-3.856,-3.8438,-3.8016,-3.7851,-3.7448,-3.6842,-3.6659,-3.6329,-3.587,-3.587,-3.543,-3.466,-3.466,-3.4348,-3.378,-3.3303,-3.2808,-3.2313,0.0,0.0,0.0,0.0,-2.9782,-2.9232,-2.9232,-2.8737,-2.8132,-2.8132,-2.7691,-2.7141,-2.6976,-2.6885,-2.6811,-2.6628,-2.6591,-2.6591,-2.6591,-2.6205,-2.5708,-2.547,-2.4992,-2.4496,-2.4257,-2.3969,-2.3749,-2.3535,-2.3114,0.0,-2.2034,-2.1797,-2.1731,-2.1928,-2.1776,-2.1776,-2.1909,-2.1776,-2.1687,-2.1687,-2.1687,-2.1595,-2.1383,-2.1365,0.0,0.0,0.0,-2.0356,-2.0149,-1.9934,0.0,0.0,0.0,-1.9153,-1.9053,-1.8211,0.0,0.0,-1.785,-1.7634,0.0,0.0,0.0,0.0,0.0,0.0,0.0,0.0,0.0,0.0,0.0,0.0,0.0,0.0,0.0,0.0,-2.8068,-2.9613,-3.1168,-3.4265,-3.6489,-3.6886,-3.7228,-3.7589,-3.795,-3.7986,-3.7986,-3.7986,-3.7986,-3.8066,-3.8322,-3.8145,0.0,0.0,0.0,-3.7788,-3.7451,-3.7071,-3.6597,-3.62,-3.586,-3.5662,-3.5662,-3.5625,-3.5154,-3.4505,-3.4415,-3.3964,-3.3296,-3.3276,-3.2485,-3.1402,-3.1358,-3.1102,-3.0754,-3.0406,-2.9965,-2.9562,-2.9586,0.0,0.0,-2.7785,-2.7509,-2.7105,-2.6701,-2.6793,-2.6958,-2.6609,-2.6518,-2.6518,-2.6518,-2.5949,-2.5414,-2.5414,-2.479,-2.4202,-2.4202,-2.4202,-2.4091,-2.3675,-2.3535,-2.3261,-2.2547,-2.2053,-2.176,-2.176,-2.1723,-2.1705,-2.1742,-2.1723,-2.1687,-2.1687,-2.1687,0.0,-2.1687,-2.1687,-2.154,-2.12,-2.1126,-2.0924,-2.0539,-2.0521,-2.0437,-2.0352,-1.9486,-1.8887,-1.851,-1.7731,-1.6858,-1.5874,-1.6465,-1.6562,0.0,0.0,0.0,0.0,0.0,0.0,0.0,0.0,0.0,0.0,0.0,0.0,0.0,0.0,0.0,-2.5941,-2.8477,-3.0143,-2.9639,-3.1853,-3.3691,-3.4131,-3.4229,-3.4294,-3.4376,-3.4376,-3.4376,-3.4376,-3.4376,-3.5025,-3.6414,-3.5187,-3.5025,-3.6494,-3.5106,-3.4196,-3.3852,-3.3493,-3.3133,-3.2757,-3.2397,0.0,-3.2201,-3.1923,-3.1651,-3.1488,-3.0974,-3.0631,-3.0467,-2.9878,-2.8968,-2.8172,-3.0112,-3.0864,-3.0772,-3.0699,-3.0204,-2.9525,-2.9214,-2.8737,-2.8168,-2.7508,-2.7233,-2.7105,-2.6701,-2.6408,0.0,-2.6149,-2.6131,-2.6131,-2.6131,-2.5782,-2.5414,-2.5414,-2.479,-2.4202,-2.4202,-2.4202,-2.4183,-2.4091,-2.3767,-2.3444,-2.3279,-2.2657,-2.2163,-2.2163,-2.1888,-2.1797,-2.2126,-2.1888,-2.1687,-2.1687,-2.1687,-2.1687,-2.1687,-2.1687,-2.165,-2.1577,-2.1291,-2.0924,-2.0539,-2.0521,-2.0141,-1.9376,-1.8956,-1.8354,-1.7486,-1.6433,-1.577,-1.5592,-1.665,-1.6329,0.0,0.0,0.0,0.0,0.0,0.0,0.0,0.0,0.0,0.0,0.0,-2.3732,-2.3714,0.0,-2.5056,-2.514,-2.685,-2.803,-2.7771,-2.9076,-3.07,-3.2573,-3.2964,-3.3206,-3.3381,-3.3397,-3.3299,-3.3053,-3.3038,-3.3447,-3.4262,-3.3528,-3.3544,-3.4701,-3.3887,-3.3317,-3.3143,-3.2634,-3.2285,-3.2094,-3.1554,-3.1223,-3.0977,-3.0804,-3.0479,-3.0064,-2.9722,-2.9365,-2.8992,-2.7967,-2.7285,-2.7037,-2.7785,-2.8334,-2.8697,-2.8697,-2.8239,-2.756,-2.7125,-2.651,-2.5839,-2.5411,-2.5158,-2.5009,-2.4822,-2.5072,-2.5377,-2.5377,-2.5829,-2.6279,-2.6279,-2.5874,-2.547,-2.5672,-2.4937,-2.4257,-2.4477,-2.4349,-2.4202,-2.4202,-2.3987,-2.3785,-2.3535,-2.3151,-2.2821,-2.262,-2.2419,-2.2291,-2.2272,-2.2108,-2.1906,-2.1705,-2.1687,-2.1687,-2.1687,-2.1687,-2.1687,-2.1687,-2.1069,-2.0563,-2.0193,-1.9719,-1.9146,-1.8584,-1.7942,-1.7296,-1.6723,-1.5746,-1.5239,-1.5101,-1.5686,-1.5354,0.0,0.0,0.0,0.0,0.0,0.0,0.0,-2.1832,-2.2602,-2.3529,-2.3783,-2.3814,-2.3831,-2.4078,-2.4367,-2.4699,-2.5215,-2.5735,-2.6292,-2.6762,-2.8029,-3.0654,-3.1466,-3.1848,-3.2067,-3.2128,-3.2061,-3.1557,-3.1557,-3.1737,-3.2144,-3.1753,-3.1948,-3.2763,-3.2391,-3.2098,-3.2174,-3.1599,-3.1262,-3.1262,-3.0495,-3.0004,-2.9679,-2.9619,-2.9207,-2.8556,-2.8424,-2.8041,-2.7438,-2.6193,-2.5857,-2.6014,-2.5169,-2.5137,-2.5727,-2.6254,-2.6118,-2.551,-2.505,-2.4343,-2.3566,-2.3384,-2.3123,-2.296,-2.2821,-2.3472,-2.4189,-2.4178,-2.4841,-2.5609,-2.552,-2.5094,-2.4668,-2.4952,-2.4346,-2.3741,-2.4028,-2.405,-2.3963,-2.3963,-2.4108,-2.4091,-2.3712,-2.3657,-2.348,-2.3078,-2.295,-2.2821,-2.2547,-2.2455,-2.2272,-2.1961,-2.1925,-2.1843,-2.159,-2.1455,-2.1311,-2.1087,-2.0348,-1.9786,-1.9513,-1.8764,-1.8118,-1.7701,-1.6861,-1.6264,-1.5934,-1.5248,-1.4844,-1.464,-1.464,-1.4405,-2.0308,-2.0221,-2.0144,-2.035,-1.9879,-1.9809,0.0,-2.1691,-2.1641,-2.251,-2.2898,-2.3196,-2.3391,-2.3905,-2.4495,-2.5295,-2.5633,-2.5931,-2.6149,-2.6541,-2.6808,-2.6804,-2.7607,-2.7982,-2.7585,-2.7768,-2.7807,-2.7461,-2.7448,-2.823,-3.0071,-2.8413,-2.8435,-3.0481,-2.8547,-2.765,-2.7912,-2.7349,-2.7061,-2.7061,-2.6473,-2.6118,-2.6037,-2.587,-2.5647,-2.5516,-2.5075,-2.4672,-2.4259,-2.36,-2.3171,-2.2968,-2.2794,-2.2535,-2.2497,-2.5119,-2.5794,-2.5317,-2.4723,-2.4371,-2.4128,-2.3187,-2.3051,-2.3247,-2.2653,-2.2299,-2.2091,-2.184,-2.1874,-2.1907,-2.1705,-2.1744,-2.1798,-2.1627,-2.1594,-2.1654,-2.1685,-2.2435,-2.3135,-2.3135,-2.3738,-2.4183,-2.4146,-2.4128,-2.395,-2.3499,-2.3133,-2.3023,-2.3316,-2.3059,-2.2821,-2.2767,-2.2767,-2.2294,-2.1084,-2.0646,-1.9968,-1.8856,-1.8672,-1.8488,-1.8211,-1.8072,-1.7608,-1.6687,-1.6391,-1.5792,-1.4879,-1.4544,-1.4388,-1.434,-1.434,-1.4459,-2.0183,-2.0245,-2.0361,-2.054,-2.0476,-2.0702,-2.1855,-2.1932,-2.2046,-2.306,-2.3351,-2.3492,-2.3718,-2.4165,-2.4671,-2.5096,-2.5564,-2.5885,-2.6092,-2.6191,-2.6056,-2.5494,-2.597,-2.6524,-2.6952,-2.7126,-2.7142,-2.6846,-2.6846,-2.7231,-2.8026,-2.733,-2.7391,-2.838,-2.7569,-2.7012,-2.6961,-2.658,-2.6376,-2.6376,-2.5969,-2.5539,-2.5132,-2.5019,-2.4721,-2.4308,-2.3913,-2.3593,-2.3374,-2.2804,-2.2399,-2.2142,-2.1922,-2.1617,-2.1463,-2.2905,-2.3106,-2.2673,-2.2164,-2.1777,-2.1494,-2.1006,-2.0926,-2.0842,-2.0361,-2.0673,-2.1047,-2.08,-2.1207,-2.1739,-2.1587,-2.1511,-2.144,-2.1541,-2.1307,-2.1093,-2.1292,-2.1549,-2.174,-2.174,-2.1982,-2.2234,-2.2234,-2.2234,-2.2133,-2.1985,-2.2365,-2.2365,-2.1444,-2.1212,-2.0931,-2.0571,-2.049,-2.028,-1.975,-1.9367,-1.8972,-1.841,-1.7712,-1.7188,-1.6955,-1.6405,-1.5805,-1.5235,-1.514,-1.4902,-1.4496,-1.4352,-1.4292,-1.4292,-1.4292,-1.434,-1.9993,-2.0142,-2.0349,-2.0598,-2.1007,-2.1502,-2.2065,-2.2241,-2.2566,-2.3517,-2.3705,-2.3701,-2.395,-2.4387,-2.4821,-2.4975,-2.5482,-2.5892,-2.6085,-2.582,-2.5446,-2.4903,-2.4975,-2.5409,-2.6509,-2.677,-2.6772,-2.6623,-2.6709,-2.6695,-2.6781,-2.6707,-2.6821,-2.7122,-2.6897,-2.6795,-2.6682,-2.633,-2.6155,-2.6155,-2.5708,-2.5281,-2.4837,-2.4689,-2.4275,-2.3748,-2.3483,-2.3297,-2.3084,-2.2624,-2.2211,-2.1957,-2.1764,-2.1486,-2.1244,-2.1457,-2.1254,-2.0705,-2.044,-2.0026,-1.973,-1.9584,-1.9398,-1.9122,-1.8705,-1.921,-1.9905,-1.9529,-2.0099,-2.0759,-2.0672,-2.0486,-2.0372,-2.0615,-2.0314,-2.0113,-2.0399,-2.0475,-2.046,-2.046,-2.0644,-2.0801,-2.0801,-2.0801,-2.0693,-2.0382,-2.1059,-2.119,-2.0112,-1.9872,-1.9668,-1.9174,-1.9018,-1.8859,-1.8577,-1.8282,-1.7945,-1.7606,-1.6649,-1.6007,-1.583,-1.5,-1.4496,-1.4292,-1.4292,-1.4292,-1.4292,-1.4292,-1.4292,-1.4292,-1.4292,-1.4292,-1.9396,-1.9575,-1.9779,-2.0829,-2.131,-2.1655,-2.2176,-2.2491,-2.2842,-2.3321,-2.343,-2.3514,-2.378,-2.4263,-2.4709,-2.4999,-2.5482,-2.5832,-2.5832,-2.5397,-2.4879,-2.4673,-2.419,-2.4202,-2.4987,-2.553,-2.5832,-2.5844,-2.6073,-2.6339,-2.6616,-2.6363,-2.646,-2.6979,-2.623,-2.594,-2.6194,-2.5687,-2.5421,-2.5421,-2.4878,-2.4625,-2.4601,-2.4094,-2.3852,-2.3748,-2.3483,-2.3297,-2.3097,-2.283,-2.2564,-2.2321,-2.2321,-2.1921,-2.1462,-2.1462,-2.1195,-2.0686,-2.0364,-2.0267,-2.0171,-1.9639,-1.9524,-1.9366,-1.8529,-1.8349,-1.8289,-1.7754,-1.7596,-1.7594,-1.7338,-1.746,-1.7582,-1.7325,-1.7691,-1.8064,-1.8077,-1.892,-1.9654,-1.9654,-2.0274,-2.0801,-2.0801,-2.0801,-2.0436,-1.9428,-1.9263,-1.9559,-2.028,-2.0156,-2.001,-1.9943,-1.9588,-1.9004,-1.8006,-1.7588,-1.6823,-1.5683,-1.532,-1.5035,-1.4752,-1.4485,-1.4292,-1.4292,-1.4292,-1.4292,-1.4292,-1.4292,-1.4292,-1.4292,-1.4292,-1.4292,-1.9674,-2.0327,-2.1032,-2.1715,-2.2141,-2.2392,-2.2935,-2.3116,-2.3237,-2.3339,-2.3309,-2.3104,-2.2838,-2.3514,-2.419,-2.4468,-2.5397,-2.6218,-2.658,-2.6158,-2.553,-2.4721,-2.4468,-2.4263,-2.3928,-2.4625,-2.5397,-2.6303,-2.6278,-2.6411,-2.687,-2.681,-2.6761,-2.6773,-2.6327,-2.6049,-2.5965,-2.5615,-2.5349,-2.5168,-2.4625,-2.4359,-2.4359,-2.3928,-2.376,-2.376,-2.3664,-2.3454,-2.3109,-2.3024,-2.2733,-2.2334,-2.2334,-2.1945,-2.1474,-2.1474,-2.1136,-2.0653,-2.0569,-2.0315,-1.9989,-1.9808,-1.9495,-1.912,-1.8686,-1.8553,-1.8481,-1.8118,-1.7889,-1.772,-1.7636,-1.7551,-1.7455,-1.737,-1.7535,-1.7667,-1.7667,-1.7931,-1.8204,-1.8204,-1.8403,-1.8612,-1.8612,-1.8612,-1.8511,-1.8122,-1.7917,-1.7913,-1.8194,-1.7991,-1.783,-1.783,-1.7554,-1.7211,-1.6851,-1.6379,-1.592,-1.5521,-1.5265,-1.5068,-1.498,-1.4714,-1.457,-1.457,-1.4389,-1.4292,-1.4292,-1.4292,-1.4292,-1.4292,-1.4292,-1.4292,-2.03,-2.1041,-2.1764,-2.2418,-2.2745,-2.2911,-2.3267,-2.3381,-2.3309,-2.3309,-2.3019,-2.2709,-2.2273,-2.2681,-2.3261,-2.3611,-2.4468,-2.5373,-2.6206,-2.5771,-2.5252,-2.4951,-2.4661,-2.4395,-2.4097,-2.4444,-2.5071,-2.6134,-2.6399,-2.6616,-2.6882,-2.6979,-2.6954,-2.6785,-2.6411,-2.6134,-2.5965,-2.5615,-2.5252,-2.489,-2.454,-2.4275,-2.4094,-2.3844,-2.376,-2.376,-2.376,-2.3538,-2.3121,-2.3121,-2.2806,-2.2321,-2.2162,-2.186,-2.1462,-2.1366,-2.1052,-2.0665,-2.0665,-2.0388,-2.0014,-1.9917,-1.9579,-1.9157,-1.8794,-1.8686,-1.8625,-1.8372,-1.8167,-1.8022,-1.8022,-1.7901,-1.7768,-1.7768,-1.7768,-1.7768,-1.7768,-1.7696,-1.7648,-1.7756,-1.7696,-1.766,-1.7756,-1.7696,-1.7587,-1.7491,-1.7362,-1.722,-1.7121,-1.6867,-1.6706,-1.6706,-1.6537,-1.6392,-1.6296,-1.597,-1.5741,-1.5644,-1.539,-1.5246,-1.5246,-1.4992,-1.4859,-1.4859,-1.4594,-1.4449,-1.4449,-1.434,-1.4292,-1.4292,-1.4292,-1.4292,-2.1185,-2.1764,-2.2174,-2.3012,-2.3193,-2.3164,-2.3418,-2.3249,-2.3109,-2.3072,-2.2636,-2.2188,-2.1824,-2.18,-2.2005,-2.2636,-2.3,-2.3587,-2.4939,-2.4398,-2.4371,-2.5337,-2.4794,-2.4625,-2.5349,-2.4987,-2.4914,-2.5421,-2.6399,-2.6882,-2.6677,-2.6894,-2.7027,-2.7027,-2.6496,-2.6218,-2.6218,-2.5687,-2.5156,-2.4649,-2.4625,-2.4347,-2.3784,-2.3772,-2.376,-2.376,-2.3748,-2.3526,-2.3121,-2.3109,-2.2794,-2.2235,-2.1993,-2.1789,-2.1498,-2.1244,-2.0907,-2.0665,-2.0665,-2.0484,-2.0219,-1.9965,-1.9688,-1.935,-1.8855,-1.871,-1.865,-1.8408,-1.8324,-1.8312,-1.8312,-1.83,-1.83,-1.83,-1.83,-1.83,-1.83,-1.8082,-1.7974,-1.8239,-1.8082,-1.7986,-1.8251,-1.807,-1.7805,-1.7539,-1.7503,-1.7406,-1.7141,-1.6899,-1.6742,-1.6742,-1.673,-1.661,-1.6344,-1.6308,-1.6199,-1.5946,-1.568,-1.5535,-1.5535,-1.527,-1.5125,-1.5125,-1.4871,-1.4739,-1.4739,-1.4461,-1.4316,-1.4316,-1.4304,-1.4292,-2.215,-2.2983,-2.3731,-2.413,-2.4082,-2.39,-2.3688,-2.3381,-2.2951,-2.237,-2.1813,-2.116,-2.0509,-2.0871,-2.1643,-2.2576,-2.3538,-2.4697,-2.6049,-2.6218,-2.6097,-2.5771,-2.5723,-2.5566,-2.5095,-2.5554,-2.5796,-2.5735,-2.5977,-2.6363,-2.6906,-2.6991,-2.7027,-2.7027,-2.6496,-2.6218,-2.6218,-2.5506,-2.4987,-2.4855,-2.4528,-2.4263,-2.413,-2.3856,-2.376,-2.376,-2.3556,-2.3357,-2.3109,-2.2903,-2.2636,-2.2259,-2.2186,-2.1885,-2.1462,-2.139,-2.1076,-2.0665,-2.0665,-2.0364,-1.9977,-1.9905,-1.9567,-1.9157,-1.9012,-1.8976,-1.8963,-1.8891,-1.8734,-1.8589,-1.8589,-1.8444,-1.83,-1.83,-1.83,-1.83,-1.83,-1.8239,-1.8203,-1.8275,-1.8239,-1.8215,-1.8275,-1.8239,-1.8094,-1.7817,-1.7768,-1.7684,-1.7418,-1.7322,-1.7286,-1.7286,-1.7105,-1.696,-1.6887,-1.6706,-1.6561,-1.6501,-1.6235,-1.6091,-1.6103,-1.5656,-1.5403,-1.5403,-1.5137,-1.5004,-1.5004,-1.4739,-1.4606,-1.4606,-1.4389,-1.4292,-2.3031,-2.378,-2.4468,-2.4745,-2.4516,-2.4142,-2.3676,-2.3164,-2.2515,-2.1535,-2.0919,-2.0376,-1.9808,-2.0062,-2.0747,-2.1704,-2.2705,-2.3961,-2.553,-2.5989,-2.6254,-2.6496,-2.646,-2.6327,-2.6109,-2.6278,-2.6387,-2.6363,-2.6351,-2.6508,-2.6846,-2.6966,-2.7027,-2.7027,-2.6629,-2.6291,-2.6049,-2.5615,-2.5192,-2.4951,-2.4613,-2.4347,-2.4226,-2.388,-2.376,-2.3748,-2.3483,-2.3297,-2.3097,-2.283,-2.2576,-2.2309,-2.2005,-2.174,-2.145,-2.1209,-2.0931,-2.0665,-2.0665,-2.0327,-1.9881,-1.9881,-1.9591,-1.9229,-1.9108,-1.9072,-1.9072,-1.9072,-1.8963,-1.8855,-1.8855,-1.8746,-1.8638,-1.8638,-1.8638,-1.8638,-1.8638,-1.8553,-1.8469,-1.8469,-1.8553,-1.8601,-1.8481,-1.8469,-1.8372,-1.8094,-1.8058,-1.801,-1.7853,-1.7636,-1.7479,-1.7479,-1.7358,-1.7213,-1.7105,-1.696,-1.6827,-1.6706,-1.6441,-1.6284,-1.6296,-1.5897,-1.5668,-1.5668,-1.5415,-1.5282,-1.5282,-1.5016,-1.4896,-1.4883,-1.4727,-1.4654,-2.3864,-2.4277,-2.4794,-2.4951,-2.4578,-2.4094,-2.3526,-2.2754,-2.186,-2.0786,-2.0171,-1.9748,-1.9536,-1.9512,-1.9839,-2.0726,-2.1595,-2.2681,-2.4576,-2.5083,-2.5796,-2.7244,-2.7015,-2.6918,-2.7377,-2.7015,-2.6822,-2.7015,-2.7027,-2.693,-2.6701,-2.6906,-2.7015,-2.6979,-2.6761,-2.6375,-2.5832,-2.5832,-2.5578,-2.5011,-2.4782,-2.4504,-2.4275,-2.3904,-2.376,-2.3748,-2.3447,-2.3261,-2.3097,-2.2794,-2.2539,-2.2285,-2.1728,-2.151,-2.1414,-2.0907,-2.0702,-2.0665,-2.0629,-2.0315,-1.9929,-1.9893,-1.9676,-1.9374,-1.9145,-1.9072,-1.9072,-1.9072,-1.9072,-1.9072,-1.9072,-1.9072,-1.9072,-1.9072,-1.9072,-1.9072,-1.9072,-1.8891,-1.8734,-1.8734,-1.8915,-1.9,-1.877,-1.8734,-1.865,-1.8384,-1.8348,-1.8336,-1.83,-1.7877,-1.7575,-1.7539,-1.7539,-1.743,-1.7165,-1.7141,-1.7044,-1.6815,-1.6537,-1.6392,-1.6392,-1.6139,-1.5982,-1.5946,-1.5716,-1.5584,-1.5547,-1.5282,-1.5059,-1.4844,-1.4808,-1.4695,-2.4745,-2.4975,-2.5313,-2.5361,-2.4794,-2.4033,-2.3285,-2.2331,-2.1305,-2.0243,-1.976,-1.9458,-1.9193,-1.9326,-2.0014,-2.1789,-2.2539,-2.3562,-2.5651,-2.6182,-2.6629,-2.7341,-2.7341,-2.7317,-2.7413,-2.7341,-2.722,-2.7039,-2.7027,-2.7015,-2.6966,-2.7003,-2.693,-2.6713,-2.6665,-2.6375,-2.5832,-2.5832,-2.5675,-2.5361,-2.4866,-2.4601,-2.454,-2.3977,-2.376,-2.3816,-2.3333,-2.3169,-2.3084,-2.26,-2.2307,-2.2309,-2.1921,-2.1667,-2.1438,-2.1183,-2.0929,-2.0641,-2.0424,-2.0291,-2.0171,-1.9953,-1.9555,-1.9132,-1.9084,-1.9072,-1.9072,-1.9072,-1.9072,-1.9072,-1.9072,-1.9072,-1.9072,-1.9072,-1.9072,-1.9072,-1.9072,-1.9036,-1.9012,-1.9012,-1.9048,-1.906,-1.9012,-1.9012,-1.8915,-1.865,-1.8613,-1.8541,-1.8324,-1.8215,-1.8058,-1.7829,-1.7805,-1.7696,-1.7443,-1.7418,-1.7394,-1.7346,-1.7092,-1.6948,-1.6948,-1.6694,-1.6453,-1.6223,-1.6163,-1.6042,-1.5825,-1.5559,-1.4792,-1.3624,-1.3369,-1.2607,-2.5349,-2.5651,-2.588,-2.6025,-2.5144,-2.4021,-2.3302,-2.2017,-2.075,-1.9688,-1.9362,-1.9229,-1.9096,-1.9289,-1.9923,-2.104,-2.1861,-2.2923,-2.4914,-2.5663,-2.6363,-2.7304,-2.7425,-2.7425,-2.7425,-2.7292,-2.7172,-2.7039,-2.7027,-2.7027,-2.7027,-2.7027,-2.6966,-2.6846,-2.6846,-2.658,-2.6037,-2.6025,-2.5832,-2.5433,-2.489,-2.4625,-2.4613,-2.4001,-2.376,-2.3736,-2.3273,-2.3121,-2.3084,-2.2552,-2.2334,-2.2297,-2.1824,-2.1595,-2.1426,-2.1003,-2.0774,-2.0653,-2.0521,-2.0388,-2.0231,-1.9977,-1.9615,-1.9253,-1.912,-1.9072,-1.9072,-1.9072,-1.9072,-1.9072,-1.9072,-1.9072,-1.9072,-1.9072,-1.9072,-1.9072,-1.9072,-1.9072,-1.9072,-1.9072,-1.9072,-1.9072,-1.9072,-1.9072,-1.9036,-1.8903,-1.8891,-1.8843,-1.8722,-1.8698,-1.8493,-1.7937,-1.7877,-1.7768,-1.7503,-1.7479,-1.7479,-1.7479,-1.7237,-1.7092,-1.7092,-1.6839,-1.6578,-1.6267,-1.6267,-1.6026,-1.5658,-1.4883,-1.4105,-1.3283,-1.2525,-1.1778,-2.5627,-2.6025,-2.6339,-2.6435,-2.5301,-2.3925,-2.3145,-2.1764,-2.0303,-1.9289,-1.9072,-1.9072,-1.9072,-1.9241,-1.9681,-2.0327,-2.0979,-2.2078,-2.4045,-2.4914,-2.5844,-2.7184,-2.7389,-2.7425,-2.7425,-2.7232,-2.7087,-2.7039,-2.7027,-2.7027,-2.7027,-2.7027,-2.7027,-2.7027,-2.7027,-2.6773,-2.623,-2.6218,-2.5928,-2.5349,-2.4854,-2.4601,-2.4528,-2.4057,-2.376,-2.3736,-2.3273,-2.3121,-2.3084,-2.2552,-2.2334,-2.2211,-2.1752,-2.1559,-2.1498,-2.0955,-2.082,-2.0738,-2.0617,-2.0448,-2.0231,-1.9977,-1.97,-1.9487,-1.9157,-1.9072,-1.9072,-1.9072,-1.9072,-1.9072,-1.9072,-1.9072,-1.9072,-1.9072,-1.9072,-1.9072,-1.9072,-1.9072,-1.9072,-1.9072,-1.9072,-1.9072,-1.9072,-1.9072,-1.9072,-1.9072,-1.9072,-1.9072,-1.9072,-1.9072,-1.8807,-1.8118,-1.7998,-1.7829,-1.7503,-1.7479,-1.7479,-1.7479,-1.7228,-1.7062,-1.7062,-1.6813,-1.6374,-1.5795,-1.5739,-1.5389,-1.4645,-1.3684,-1.2966,-1.2474,-1.1492,-1.0866,-2.5458,-2.6025,-2.6484,-2.6025,-2.4878,-2.3611,-2.2573,-2.1281,-2.0074,-1.9253,-1.9072,-1.9072,-1.9072,-1.9096,-1.9519,-2.0856,-2.1122,-2.1921,-2.4263,-2.4878,-2.5492,-2.6906,-2.728,-2.7425,-2.7425,-2.7401,-2.7292,-2.7051,-2.7027,-2.7027,-2.7027,-2.7027,-2.7027,-2.7027,-2.7027,-2.6773,-2.623,-2.6218,-2.5832,-2.4999,-2.477,-2.4504,-2.4263,-2.3892,-2.376,-2.3736,-2.3273,-2.3121,-2.3084,-2.2552,-2.2334,-2.2309,-2.1945,-2.1836,-2.1764,-2.1292,-2.1098,-2.1026,-2.0484,-2.0291,-2.0231,-1.9977,-1.97,-1.9487,-1.9157,-1.9072,-1.9072,-1.9072,-1.9072,-1.9072,-1.9072,-1.9072,-1.9072,-1.9072,-1.9072,-1.9072,-1.9072,-1.9072,-1.9072,-1.9072,-1.9072,-1.9072,-1.9072,-1.9072,-1.9072,-1.9072,-1.9072,-1.9072,-1.9072,-1.9072,-1.8951,-1.8638,-1.8396,-1.8046,-1.7527,-1.7479,-1.7479,-1.7479,-1.7173,-1.6985,-1.6985,-1.6656,-1.5829,-1.4429,-1.4361,-1.3673,-1.2196,-1.2019,-1.1195,-0.9834,-0.9625,-0.8796,-2.5687,-2.6375,-2.6785,-2.6411,-2.5071,-2.3611,-2.2705,-2.1221,-1.9857,-1.9205,-1.9072,-1.9072,-1.9072,-1.9072,-1.9253,-1.9772,-2.0069,-2.0714,-2.2488,-2.3104,-2.3629,-2.4255,-2.4497,-2.4373,-2.3701,-2.3651,-2.3517,-2.3433,-2.3423,-2.3423,-2.3423,-2.573,-2.7027,-2.7027,-2.5762,-2.4868,-2.4518,-2.3302,-2.2858,-2.3326,-2.1967,-2.2311,-2.4145,-2.1746,-2.1808,-2.3668,-2.1206,-2.0737,-2.157,-2.0067,-1.9493,-1.9461,-1.9084,-1.8948,-1.8885,-1.8424,-1.8246,-1.8204,-1.7879,-1.7764,-1.7722,-1.7433,-1.7261,-1.7251,-1.7973,-1.8704,-1.9172,-1.8185,-1.8536,-1.9072,-1.9072,-1.9072,-1.9072,-1.9072,-1.9072,-1.9072,-1.9072,-1.9205,-1.9265,-1.9108,-1.9205,-1.9265,-1.9096,-1.9072,-1.9072,-1.9072,-1.8956,-1.8495,-1.7625,-1.7302,-1.6765,-1.562,-1.7178,-1.7992,-1.747,-1.7244,-1.7054,-1.6903,-1.6053,-1.5569,-1.5569,-1.4658,-1.3846,-1.2999,-1.299,-1.2546,-1.1595,-1.0825,-1.0048,-0.938,-0.8495,-0.7821,-2.4761,-2.5507,-2.6112,-2.6402,-2.5108,-2.3526,-2.2718,-2.116,-1.9736,-1.9193,-1.9072,-1.9072,-1.9072,-1.9072,-1.9096,-1.9181,-1.9422,-2.0038,-2.1305,-2.1933,-2.2437,-2.2693,-2.2586,-2.2263,-2.158,-2.1245,-2.1121,-2.1121,-2.1055,-2.1017,-2.0833,-2.3437,-2.4981,-2.5162,-2.372,-2.2757,-2.2527,-2.0979,-2.0568,-2.1345,-1.9839,-2.0372,-2.2459,-1.9835,-1.9846,-2.1947,-1.9144,-1.8618,-1.9452,-1.7844,-1.7134,-1.7106,-1.6821,-1.6701,-1.6655,-1.6323,-1.6176,-1.6139,-1.5861,-1.5769,-1.575,-1.5542,-1.5464,-1.5481,-1.5961,-1.7089,-1.7993,-1.6873,-1.7228,-1.7852,-1.7919,-1.7942,-1.7888,-1.7837,-1.7848,-1.7783,-1.7652,-1.7785,-1.7851,-1.7686,-1.7785,-1.7895,-1.7651,-1.7607,-1.7585,-1.7571,-1.7313,-1.685,-1.5859,-1.5469,-1.4827,-1.3646,-1.5435,-1.6538,-1.6126,-1.5899,-1.5682,-1.5449,-1.452,-1.3952,-1.3894,-1.2919,-1.2148,-1.1487,-1.1495,-1.1131,-1.0361,-0.9493,-0.8947,-0.8786,-0.7847,-0.7315,-2.2157,-2.3162,-2.4184,-2.5837,-2.483,-2.3249,-2.2452,-2.1028,-1.9736,-1.9193,-1.9072,-1.9072,-1.9072,-1.9072,-1.9157,-1.9422,-1.97,-2.0255,-2.1329,-2.1933,-2.2561,-2.3303,-2.2328,-2.1878,-2.2396,-2.1621,-2.1121,-2.1121,-2.1014,-2.0709,-2.0244,-2.0132,-2.0303,-2.0982,-2.0781,-2.0562,-2.0362,-2.0143,-1.9742,-1.925,-1.9116,-1.8907,-1.8626,-1.8626,-1.8372,-1.8018,-1.7615,-1.7126,-1.6687,-1.63,-1.6142,-1.6142,-1.6133,-1.6133,-1.6089,-1.5703,-1.5636,-1.5583,-1.5123,-1.4982,-1.4982,-1.4982,-1.4982,-1.4699,-1.3222,-1.3905,-1.5139,-1.5139,-1.5063,-1.495,-1.5082,-1.5129,-1.5119,-1.4919,-1.4828,-1.476,-1.4343,-1.4275,-1.4275,-1.4275,-1.4275,-1.4214,-1.4089,-1.4054,-1.3984,-1.3857,-1.3831,-1.3831,-1.3831,-1.3822,-1.3822,-1.3822,-1.3513,-1.3293,-1.3035,-1.3072,-1.2985,-1.2917,-1.2593,-1.2334,-1.2225,-1.1916,-1.1133,-0.9862,-0.9802,-0.9201,-0.7928,-0.7818,-0.7698,-0.7698,-0.7573,-0.7453,-1.9223,-1.9945,-2.057,-2.0828,-2.0152,-1.9199,-1.8497,-1.7614,-1.6748,-1.6306,-1.6213,-1.6213,-1.6213,-1.6213,-1.6285,-1.6435,-1.6727,-1.7025,-1.7477,-1.8183,-1.8444,-1.7701,-1.675,-1.6303,-1.6506,-1.6261,-1.5968,-1.5946,-1.5896,-1.5724,-1.5518,-1.5369,-1.6603,-1.9653,-1.8309,-1.7509,-1.732,-1.576,-1.5425,-1.6265,-1.5051,-1.5596,-1.7629,-1.5267,-1.5424,-1.7375,-1.4906,-1.4312,-1.5064,-1.3663,-1.3047,-1.2936,-1.2831,-1.279,-1.2769,-1.2567,-1.2498,-1.2374,-1.2063,-1.1959,-1.2011,-1.1907,-1.1803,-1.1676,-1.1279,-1.2804,-1.4567,-1.4432,-1.4383,-1.4455,-1.4449,-1.4467,-1.4476,-1.4402,-1.442,-1.4352,-1.4215,-1.431,-1.444,-1.4241,-1.4319,-1.4414,-1.4155,-1.412,-1.4103,-1.4109,-1.3787,-1.3244,-1.2304,-1.188,-1.1285,-1.0359,-1.0167,-1.0871,-1.2842,-1.2761,-1.2496,-1.2386,-1.1439,-1.0864,-1.0703,-0.9779,-0.8995,-0.8538,-0.8477,-0.8294,-0.7872,-0.7834,-0.778,-0.7698,-0.766,-0.7578,-1.6471,-1.7216,-1.7679,-1.8338,-1.7869,-1.7156,-1.66,-1.596,-1.5309,-1.4978,-1.4912,-1.4912,-1.4912,-1.4912,-1.495,-1.5007,-1.5261,-1.5583,-1.5653,-1.6278,-1.6208,-1.4788,-1.4326,-1.4014,-1.3376,-1.3566,-1.3627,-1.3492,-1.3431,-1.3248,-1.2938,-1.2807,-1.3828,-1.6219,-1.5365,-1.4801,-1.4703,-1.33,-1.3028,-1.3937,-1.2804,-1.3305,-1.526,-1.3052,-1.3217,-1.4923,-1.2745,-1.2263,0.0,-1.1665,-1.1066,-1.0978,-1.0849,-1.0796,-1.0773,-1.0603,-1.0539,-1.0504,-1.0234,-1.0146,-1.0134,-1.0047,-0.997,-0.9841,-0.9947,-1.1271,-1.2756,-1.2587,-1.2519,-1.2581,-1.2643,-1.2674,-1.2689,-1.2611,-1.2557,-1.2557,-1.2348,-1.2499,-1.2537,-1.237,-1.2499,-1.2514,-1.2288,-1.2259,-1.2237,-1.2177,-1.1961,-1.1393,-1.0515,-1.013,-0.9576,-0.8717,-0.859,-0.9341,-1.1207,-1.1142,-1.0883,-1.0735,-0.996,-0.9455,-0.9312,-0.8557,-0.8062,-0.8004,-0.7999,-0.7977,-0.7872,-0.7872,-0.7834,-0.7763,-0.7763,-0.7703,0.0,-1.4836,-1.5438,-1.7454,-1.7231,-1.6382,-1.6164,-1.5543,0.0,-1.4623,-1.4586,-1.4586,-1.4604,-1.4595,-1.4595,-1.4623,-1.4928,-1.5242,-1.5404,-1.5753,-1.5528,-1.4225,-1.4492,-1.4231,-1.29,-1.3284,-1.3527,-1.3381,-1.3254,-1.2938,-1.2356,-1.2235,-1.1982,-1.1533,-1.2202,-1.2568,-1.2568,-1.2319,-1.2186,-1.2174,-1.2046,-1.1986,-1.1986,-1.1986,-1.1736,-1.1314,-1.1182,-1.0961,-1.0607,-1.0297,-1.0199,-1.0177,-1.0057,-1.0008,-0.9981,-0.9753,-0.9671,-0.9633,-0.94,-0.9318,-0.9313,-0.9307,-0.9302,-0.928,-0.9166,-0.9549,-1.0013,-1.0007,-0.9916,-0.9817,-1.007,-1.0137,-1.009,-0.9922,-0.9879,-0.9735,-0.9374,-0.9302,-0.9302,-0.9302,-0.9302,-0.9269,-0.9166,-0.915,-0.9035,-0.8922,-0.8872,-0.8791,-0.8785,-0.8682,-0.8606,-0.859,-0.8595,-0.8595,-0.859,-0.859,-0.8541,-0.8437,-0.8432,-0.8378,-0.8188,-0.8183,-0.8193,-0.813,-0.8119,-0.8054,-0.7872,-0.7872,-0.7872,-0.7872,-0.7872,-0.7812,-1.1518,0.0,-1.1895,-1.2414,-1.2406,-1.227,0.0,-1.2008,-1.1903,-1.174,-1.1703,-1.174,-1.1806,-1.1792,-1.1784,-1.2036,-1.2133,-1.2288,-1.2514,-1.2901,-1.3017,-1.2995,-1.2913,-1.2668,-1.2113,-1.2371,-1.246,-1.2242,-1.2202,-1.1994,-1.1688,-1.1649,-1.1588,-1.1319,-1.1465,-1.1491,-1.1491,-1.1334,-1.121,-1.1115,-1.0998,-1.107,-1.107,-1.107,-1.0987,-1.0898,-1.0771,-1.0672,-1.0416,-1.0264,-1.015,-1.0052,-0.9927,-0.9883,-0.9862,-0.972,-0.9671,-0.965,-0.9497,-0.9443,-0.9427,-0.9334,-0.9302,-0.928,-0.9166,-0.9314,-0.949,-0.94,-0.9346,-0.9401,-0.9463,-0.9479,-0.9485,-0.9441,-0.9446,-0.9446,-0.9302,-0.9302,-0.9302,-0.9302,-0.9302,-0.9296,-0.9269,-0.9264,-0.9253,-0.9226,-0.9122,-0.9014,-0.8921,-0.8814,-0.8796,-0.8606,-0.8671,-0.8687,-0.8595,-0.859,-0.8579,-0.8552,-0.8546,-0.8497,-0.8378,-0.8372,-0.8318,-0.8193,-0.81,-0.8054,-0.7872,-0.7872,-0.7872,-0.7872,-0.7872,-0.7856,-1.0717,-1.0772,-1.0759,-1.0759,-1.082,-1.086,-1.0846,-1.0766,-1.0819,-1.0738,-1.0717,-1.0744,-1.0759,-1.0645,-1.0598,-1.1029,-1.0902,-1.0921,-1.154,-1.1851,-1.2172,-1.2469,-1.2172,-1.1982,-1.1906,-1.2015,-1.1987,-1.1754,-1.1737,-1.1656,-1.1554,-1.1543,-1.14,-1.1275,-1.1161,-1.1074,-1.102,-1.0895,-1.0802,-1.0737,-1.0737,-1.0737,-1.0737,-1.0737,-1.0704,-1.065,-1.0585,-1.046,-1.0297,-1.0231,-1.0134,-1.0008,-0.9883,-0.9835,-0.9818,-0.965,-0.9584,-0.9568,-0.9449,-0.94,-0.9394,-0.9323,-0.9302,-0.9291,-0.9231,-0.9253,-0.928,-0.9166,-0.9177,-0.9237,-0.9291,-0.9302,-0.9302,-0.9302,-0.9302,-0.9302,-0.9302,-0.9302,-0.9302,-0.9302,-0.9302,-0.9302,-0.9302,-0.9302,-0.9302,-0.9302,-0.9209,-0.9041,-0.8976,-0.8917,-0.8878,-0.8693,-0.8731,-0.872,-0.8595,-0.859,-0.859,-0.859,-0.859,-0.8557,-0.8497,-0.8497,-0.8443,-0.8323,-0.8144,-0.8086,-0.8015,-0.8015,-0.8015,-0.8015,-0.8015,-0.8015,-1.0751,-1.0867,-1.09,-1.086,-1.086,-1.0873,-1.0853,-1.0812,-1.0717,-1.0717,-1.0717,-1.0658,-1.0685,-1.0485,-1.0411,-1.0853,-1.062,-1.0737,-1.1505,-1.186,-1.2075,-1.2226,-1.1969,-1.1889,-1.1933,-1.1966,-1.1889,-1.1656,-1.1634,-1.1585,-1.146,-1.1438,-1.1373,-1.1248,-1.1134,-1.1009,-1.0867,-1.078,-1.0737,-1.0737,-1.0737,-1.0737,-1.0737,-1.0715,-1.0655,-1.0634,-1.0601,-1.0389,-1.0204,-1.0182,-1.0112,-1.0008,-0.9883,-0.9824,-0.9786,-0.9568,-0.9476,-0.9443,-0.934,-0.9302,-0.9302,-0.9302,-0.9302,-0.9302,-0.9302,-0.9302,-0.9285,-0.9188,-0.916,-0.9182,-0.928,-0.9302,-0.9302,-0.9302,-0.9302,-0.9302,-0.9302,-0.9302,-0.9302,-0.9302,-0.9302,-0.9302,-0.9302,-0.9302,-0.9302,-0.9302,-0.922,-0.9155,-0.9139,-0.8987,-0.8954,-0.8812,-0.8796,-0.8747,-0.8628,-0.86,-0.859,-0.859,-0.859,-0.859,-0.859,-0.859,-0.8535,-0.8421,-0.8214,-0.8163,-0.8147,-0.8147,-0.8147,-0.8147,-0.8147,-0.8147,-1.0813,-1.1023,-1.107,-1.0819,-1.0853,-1.0847,-1.0785,-1.0738,-1.0717,-1.0717,-1.0717,-1.0625,-1.0476,-1.0637,-1.0798,-1.0861,-1.1302,-1.1553,-1.1643,-1.1888,-1.1988,-1.1845,-1.2075,-1.2004,-1.1716,-1.1873,-1.1889,-1.1656,-1.1634,-1.1585,-1.146,-1.1357,-1.1248,-1.1134,-1.1009,-1.084,-1.0612,-1.0693,-1.0737,-1.0737,-1.0737,-1.0737,-1.0732,-1.0628,-1.0574,-1.0629,-1.0346,-1.0237,-1.0193,-1.009,-1.0036,-1.0008,-0.9883,-0.978,-0.9677,-0.9541,-0.9421,-0.9329,-0.9313,-0.9302,-0.9302,-0.9302,-0.9302,-0.9302,-0.9302,-0.9302,-0.9302,-0.928,-0.928,-0.928,-0.9302,-0.9302,-0.9302,-0.9302,-0.9302,-0.9302,-0.9302,-0.9302,-0.9302,-0.9302,-0.9302,-0.9302,-0.9302,-0.9302,-0.9302,-0.9302,-0.9291,-0.9242,-0.915,-0.9204,-0.9166,-0.8879,-0.8852,-0.8872,-0.8753,-0.8644,-0.859,-0.859,-0.859,-0.859,-0.859,-0.859,-0.8535,-0.8421,-0.8383,-0.8312,-0.8209,-0.8209,-0.8209,-0.8209,-0.8209,-0.8209,-1.0683,-1.0812,-1.0914,-1.086,-1.1016,-1.1172,-1.1097,-1.0879,-1.069,-1.0962,-1.0826,-1.0642,-1.0496,-1.0568,-1.0655,-1.0631,-1.1324,-1.1797,-1.1721,-1.1859,-1.1976,-1.2051,-1.2057,-1.1917,-1.1754,-1.1835,-1.1797,-1.1558,-1.1476,-1.1417,-1.1357,-1.1243,-1.1128,-1.1009,-1.0949,-1.0835,-1.0655,-1.071,-1.0704,-1.0639,-1.0704,-1.0704,-1.0634,-1.0579,-1.052,-1.0454,-1.028,-1.0166,-1.0101,-1.0047,-0.9981,-0.9916,-0.9862,-0.9807,-0.9737,-0.9552,-0.9454,-0.9394,-0.9329,-0.9302,-0.9313,-0.9383,-0.94,-0.94,-0.94,-0.94,-0.94,-0.94,-0.9356,-0.9302,-0.9302,-0.9302,-0.9302,-0.9302,-0.9302,-0.9302,-0.9302,-0.9302,-0.9302,-0.9302,-0.9302,-0.9302,-0.9302,-0.9302,-0.9302,-0.9302,-0.9302,-0.9285,-0.9231,-0.9269,-0.9237,-0.8998,-0.8981,-0.8976,-0.8785,-0.878,-0.8725,-0.8595,-0.859,-0.859,-0.859,-0.859,-0.8562,-0.8513,-0.8448,-0.8388,-0.8334,-0.8334,-0.8334,-0.8334,-0.8334,-0.8334,-1.048,-1.0602,-1.0751,-1.0799,-1.1063,-1.1267,-1.1268,-1.0971,-1.0689,-1.0997,-1.085,-1.0537,-1.0436,-1.0376,-1.0426,-1.0475,-1.1242,-1.1812,-1.1703,-1.1763,-1.1922,-1.2238,-1.1986,-1.1835,-1.1781,-1.1748,-1.1645,-1.1427,-1.1302,-1.1232,-1.1232,-1.1123,-1.1003,-1.0878,-1.0878,-1.0808,-1.0655,-1.071,-1.0688,-1.0601,-1.0661,-1.0645,-1.0634,-1.0498,-1.0427,-1.0335,-1.0215,-1.0106,-1.0019,-1.0019,-0.9965,-0.9878,-0.9851,-0.9818,-0.9775,-0.9563,-0.9503,-0.9514,-0.9421,-0.9372,-0.9367,-0.9492,-0.9508,-0.9487,-0.9487,-0.9487,-0.9481,-0.9454,-0.9394,-0.9345,-0.9345,-0.9345,-0.934,-0.9313,-0.9302,-0.9302,-0.9302,-0.9302,-0.9302,-0.9302,-0.9302,-0.9302,-0.9302,-0.9302,-0.9302,-0.9302,-0.9302,-0.9302,-0.9302,-0.9302,-0.9269,-0.9182,-0.915,-0.9046,-0.8834,-0.8872,-0.8829,-0.8644,-0.86,-0.859,-0.859,-0.859,-0.859,-0.859,-0.8503,-0.8459,-0.8459,-0.8459,-0.8459,-0.8459,-0.8459,-0.8459,-1.046,-1.0602,-1.0724,-1.0731,-1.0751,-1.0779,-1.0902,-1.0844,-1.0708,-1.0724,-1.0626,-1.0432,-0.9945,-1.0064,-1.0376,-1.0707,-1.1177,-1.1584,-1.162,-1.1705,-1.1824,-1.2042,-1.1971,-1.1889,-1.1672,-1.1547,-1.1427,-1.1297,-1.1177,-1.1118,-1.1118,-1.0998,-1.0878,-1.0753,-1.0748,-1.0639,-1.0416,-1.0628,-1.0732,-1.0721,-1.0617,-1.0563,-1.0629,-1.0329,-1.0226,-1.021,-1.0085,-1.003,-1.0019,-1.0019,-1.0014,-0.9998,-0.9883,-0.9775,-0.9666,-0.9536,-0.9557,-0.9655,-0.9644,-0.9568,-0.9492,-0.9617,-0.9579,-0.9487,-0.9487,-0.9487,-0.9465,-0.9351,-0.9394,-0.9476,-0.9476,-0.9476,-0.9443,-0.9329,-0.9302,-0.9302,-0.9302,-0.9302,-0.9302,-0.9302,-0.9302,-0.9302,-0.9302,-0.9302,-0.9302,-0.9302,-0.9302,-0.9302,-0.9302,-0.9302,-0.9302,-0.9291,-0.9198,-0.9008,-0.8879,-0.8845,-0.8774,-0.8758,-0.8649,-0.859,-0.859,-0.859,-0.859,-0.859,-0.8579,-0.8573,-0.8573,-0.8573,-0.8573,-0.8573,-0.8573,-0.8573,-1.0202,-1.0392,-1.0602,-1.0697,-1.0792,-1.0879,-1.0966,-1.0969,-1.0903,-1.0984,-1.0898,-1.0755,-1.0393,-1.0397,-1.0553,-1.0848,-1.1243,-1.1544,-1.1705,-1.1792,-1.1835,-1.1879,-1.1884,-1.1786,-1.1547,-1.1482,-1.1373,-1.1183,-1.1058,-1.0987,-1.0987,-1.0802,-1.0704,-1.0737,-1.0661,-1.0617,-1.0606,-1.0693,-1.0699,-1.0623,-1.0503,-1.0449,-1.0443,-1.0199,-1.009,-1.0085,-0.996,-0.9905,-0.9905,-0.9905,-0.9905,-0.99,-0.9856,-0.9769,-0.9655,-0.953,-0.9514,-0.9557,-0.9557,-0.9525,-0.9519,-0.9709,-0.9742,-0.9704,-0.9704,-0.9655,-0.9606,-0.9628,-0.9617,-0.9584,-0.9508,-0.9487,-0.9476,-0.9427,-0.9356,-0.9302,-0.9302,-0.9302,-0.9302,-0.9302,-0.9302,-0.9302,-0.9302,-0.9302,-0.9302,-0.9302,-0.9302,-0.9302,-0.9302,-0.9302,-0.9302,-0.9302,-0.9204,-0.9144,-0.9166,-0.8992,-0.8883,-0.8883,-0.8698,-0.859,-0.859,-0.859,-0.859,-0.859,-0.859,-0.859,-0.859,-0.859,-0.859,-0.859,-0.859,-0.859,-0.9866,-0.9976,-1.0136,-1.028,-1.043,-1.0638,-1.0853,-1.0993,-1.1071,-1.1175,-1.1045,-1.0781,-1.0566,-1.0575,-1.0579,-1.0824,-1.1161,-1.1482,-1.1726,-1.1759,-1.1759,-1.1759,-1.1726,-1.1623,-1.1417,-1.133,-1.1221,-1.1058,-1.0895,-1.0824,-1.0857,-1.0666,-1.0596,-1.0677,-1.0634,-1.0634,-1.0677,-1.0715,-1.0661,-1.0498,-1.0346,-1.0269,-1.0264,-1.0019,-0.9911,-0.9905,-0.9818,-0.9786,-0.9786,-0.9824,-0.9818,-0.978,-0.9742,-0.9677,-0.9601,-0.9519,-0.9508,-0.9546,-0.9546,-0.9546,-0.9579,-0.9775,-0.9835,-0.9835,-0.9835,-0.9758,-0.9677,-0.9715,-0.9671,-0.959,-0.9508,-0.9541,-0.9579,-0.9503,-0.9454,-0.9421,-0.9421,-0.9389,-0.9362,-0.9362,-0.9362,-0.9362,-0.9362,-0.9394,-0.9421,-0.9421,-0.9421,-0.9405,-0.9367,-0.9362,-0.9345,-0.9307,-0.9237,-0.922,-0.9296,-0.9122,-0.8922,-0.8884,-0.8796,-0.8666,-0.859,-0.859,-0.859,-0.859,-0.859,-0.859,-0.859,-0.859,-0.859,-0.859,-0.859,-0.859,-0.9492,-0.9406,-0.9352,-0.9358,-0.9698,-1.006,-1.0468,-1.0796,-1.1098,-1.1124,-1.0813,-1.0525,-1.0411,-1.0389,-1.0471,-1.0699,-1.1036,-1.1357,-1.1601,-1.1634,-1.1634,-1.1634,-1.1525,-1.14,-1.1281,-1.1052,-1.0916,-1.0916,-1.0693,-1.0606,-1.0732,-1.0623,-1.0639,-1.0639,-1.0672,-1.0677,-1.0634,-1.0672,-1.0617,-1.0378,-1.0134,-1.0019,-1.0008,-0.9775,-0.9671,-0.9666,-0.9671,-0.9671,-0.9677,-0.9786,-0.9769,-0.9655,-0.9536,-0.9487,-0.9487,-0.9487,-0.9563,-0.9666,-0.9666,-0.9666,-0.9688,-0.9802,-0.984,-0.984,-0.984,-0.9758,-0.9644,-0.9525,-0.9492,-0.9492,-0.9487,-0.9666,-0.978,-0.9546,-0.9579,-0.9666,-0.9671,-0.9574,-0.9487,-0.9487,-0.9487,-0.9487,-0.9487,-0.959,-0.9666,-0.9666,-0.9666,-0.9622,-0.9503,-0.9487,-0.9438,-0.9318,-0.9302,-0.9302,-0.9302,-0.9198,-0.9014,-0.889,-0.8884,-0.8776,-0.8595,-0.859,-0.859,-0.859,-0.8584,-0.8584,-0.859,-0.859,-0.859,-0.859,-0.859,-0.859,-0.9518,-0.9475,-0.9472,-0.9728,-1.0183,-1.0562,-1.078,-1.0833,-1.0999,-1.1072,-1.0949,-1.0775,-1.0655,-1.0775,-1.0884,-1.0867,-1.1025,-1.1237,-1.1476,-1.1368,-1.1291,-1.1368,-1.1275,-1.1123,-1.0916,-1.0835,-1.0753,-1.0672,-1.0596,-1.0606,-1.0732,-1.0623,-1.0639,-1.0639,-1.059,-1.0514,-1.0313,-1.0427,-1.0367,-1.0128,-0.9889,-0.9813,-0.9889,-0.9737,-0.9622,-0.9552,-0.9715,-0.9644,-0.9421,-0.9541,-0.9574,-0.9536,-0.9503,-0.9432,-0.9356,-0.9356,-0.9383,-0.9427,-0.9508,-0.9595,-0.9688,-0.9802,-0.9894,-0.9965,-0.9965,-0.9883,-0.978,-0.9742,-0.9731,-0.9715,-0.9633,-0.9791,-0.9905,-0.9671,-0.9579,-0.9563,-0.965,-0.9644,-0.9617,-0.9617,-0.9617,-0.9617,-0.9617,-0.9574,-0.9541,-0.9541,-0.9465,-0.94,-0.9362,-0.9356,-0.9345,-0.9307,-0.9302,-0.9302,-0.9302,-0.8261,-0.7549,-0.7446,-0.6379,-0.6627,-0.8534,-0.7723,-0.7116,-0.7045,-0.6105,-0.6038,-0.7045,-0.7045,-0.7579,-0.8584,-0.7517,-0.7045,-0.9352,-0.9258,-0.9326,-0.9689,-1.0149,-1.056,-1.0801,-1.1037,-1.1143,-1.127,-1.1145,-1.1036,-1.0965,-1.1036,-1.1079,-1.1003,-1.109,-1.1204,-1.1302,-1.1194,-1.1128,-1.1199,-1.1101,-1.0971,-1.0824,-1.0764,-1.0704,-1.0634,-1.0585,-1.0606,-1.0732,-1.0623,-1.0579,-1.0628,-1.0579,-1.0487,-1.0346,-1.0324,-1.0188,-0.9943,-0.9758,-0.9655,-0.9622,-0.9606,-0.953,-0.9421,-0.9563,-0.953,-0.9378,-0.9405,-0.947,-0.9552,-0.9454,-0.94,-0.9372,-0.9323,-0.9302,-0.9318,-0.9443,-0.9568,-0.9688,-0.9802,-0.9921,-1.0019,-1.0019,-0.9932,-0.9835,-0.9835,-0.9807,-0.9753,-0.9688,-0.9775,-0.9856,-0.9758,-0.9715,-0.972,-0.9791,-0.9769,-0.9737,-0.9737,-0.9737,-0.9737,-0.9737,-0.9715,-0.9682,-0.9633,-0.9481,-0.9378,-0.9378,-0.8822,-0.8357,-0.8357,-0.7851,-0.7489,-0.7489,-0.6616,-0.6001,-0.5923,-0.509,-0.5296,-0.6842,-0.6138,-0.5651,-0.557,-0.4763,-0.4696,-0.557,-0.557,-0.6038,-0.684,-0.5834,-0.5366,-0.9048,-0.8951,-0.8905,-0.9394,-0.9818,-1.0264,-1.0824,-1.1215,-1.1449,-1.1427,-1.1351,-1.1291,-1.1291,-1.1194,-1.1118,-1.1118,-1.1188,-1.1204,-1.1118,-1.1085,-1.1074,-1.1085,-1.0976,-1.09,-1.0889,-1.0775,-1.0704,-1.0704,-1.059,-1.0574,-1.0699,-1.0601,-1.0585,-1.0683,-1.059,-1.0525,-1.0492,-1.0286,-1.0063,-0.9818,-0.9709,-0.9536,-0.9323,-0.9427,-0.9416,-0.9318,-0.9307,-0.9372,-0.9476,-0.9356,-0.9432,-0.9617,-0.9389,-0.9372,-0.9459,-0.9356,-0.9318,-0.934,-0.9459,-0.9584,-0.9704,-0.9802,-0.9921,-1.0019,-1.0008,-0.9927,-0.9835,-0.9813,-0.9748,-0.9682,-0.9671,-0.9607,-0.9499,-0.96,-0.9773,-1.0008,-1.0019,-0.9932,-0.9774,-0.9621,-0.9621,-0.9545,-0.9392,-0.947,-0.9496,-0.9376,-0.9185,-0.9055,-0.9045,-0.7701,-0.6769,-0.6761,-0.5528,-0.4729,-0.4729,-0.4584,-0.4415,-0.4292,-0.4266,-0.4149,-0.392,-0.405,-0.4088,-0.4093,-0.3959,-0.3959,-0.4026,-0.4026,-0.4093,-0.4158,-0.3756,-0.3555,-0.8961,-0.8879,-0.9046,-0.9617,-1.0318,-1.0927,-1.1145,-1.133,-1.14,-1.1215,-1.1308,-1.1505,-1.1505,-1.1319,-1.1237,-1.1237,-1.1101,-1.102,-1.109,-1.0938,-1.0851,-1.0949,-1.0851,-1.0737,-1.0645,-1.053,-1.046,-1.046,-1.0346,-1.0335,-1.0454,-1.0438,-1.0389,-1.0318,-1.0384,-1.0286,-0.9992,-1.0036,-0.9938,-0.9704,-0.9584,-0.9497,-0.9443,-0.9378,-0.9383,-0.9443,-0.9345,-0.9372,-0.9476,-0.9356,-0.9334,-0.9378,-0.9323,-0.9318,-0.9351,-0.9421,-0.9449,-0.9465,-0.959,-0.9704,-0.9807,-0.9829,-0.9921,-1.0003,-0.9905,-0.9856,-0.9802,-0.9612,-0.9677,-0.978,-0.9693,-0.8807,-0.8006,-0.8028,-0.8919,-0.9905,-0.9998,-0.9998,-0.9589,-0.8265,-0.8032,-0.7562,-0.624,-0.5971,-0.5919,-0.5843,-0.5732,-0.5768,-0.5709,-0.5394,-0.522,-0.5171,-0.4875,-0.4729,-0.4729,-0.3567,-0.2834,-0.2755,-0.1673,-0.1008,-0.0908,-0.209,-0.2686,-0.2554,-0.1479,-0.1345,-0.215,-0.215,-0.2618,-0.3419,-0.2216,-0.168,-0.88,-0.9027,-0.9378,-1.009,-1.0688,-1.1134,-1.1248,-1.1368,-1.1422,-1.1297,-1.1368,-1.1438,-1.1378,-1.1313,-1.1237,-1.1123,-1.0998,-1.0922,-1.0927,-1.0819,-1.0759,-1.0824,-1.0775,-1.071,-1.065,-1.0536,-1.0465,-1.0465,-1.0405,-1.0378,-1.0384,-1.0438,-1.0411,-1.0297,-1.0297,-1.0177,-0.9927,-0.9878,-0.9764,-0.9579,-0.9459,-0.9372,-0.9318,-0.9307,-0.9372,-0.9481,-0.9356,-0.934,-0.9394,-0.9329,-0.934,-0.9383,-0.9329,-0.934,-0.9394,-0.9394,-0.94,-0.9427,-0.9606,-0.9709,-0.9764,-0.9818,-0.9341,-0.876,-0.8621,-0.8067,-0.7447,-0.7397,-0.7451,-0.7513,-0.7467,-0.6903,-0.6264,-0.6264,-0.6933,-0.7533,-0.7583,-0.7591,-0.7357,-0.6499,-0.6264,-0.603,-0.517,-0.4885,-0.476,-0.4728,-0.4699,-0.467,-0.4713,-0.4038,-0.3582,-0.3561,-0.2877,-0.2426,-0.2426,-0.1682,-0.1166,-0.1166,-0.0438,0.0,0.0,-0.0779,-0.1048,-0.0816,0.0068,0.0275,-0.0274,-0.0274,-0.0548,-0.1096,-0.0206,0.0273,-0.7994,-0.8379,-0.887,-0.9581,-1.0208,-1.0686,-1.0759,-1.1143,-1.1417,-1.14,-1.1427,-1.1511,-1.1324,-1.127,-1.1177,-1.0982,-1.0916,-1.0851,-1.0753,-1.0737,-1.0737,-1.0737,-1.0721,-1.0715,-1.0737,-1.059,-1.0503,-1.0525,-1.0487,-1.0422,-1.0329,-1.0411,-1.0411,-1.0297,-1.0193,-1.0085,-0.996,-0.9764,-0.9606,-0.9487,-0.9362,-0.9109,-0.8739,-0.8827,-0.9128,-0.9421,-0.934,-0.9302,-0.9302,-0.9013,-0.8998,-0.9003,-0.8687,-0.8562,-0.8631,-0.8557,-0.8532,-0.8562,-0.884,-0.891,-0.8925,-0.8935,-0.8121,-0.7048,-0.6876,-0.5969,-0.4992,-0.4957,-0.4981,-0.4997,-0.4997,-0.4771,-0.4544,-0.4544,-0.431,-0.431,-0.4857,-0.5014,-0.4936,-0.4623,-0.431,-0.4153,-0.4153,-0.4039,-0.3936,-0.3936,-0.3901,-0.3873,-0.3864,-0.273,-0.1894,-0.1886,-0.0748,0.0,0.0,0.0,0.0,0.0,0.0,0.0,0.0072,0.0143,0.0426,0.0831,0.0975,0.1119,0.1189,0.1259,0.133,0.1403,0.1684,0.1813,-0.5182,-0.5251,-0.5648,-0.603,-0.7486,-0.874,-0.8667,-1.0004,-1.127,-1.1172,-1.1313,-1.1449,-1.1522,-1.1264,-1.1118,-1.1085,-1.09,-1.0753,-1.0737,-1.0737,-1.0737,-1.0737,-1.0645,-1.0623,-1.0726,-1.0443,-1.0297,-1.04,-1.021,-1.0085,-1.0068,-1.0085,-1.0036,-0.9916,-0.9894,-0.9835,-0.9715,-0.9688,-0.9606,-0.9487,-0.9362,-0.8569,-0.7251,-0.7263,-0.7958,-0.9188,-0.9269,-0.9302,-0.923,-0.7851,-0.7349,-0.7216,-0.5822,-0.5317,-0.5329,-0.5376,-0.5394,-0.5404,-0.5559,-0.5663,-0.5663,-0.5673,-0.5525,-0.5286,-0.5155,-0.5026,-0.4834,-0.479,-0.4777,-0.4858,-0.4858,-0.3809,-0.282,-0.282,-0.1726,-0.149,-0.4388,-0.5014,-0.4544,-0.3133,-0.1647,-0.0706,-0.0706,-0.0627,-0.0627,-0.0627,-0.0626,-0.0622,-0.0616,-0.0461,-0.0305,-0.0299,-0.0149,0.0,0.0,0.0,0.0,0.0,0.0,0.0145,0.0501,0.0868,0.1229,0.1637,0.0976,0.0758,0.1102,0.1448,0.1803,0.2035,0.2105,0.2102,-0.4662,-0.4761,-0.5029,-0.5351,-0.6123,-0.7014,-0.8005,-0.8977,-0.9942,-1.094,-1.1188,-1.1237,-1.1166,-1.1128,-1.1058,-1.0922,-1.0808,-1.0715,-1.0645,-1.0693,-1.0688,-1.0558,-1.0547,-1.0574,-1.0628,-1.0373,-1.028,-1.0465,-1.0259,-1.0123,-1.0123,-0.9193,-0.8639,-0.8535,-0.7633,-0.7034,-0.6947,-0.6947,-0.6903,-0.682,-0.6781,-0.6398,-0.5746,-0.5746,-0.6018,-0.6637,-0.6673,-0.6688,-0.6688,-0.5963,-0.5746,-0.5673,-0.4947,-0.4729,-0.4732,-0.4757,-0.4768,-0.4776,-0.4835,-0.4857,-0.4857,-0.4857,-0.4334,-0.3586,-0.3417,-0.2768,-0.2117,-0.2044,-0.2072,-0.21,-0.21,-0.164,-0.1098,-0.1098,-0.0549,-0.0393,-0.1882,-0.2196,-0.1961,-0.1255,-0.0471,0.0,0.0,0.0,0.0,0.0,0.0,0.0,0.0,0.0,0.0,0.0,0.0,0.0076,0.0301,0.0299,0.0446,0.0664,0.0663,0.0733,0.0941,0.1092,0.1305,0.1432,0.1496,0.1563,0.1777,0.1919,0.2138,0.2223,0.2223,0.2286,-0.3908,-0.3893,-0.3802,-0.3968,-0.4443,-0.5217,-0.6466,-0.7251,-0.8027,-0.9378,-0.9654,-0.964,-0.9531,-1.0374,-1.0998,-1.0813,-1.0759,-1.0527,-0.9994,-1.005,-0.9783,-0.9188,-0.9207,-0.9245,-0.9274,-0.9007,-0.8959,-0.9221,-0.8988,-0.8874,-0.8845,-0.7673,-0.6965,-0.6781,-0.5588,-0.4928,-0.4793,-0.4779,-0.4749,-0.4707,-0.4707,-0.4496,-0.4075,-0.4061,-0.3909,-0.355,-0.4361,-0.4729,-0.4657,-0.4293,-0.4075,-0.4075,-0.3639,-0.3494,-0.3494,-0.3494,-0.3494,-0.3498,-0.3531,-0.3615,-0.3615,-0.3615,-0.2805,-0.1847,-0.1773,-0.0897,0.0,0.0,0.0,0.0,0.0,0.0,0.0,0.0,0.0,0.0,0.0,0.0,0.0,0.0,0.0,0.0,0.0,0.0,0.0,0.0,0.0,0.0,0.0,0.0,0.0,0.0156,0.0155,0.0308,0.0768,0.0761,0.0905,0.1195,0.1194,0.1263,0.1321,0.132,0.1384,0.151,0.2032,0.2256,0.2177,0.2249,0.2326,0.2333,0.2333,0.2322,-0.1805,-0.1214,-0.0283,-0.0291,-0.1638,-0.3048,-0.3018,-0.4341,-0.562,-0.5729,-0.5764,-0.5787,-0.5723,-0.8556,-1.0927,-1.0911,-1.0813,-1.0107,-0.8423,-0.825,-0.7561,-0.5845,-0.5543,-0.5531,-0.5674,-0.5405,-0.5358,-0.5502,-0.5367,-0.5306,-0.5243,-0.516,-0.5103,-0.4977,-0.4821,-0.4793,-0.4735,-0.4677,-0.4718,-0.4715,-0.4715,-0.3882,-0.2401,-0.2443,-0.1644,-0.043,-0.3403,-0.4729,-0.4584,-0.3057,-0.2401,-0.2257,-0.0802,-0.0219,-0.0219,-0.0219,-0.0219,-0.0219,-0.0219,-0.0219,-0.0219,-0.0219,-0.0219,-0.0146,-0.0146,-0.0074,0.0,0.0,0.0,0.0,0.0,0.0,0.0,0.0,0.0,0.0,0.0,0.0,0.0,0.0,0.0,0.0,0.0,0.0,0.0,0.0,0.0,0.0,0.0,0.0,0.0156,0.0541,0.054,0.0768,0.1213,0.1288,0.1286,0.1286,0.1286,0.1429,0.1782,0.1781,0.1919,0.2258,0.226,0.2174,0.1863,0.215,0.2307,0.2333,0.2333,0.2333,-0.0578,-0.0396,0.0,0.0,-0.0523,-0.1318,-0.2427,-0.3225,-0.4044,-0.5177,-0.5416,-0.5395,-0.5373,-0.6518,-0.7403,-0.7351,-0.7318,-0.7082,-0.6377,-0.6322,-0.6044,-0.5252,-0.5169,-0.5186,-0.5288,-0.5139,-0.5055,-0.5311,-0.5147,-0.5003,-0.5139,-0.3991,-0.3396,-0.3339,-0.2264,-0.1728,-0.1706,-0.1697,-0.1693,-0.1693,-0.1693,-0.1415,-0.0853,-0.0849,-0.0497,-0.0072,-0.1221,-0.1655,-0.1656,-0.109,-0.0802,-0.0802,-0.0219,0.0,0.0,0.0,0.0,0.0,0.0,0.0,0.0,0.0,0.0,0.0,0.0,0.0,0.0,0.0,0.0,0.0,0.0,0.0,0.0,0.0,0.0,0.0,0.0,0.0,0.0,0.0,0.0,0.0,0.0,0.0,0.0,0.0,0.0,0.0079,0.0314,0.0393,0.0549,0.1015,0.1014,0.1246,0.1629,0.1706,0.1778,0.2071,0.2069,0.2134,0.2183,0.2181,0.2252,0.2391,0.2391,0.2293,0.21,0.2245,0.2323,0.2333,0.2333,0.2333,0.0,0.0,0.0,0.0,0.0,-0.0296,-0.1529,-0.1804,-0.2159,-0.3303,-0.3604,-0.3575,-0.3588,-0.3625,-0.4066,-0.5208,-0.5438,-0.514,-0.4474,-0.4476,-0.4201,-0.3381,-0.3392,-0.3488,-0.3488,-0.3385,-0.3392,-0.3605,-0.3399,-0.3359,-0.3486,-0.229,-0.1649,-0.1687,-0.0577,0.0,0.0,0.0,0.0,0.0,0.0,0.0,0.0,0.0,0.0,0.0,0.0,0.0,0.0,0.0,0.0,0.0,0.0,0.0,0.0,0.0,0.0,0.0,0.0,0.0,0.0,0.0,0.0,0.0,0.0,0.0,0.0,0.0,0.0,0.0,0.0,0.0,0.0,0.0,0.0,0.0,0.0,0.0,0.0,0.0,0.0,0.0,0.0,0.0079,0.0236,0.0236,0.0314,0.055,0.0785,0.0864,0.1021,0.1493,0.1493,0.165,0.2043,0.2121,0.2193,0.2485,0.2484,0.247,0.244,0.2439,0.2433,0.2424,0.2424,0.2399,0.2348,0.2348,0.2343,0.2333,0.2333,0.2333,0.0,0.0,0.0,0.0,0.0,0.0,0.0,0.0,0.0,0.0,0.0,0.0,0.0,0.0,-0.1176,-0.4695,-0.5233,-0.4602,-0.2846,-0.2653,-0.1986,-0.0236,0.0,0.0,0.0,0.0,0.0,0.0,0.0,0.0,0.0,0.0,0.0,0.0,0.0,0.0,0.0,0.0,0.0,0.0,0.0,0.0,0.0,0.0,0.0,0.0,0.0,0.0,0.0,0.0,0.0,0.0,0.0,0.0,0.0,0.0,0.0,0.0,0.0,0.0,0.0,0.0,0.0,0.0,0.0,0.0,0.0,0.0,0.0,0.0,0.0,0.0,0.0,0.0,0.0,0.0,0.0,0.0,0.0,0.0,0.0,0.0,0.0,0.0393,0.0629,0.0629,0.1022,0.1336,0.1336,0.1336,0.1493,0.1886,0.1886,0.2043,0.2435,0.2514,0.2515,0.2515,0.2515,0.2503,0.2473,0.2472,0.2458,0.2427,0.2427,0.2412,0.238,0.2379,0.2363,0.2333,0.2333,0.2333,0.0,0.0,0.0,0.0,0.0,0.0,0.0,0.0,0.0,0.0,0.0,0.0,0.0,0.0,-0.0329,-0.1313,-0.1483,-0.1318,-0.0814,-0.0724,-0.0557,-0.0079,0.0,0.0,0.0,0.0,0.0,0.0,0.0,0.0,0.0,0.0,0.0,0.0,0.0,0.0,0.0,0.0,0.0,0.0,0.0,0.0,0.0,0.0,0.0,0.0,0.0,0.0,0.0,0.0,0.0,0.0,0.0,0.0,0.0,0.0,0.0,0.0,0.0,0.0,0.0,0.0,0.0,0.0,0.0,0.0,0.0,0.0,0.0,0.0,0.0,0.0236,0.0471,0.0471,0.0707,0.0942,0.0942,0.0942,0.0866,0.0556,0.0474,0.0553,0.0884,0.1033,0.1106,0.1126,0.12,0.1433,0.1671,0.1751,0.1904,0.2281,0.2357,0.2357,0.2514,0.2514,0.2523,0.2545,0.2547,0.2544,0.2534,0.2534,0.2521,0.2489,0.2489,0.2474,0.2444,0.2399,0.2363,0.2333,0.2333,0.2333,0.0,0.0,0.0,0.0,0.0,0.0,0.0,0.0,0.0,0.0,0.0,0.0,0.0,0.0,0.0,0.0,0.0,0.0,0.0,0.0,0.0,0.0,0.0,0.0,0.0,0.0,0.0,0.0,0.0,0.0,0.0,0.0,0.0,0.0,0.0,0.0,0.0,0.0,0.0,0.0,0.0,0.0,0.0,0.0,0.0,0.0,0.0,0.0,0.0,0.0,0.0,0.0,0.0,0.0,0.0,0.0,0.0,0.0,0.0,0.0,0.0,0.0,0.0,0.0,0.0,0.0,0.0,0.0,0.0,0.0,0.0236,0.0393,0.0628,0.0864,0.1099,0.1336,0.1336,0.1262,0.1267,0.1031,0.0947,0.0948,0.1288,0.1432,0.1584,0.1622,0.1685,0.1912,0.2172,0.2166,0.2318,0.2551,0.2551,0.2551,0.2551,0.254,0.2541,0.2559,0.2548,0.2541,0.2541,0.2541,0.2533,0.2515,0.2514,0.2499,0.2469,0.2433,0.2394,0.2352,0.2338,0.2333,0.0,0.0,0.0,0.0,0.0,0.0,0.0,0.0,0.0,0.0,0.0,0.0,0.0,0.0,0.0,0.0,0.0,0.0,0.0,0.0,0.0,0.0,0.0,0.0,0.0,0.0,0.0,0.0,0.0,0.0,0.0,0.0,0.0,0.0,0.0,0.0,0.0,0.0,0.0,0.0,0.0,0.0,0.0,0.0,0.0,0.0,0.0,0.0,0.0,0.0,0.0,0.0,0.0,0.0,0.0,0.0,0.0,0.0,0.0,0.0,0.0,0.0,0.0,0.0,0.0,0.0,0.0,0.0079,0.0079,0.0236,0.055,0.0707,0.0864,0.1256,0.1415,0.1417,0.1417,0.143,0.1437,0.1423,0.142,0.1426,0.1444,0.175,0.1988,0.2035,0.2325,0.2548,0.26,0.2585,0.2578,0.26,0.2601,0.2601,0.2601,0.2575,0.2562,0.2564,0.2536,0.2519,0.2519,0.2519,0.2518,0.2514,0.2514,0.2502,0.2474,0.2467,0.2436,0.2383,0.2356,0.2343,0.0,0.0,0.0,0.0,0.0,0.0,0.0,0.0,0.0,0.0,0.0,0.0,0.0,0.0,0.0,0.0,0.0,0.0,0.0,0.0,0.0,0.0,0.0,0.0,0.0,0.0,0.0,0.0,0.0,0.0,0.0,0.0,0.0,0.0,0.0,0.0,0.0,0.0,0.0,0.0,0.0,0.0,0.0,0.0,0.0,0.0,0.0,0.0,0.0,0.0,0.0,0.0,0.0,0.0,0.0,0.0,0.0,0.0,0.0,0.0,0.0,0.0,0.0,0.0,0.0,0.0,0.0079,0.0393,0.0785,0.1099,0.1178,0.1414,0.165,0.1728,0.2058,0.2312,0.2312,0.2331,0.2349,0.2344,0.2101,0.1953,0.2325,0.2456,0.2524,0.2583,0.2562,0.2626,0.2637,0.2634,0.2623,0.2604,0.2601,0.2601,0.2601,0.2575,0.257,0.2592,0.2567,0.2551,0.2551,0.2551,0.254,0.2515,0.2514,0.2511,0.2506,0.2457,0.2427,0.2414,0.2409,0.2406,0.0,0.0,0.0,0.0,0.0,0.0,0.0,0.0,0.0,0.0,0.0,0.0,0.0,0.0,0.0,0.0,0.0,0.0,0.0,0.0,0.0,0.0,0.0,0.0,0.0,0.0,0.0,0.0,0.0,0.0,0.0,0.0,0.0,0.0,0.0,0.0,0.0,0.0,0.0,0.0,0.0,0.0,0.0,0.0,0.0,0.0,0.0,0.0,0.0,0.0,0.0,0.0,0.0,0.0,0.0,0.0,0.0,0.0,0.0,0.0,0.0,0.0,0.0,0.0,0.0236,0.0471,0.0707,0.0864,0.1099,0.1336,0.1571,0.1728,0.1964,0.2121,0.2368,0.2537,0.2537,0.2571,0.2601,0.2601,0.2463,0.2404,0.2583,0.2632,0.2622,0.2683,0.2654,0.2635,0.2665,0.2657,0.2647,0.2647,0.2647,0.2647,0.2647,0.262,0.2609,0.2623,0.2597,0.2581,0.2581,0.2567,0.2545,0.2515,0.2514,0.2514,0.2514,0.2484,0.2461,0.2446,0.2431,0.2424,0.0,0.0,0.0,0.0,0.0,0.0,0.0,0.0,0.0,0.0,0.0,0.0,0.0,0.0,0.0,0.0,0.0,0.0,0.0,0.0,0.0,0.0,0.0,0.0,0.0,0.0,0.0,0.0,0.0,0.0,0.0,0.0,0.0,0.0,0.0,0.0,0.0,0.0,0.0,0.0,0.0,0.0,0.0,0.0,0.0,0.0,0.0,0.0,0.0,0.0,0.0,0.0,0.0,0.0,0.0,0.0,0.0,0.0,0.0,0.0,0.0,0.0,0.0079,0.0157,0.0628,0.1021,0.1414,0.1414,0.1493,0.1571,0.1964,0.2046,0.2128,0.2445,0.2532,0.254,0.254,0.2582,0.2619,0.2619,0.2658,0.2684,0.266,0.2635,0.2635,0.2686,0.265,0.2637,0.2686,0.2671,0.2665,0.269,0.2692,0.2692,0.2692,0.2664,0.2565,0.2565,0.2619,0.2601,0.2601,0.2579,0.2553,0.2523,0.2529,0.2529,0.2523,0.2523,0.2507,0.2477,0.2453,0.2442,0.0,0.0,0.0,0.0,0.0,0.0,0.0,0.0,0.0,0.0,0.0,0.0,0.0,0.0,0.0,0.0,0.0,0.0,0.0,0.0,0.0,0.0,0.0,0.0,0.0,0.0,0.0,0.0,0.0,0.0,0.0,0.0,0.0,0.0,0.0,0.0,0.0,0.0,0.0,0.0,0.0,0.0,0.0,0.0,0.0,0.0,0.0,0.0,0.0,0.0,0.0,0.0,0.0,0.0,0.0,0.0,0.0,0.0,0.0,0.0,0.0,0.0,0.0236,0.0628,0.1099,0.1493,0.1807,0.1807,0.2121,0.2357,0.2435,0.2455,0.2555,0.2555,0.2594,0.255,0.255,0.2658,0.2682,0.2682,0.2687,0.2691,0.2688,0.2684,0.2684,0.2691,0.2687,0.2684,0.2691,0.269,0.2688,0.2692,0.2692,0.2692,0.2692,0.2664,0.2565,0.2565,0.2619,0.2601,0.2601,0.2598,0.2583,0.2555,0.2579,0.2579,0.2555,0.2555,0.2538,0.2508,0.2506,0.2504,0.0,0.0,0.0,0.0,0.0,0.0,0.0,0.0,0.0,0.0,0.0,0.0,0.0,0.0,0.0,0.0,0.0,0.0,0.0,0.0,0.0,0.0,0.0,0.0,0.0,0.0,0.0,0.0,0.0,0.0,0.0,0.0,0.0,0.0,0.0,0.0,0.0,0.0,0.0,0.0,0.0,0.0,0.0,0.0,0.0,0.0,0.0,0.0,0.0,0.0,0.0,0.0,0.0,0.0,0.0,0.0,0.0,0.0,0.0,0.0156,0.0393,0.0628,0.1021,0.1414,0.1571,0.1964,0.2282,0.2298,0.246,0.2544,0.256,0.2574,0.2585,0.2585,0.2602,0.262,0.262,0.2645,0.2667,0.2667,0.268,0.2692,0.2692,0.2692,0.2692,0.2692,0.2692,0.2692,0.2692,0.2692,0.2692,0.2692,0.2692,0.2692,0.2692,0.268,0.2673,0.2673,0.2661,0.2646,0.2628,0.2628,0.2615,0.2585,0.2596,0.2596,0.2585,0.2585,0.2578,0.2564,0.253,0.2514,0.0,0.0,0.0,0.0,0.0,0.0,0.0,0.0,0.0,0.0,0.0,0.0,0.0,0.0,0.0,0.0,0.0,0.0,0.0,0.0,0.0,0.0,0.0,0.0,0.0,0.0,0.0,0.0,0.0,0.0,0.0,0.0,0.0,0.0,0.0,0.0,0.0,0.0,0.0,0.0,0.0,0.0,0.0,0.0,0.0,0.0,0.0,0.0,0.0,0.0,0.0,0.0,0.0,0.0,0.0,0.0,0.0,0.0,0.0156,0.047,0.0864,0.1336,0.165,0.1886,0.2043,0.2278,0.2521,0.2551,0.2553,0.2556,0.2592,0.2601,0.2601,0.2601,0.2615,0.2624,0.2616,0.2638,0.266,0.266,0.2677,0.2692,0.2692,0.2692,0.2692,0.2692,0.2692,0.2692,0.2692,0.2692,0.2692,0.2692,0.2692,0.2692,0.2692,0.2692,0.2692,0.2692,0.2692,0.2683,0.266,0.266,0.2645,0.2615,0.2622,0.2623,0.2615,0.2615,0.2615,0.2613,0.2562,0.2538,0.0,0.0,0.0,0.0,0.0,0.0,0.0,0.0,0.0,0.0,0.0,0.0,0.0,0.0,0.0,0.0,0.0,0.0,0.0,0.0,0.0,0.0,0.0,0.0,0.0,0.0,0.0,0.0,0.0,0.0,0.0,0.0,0.0,0.0,0.0,0.0,0.0,0.0,0.0,0.0,0.0,0.0,0.0,0.0,0.0,0.0,0.0,0.0,0.0,0.0,0.0,0.0,0.0,0.0,0.0,0.0,0.0,0.0077,0.0463,0.0855,0.1336,0.1728,0.1886,0.1964,0.2357,0.2514,0.2521,0.2551,0.2538,0.2529,0.2586,0.2601,0.2601,0.2601,0.2646,0.2682,0.2652,0.2669,0.2691,0.2691,0.2691,0.2692,0.2692,0.2692,0.2692,0.2692,0.2692,0.2692,0.2692,0.2692,0.2692,0.2692,0.2692,0.2692,0.2692,0.2692,0.2692,0.2692,0.2692,0.2692,0.2691,0.2691,0.2676,0.2563,0.2675,0.2675,0.2563,0.2563,0.2563,0.2562,0.2613,0.2598,0.0,0.0,0.0,0.0,0.0,0.0,0.0,0.0,0.0,0.0,0.0,0.0,0.0,0.0,0.0,0.0,0.0,0.0,0.0,0.0,0.0,0.0,0.0,0.0,0.0,0.0,0.0,0.0,0.0,0.0,0.0,0.0,0.0,0.0,0.0,0.0,0.0,0.0,0.0,0.0,0.0,0.0,0.0,0.0,0.0,0.0,0.0,0.0,0.0,0.0,0.0,0.0,0.0,0.0,0.0,0.0,0.0152,0.0463,0.1246,0.1565,0.1728,0.22,0.2278,0.2361,0.2538,0.2544,0.2551,0.2579,0.2579,0.2577,0.2597,0.2601,0.2607,0.2627,0.2647,0.2665,0.2675,0.2686,0.2692,0.2692,0.2709,0.2722,0.2722,0.2739,0.2739,0.2698,0.2692,0.2699,0.272,0.2705,0.2701,0.272,0.2705,0.2692,0.2692,0.2712,0.2722,0.2722,0.2742,0.2743,0.2722,0.2742,0.2739,0.2707,0.2717,0.2717,0.2707,0.2687,0.2677,0.2676,0.2667,0.2641,0.0,0.0,0.0,0.0,0.0,0.0,0.0,0.0,0.0,0.0,0.0,0.0,0.0,0.0,0.0,0.0,0.0,0.0,0.0,0.0,0.0,0.0,0.0,0.0,0.0,0.0,0.0,0.0,0.0,0.0,0.0,0.0,0.0,0.0,0.0,0.0,0.0,0.0,0.0,0.0,0.0,0.0,0.0,0.0,0.0,0.0,0.0,0.0,0.0,0.0,0.0,0.0,0.0,0.0,0.0,0.0152,0.0538,0.1166,0.1724,0.1964,0.2121,0.2435,0.2522,0.2534,0.2553,0.2567,0.2583,0.2623,0.2619,0.2609,0.2642,0.2634,0.2623,0.2559,0.2656,0.2665,0.2675,0.2684,0.2692,0.2692,0.2717,0.2737,0.2737,0.2763,0.277,0.2731,0.2725,0.2732,0.2751,0.2736,0.2732,0.2751,0.2736,0.2725,0.2725,0.2743,0.2754,0.2754,0.2773,0.2774,0.2755,0.3377,0.3823,0.3912,0.4484,0.4829,0.4865,0.4793,0.476,0.4757,0.4738,0.4693]},{"header":{"parameterUnit":"m.s-1","parameterCategory":1,"la1":30.6,"la2":29.2853,"lo1":-89.7004,"lo2":-87.6739,"dy":0.0162,"dx":0.0183,"nx":112,"ny":82,"refTime":"2023-10-01T06:00:00:Z","depth":0,"parameterNumber":3,"parameterNumberName":"V-component_of_WINDS"},"data":[0.0,0.0,0.0,0.0,0.0,0.0,0.0,0.0,0.0,0.0,0.0,0.0,0.0,0.0,0.0,0.0,0.0,0.0,0.0,0.0,0.0,0.0,0.0,0.0,0.0,0.0,0.0,0.0,0.0,0.0,0.0,0.0,0.0,0.0,0.0,0.0,0.0,0.0,0.0,0.0,0.0,0.0,0.0,0.0,0.0,0.0,0.0,0.0,0.0,0.0,0.0,0.0,0.0,0.0,0.0,0.0,0.0,0.0,0.0,0.0,0.0,0.0,0.0,0.0,0.0,0.0,0.0,0.0,0.0,0.0,0.0,0.0,0.0,0.0,0.0,0.0,0.0,0.0,0.0,0.0,0.0,0.0,0.0,0.0,0.0,0.0,0.0,0.0,0.0,0.0,2.4792,2.619,2.8222,2.9833,3.0637,2.9692,2.7992,2.5498,0.0,0.0,0.0,0.0,0.0,0.0,0.0,0.0,0.0,0.0,0.0,0.0,0.0,0.0,0.0,0.0,0.0,0.0,0.0,0.0,0.0,0.0,0.0,0.0,0.0,0.0,0.0,0.0,0.0,0.0,0.0,0.0,0.0,0.0,0.0,0.0,0.0,0.0,0.0,0.0,0.0,0.0,0.0,0.0,0.0,0.0,0.0,0.0,0.0,0.0,0.0,0.0,0.0,0.0,0.0,0.0,0.0,0.0,0.0,0.0,0.0,0.0,0.0,0.0,0.0,0.0,0.0,0.0,0.0,0.0,0.0,0.0,0.0,0.0,0.0,0.0,0.0,0.0,0.0,0.0,0.0,0.0,0.0,0.0,0.0,0.0,0.0,0.0,0.0,0.0,0.0,0.0,0.0,0.0,0.0,0.0,0.0,0.0,0.0,0.0,0.0,0.0,0.0,0.0,2.4433,2.796,2.9055,2.9558,2.9693,2.8366,2.6816,2.5172,0.0,0.0,0.0,0.0,0.0,0.0,0.0,0.0,0.0,0.0,0.0,0.0,0.0,0.0,0.0,0.0,0.0,0.0,0.0,0.0,0.0,0.0,0.0,0.0,0.0,0.0,0.0,0.0,0.0,0.0,0.0,0.0,0.0,0.0,0.0,0.0,0.0,0.0,0.0,0.0,0.0,0.0,0.0,0.0,0.0,0.0,0.0,0.0,0.0,0.0,0.0,0.0,0.0,0.0,0.0,0.0,0.0,0.0,0.0,0.0,0.0,0.0,0.0,0.0,0.0,0.0,0.0,0.0,0.0,0.0,0.0,0.0,0.0,0.0,0.0,0.0,0.0,0.0,0.0,0.0,0.0,0.0,0.0,0.0,0.0,0.0,0.0,0.0,0.0,0.0,0.0,0.0,0.0,0.0,0.0,0.0,0.0,0.0,0.0,0.0,0.0,0.0,0.0,2.4748,2.6216,2.9248,2.9751,2.9882,2.9882,2.8498,2.6889,2.5127,2.4487,0.0,0.0,0.0,0.0,0.0,0.0,0.0,0.0,0.0,0.0,0.0,0.0,0.0,0.0,0.0,0.0,0.0,0.0,0.0,0.0,0.0,0.0,0.0,0.0,0.0,0.0,0.0,0.0,0.0,0.0,0.0,0.0,0.0,0.0,0.0,0.0,0.0,0.0,0.0,0.0,0.0,0.0,0.0,0.0,0.0,0.0,0.0,0.0,0.0,0.0,0.0,0.0,0.0,0.0,0.0,0.0,0.0,0.0,0.0,0.0,0.0,0.0,0.0,0.0,0.0,0.0,0.0,0.0,0.0,0.0,0.0,0.0,0.0,0.0,0.0,0.0,0.0,0.0,0.0,0.0,0.0,0.0,0.0,0.0,0.0,0.0,0.0,0.0,0.0,0.0,0.0,0.0,0.0,0.0,0.0,0.0,0.0,0.0,0.0,0.0,0.0,0.0,2.6802,2.8136,2.9685,2.9969,2.9991,2.9882,2.8518,2.6897,2.5009,2.3973,0.0,0.0,0.0,0.0,0.0,0.0,0.0,0.0,0.0,0.0,0.0,0.0,0.0,0.0,0.0,0.0,0.0,0.0,0.0,0.0,0.0,0.0,0.0,0.0,0.0,0.0,0.0,0.0,0.0,0.0,0.0,0.0,0.0,0.0,0.0,0.0,0.0,0.0,0.0,0.0,0.0,0.0,0.0,0.0,0.0,0.0,0.0,0.0,0.0,0.0,0.0,0.0,0.0,0.0,0.0,0.0,0.0,0.0,0.0,0.0,0.0,0.0,0.0,0.0,0.0,0.0,0.0,0.0,0.0,0.0,0.0,0.0,0.0,0.0,0.0,0.0,0.0,0.0,0.0,0.0,0.0,0.0,0.0,0.0,0.0,0.0,0.0,0.0,0.0,0.0,0.0,0.0,0.0,0.0,0.0,0.0,0.0,0.0,0.0,0.0,0.0,0.0,2.7032,2.9083,2.8929,2.9318,2.9358,2.8946,2.7567,2.6101,2.4614,2.3002,0.0,0.0,0.0,0.0,0.0,0.0,0.0,0.0,0.0,0.0,0.0,0.0,0.0,0.0,0.0,0.0,0.0,0.0,0.0,0.0,0.0,0.0,0.0,0.0,0.0,0.0,0.0,0.0,0.0,0.0,0.0,0.0,0.0,0.0,0.0,0.0,0.0,0.0,0.0,0.0,0.0,0.0,0.0,0.0,0.0,0.0,0.0,0.0,0.0,0.0,0.0,0.0,0.0,0.0,0.0,0.0,0.0,0.0,0.0,0.0,0.0,0.0,0.0,0.0,0.0,0.0,0.0,0.0,0.0,0.0,0.0,0.0,0.0,0.0,0.0,0.0,0.0,0.0,0.0,0.0,0.0,0.0,0.0,0.0,0.0,0.0,0.0,0.0,0.0,0.0,0.0,0.0,0.0,0.0,0.0,0.0,0.0,0.0,0.0,0.0,0.0,0.0,2.8091,2.9936,0.0,3.1136,3.1043,3.051,2.9074,2.7244,2.4943,0.0,0.0,0.0,0.0,0.0,0.0,0.0,0.0,0.0,0.0,0.0,0.0,0.0,0.0,0.0,0.0,0.0,0.0,0.0,0.0,0.0,0.0,0.0,0.0,0.0,0.0,0.0,0.0,0.0,0.0,0.0,0.0,0.0,0.0,0.0,0.0,0.0,0.0,0.0,0.0,0.0,0.0,0.0,0.0,0.0,0.0,0.0,0.0,0.0,0.0,0.0,0.0,0.0,0.0,0.0,0.0,0.0,0.0,0.0,0.0,0.0,0.0,0.0,0.0,0.0,0.0,0.0,0.0,0.0,0.0,0.0,0.0,0.0,0.0,0.0,0.0,0.0,0.0,0.0,0.0,0.0,0.0,0.0,0.0,0.0,0.0,0.0,0.0,0.0,0.0,0.0,0.0,0.0,0.0,0.0,0.0,0.0,0.0,0.0,0.0,0.0,0.0,2.6947,2.8907,3.0713,0.0,3.1941,3.1656,3.1277,2.9707,2.7774,2.5452,0.0,0.0,0.0,0.0,0.0,0.0,0.0,0.0,0.0,0.0,0.0,0.0,0.0,0.0,0.0,0.0,0.0,0.0,0.0,0.0,0.0,0.0,0.0,0.0,0.0,0.0,0.0,0.0,0.0,0.0,0.0,0.0,0.0,0.0,0.0,0.0,0.0,0.0,0.0,0.0,0.0,0.0,0.0,0.0,0.0,0.0,0.0,0.0,0.0,0.0,0.0,0.0,0.0,0.0,0.0,0.0,0.0,0.0,0.0,0.0,0.0,0.0,0.0,0.0,0.0,0.0,0.0,0.0,0.0,0.0,0.0,0.0,0.0,0.0,0.0,0.0,0.0,0.0,0.0,0.0,0.0,0.0,0.0,0.0,0.0,0.0,0.0,0.0,0.0,0.0,0.0,0.0,0.0,0.0,0.0,0.0,0.0,0.0,0.0,0.0,0.0,0.0,2.6596,2.9367,3.139,3.1588,3.1076,3.0721,3.074,2.8956,2.7327,0.0,0.0,0.0,0.0,0.0,0.0,0.0,0.0,0.0,0.0,0.0,0.0,0.0,0.0,0.0,0.0,0.0,0.0,0.0,0.0,0.0,0.0,0.0,0.0,0.0,0.0,0.0,0.0,0.0,0.0,0.0,0.0,0.0,0.0,0.0,0.0,0.0,0.0,0.0,0.0,0.0,0.0,0.0,0.0,0.0,0.0,0.0,0.0,0.0,0.0,0.0,0.0,0.0,0.0,0.0,0.0,0.0,0.0,0.0,0.0,0.0,0.0,0.0,0.0,0.0,0.0,0.0,0.0,0.0,0.0,0.0,0.0,0.0,0.0,0.0,0.0,0.0,0.0,0.0,0.0,0.0,0.0,0.0,0.0,0.0,0.0,0.0,0.0,0.0,0.0,0.0,0.0,0.0,0.0,0.0,0.0,0.0,0.0,0.0,0.0,0.0,0.0,0.0,2.7793,3.0444,3.2478,3.2976,3.319,3.3027,3.2397,3.1023,2.9204,2.694,0.0,0.0,0.0,0.0,0.0,0.0,0.0,0.0,0.0,0.0,0.0,0.0,0.0,0.0,0.0,0.0,0.0,0.0,0.0,0.0,0.0,0.0,0.0,0.0,0.0,0.0,0.0,0.0,0.0,0.0,0.0,0.0,0.0,0.0,0.0,0.0,0.0,0.0,0.0,0.0,0.0,0.0,0.0,0.0,0.0,0.0,0.0,0.0,0.0,0.0,0.0,0.0,0.0,0.0,0.0,0.0,0.0,0.0,0.0,0.0,0.0,0.0,0.0,0.0,0.0,0.0,0.0,0.0,0.0,0.0,0.0,0.0,0.0,0.0,0.0,0.0,0.0,0.0,0.0,0.0,0.0,0.0,0.0,0.0,0.0,0.0,0.0,0.0,0.0,0.0,0.0,0.0,0.0,0.0,0.0,0.0,0.0,0.0,0.0,0.0,0.0,0.0,2.8935,3.1258,3.3132,3.3822,3.4005,3.3878,3.341,3.1891,3.0289,2.869,0.0,0.0,0.0,0.0,0.0,0.0,0.0,0.0,0.0,0.0,0.0,0.0,0.0,0.0,0.0,0.0,0.0,0.0,0.0,0.0,0.0,0.0,0.0,0.0,0.0,0.0,0.0,0.0,0.0,0.0,0.0,0.0,0.0,0.0,0.0,0.0,0.0,0.0,0.0,0.0,0.0,0.0,0.0,0.0,0.0,0.0,0.0,0.0,0.0,0.0,0.0,0.0,0.0,0.0,0.0,0.0,0.0,0.0,0.0,0.0,0.0,0.0,0.0,0.0,0.0,0.0,0.0,0.0,0.0,0.0,0.0,0.0,0.0,0.0,0.0,0.0,0.0,0.0,0.0,0.0,0.0,0.0,0.0,0.0,0.0,0.0,0.0,0.0,0.0,0.0,0.0,0.0,0.0,0.0,0.0,0.0,0.0,0.0,0.0,0.0,0.0,0.0,2.9968,3.1902,3.3529,3.4439,3.4161,3.4018,3.4166,3.2241,3.0991,3.0976,0.0,0.0,0.0,0.0,0.0,0.0,0.0,0.0,0.0,0.0,0.0,0.0,0.0,0.0,0.0,0.0,0.0,0.0,0.0,0.0,0.0,0.0,0.0,0.0,0.0,0.0,0.0,0.0,0.0,0.0,0.0,0.0,0.0,0.0,0.0,0.0,0.0,0.0,0.0,0.0,0.0,0.0,0.0,0.0,0.0,0.0,0.0,0.0,0.0,0.0,0.0,0.0,0.0,0.0,0.0,0.0,0.0,0.0,0.0,0.0,4.1126,4.0127,0.0,0.0,0.0,0.0,0.0,0.0,0.0,0.0,0.0,0.0,0.0,0.0,0.0,0.0,0.0,0.0,0.0,0.0,0.0,0.0,0.0,0.0,0.0,0.0,0.0,0.0,0.0,0.0,0.0,0.0,0.0,0.0,0.0,0.0,0.0,0.0,0.0,0.0,0.0,0.0,3.0344,3.27,3.4554,3.5274,3.6154,3.6539,3.6259,3.4916,3.3494,3.2224,3.0754,0.0,0.0,0.0,0.0,0.0,0.0,0.0,0.0,0.0,0.0,0.0,0.0,0.0,0.0,0.0,0.0,0.0,0.0,0.0,0.0,0.0,0.0,0.0,0.0,0.0,0.0,0.0,0.0,0.0,0.0,0.0,0.0,0.0,0.0,0.0,0.0,0.0,0.0,0.0,0.0,0.0,0.0,0.0,0.0,0.0,0.0,0.0,0.0,0.0,0.0,0.0,0.0,0.0,0.0,0.0,0.0,0.0,0.0,0.0,4.5022,4.3099,0.0,0.0,0.0,0.0,0.0,0.0,0.0,0.0,0.0,0.0,0.0,0.0,0.0,0.0,0.0,0.0,0.0,0.0,0.0,0.0,0.0,0.0,0.0,0.0,0.0,0.0,0.0,0.0,0.0,0.0,0.0,0.0,0.0,0.0,0.0,0.0,0.0,0.0,0.0,0.0,3.1876,3.364,3.5175,3.6396,3.711,3.7329,3.6884,3.5683,3.4656,3.39,3.2386,0.0,0.0,0.0,0.0,0.0,0.0,0.0,0.0,0.0,0.0,0.0,0.0,0.0,0.0,0.0,0.0,0.0,0.0,0.0,0.0,0.0,0.0,0.0,0.0,0.0,0.0,0.0,0.0,0.0,0.0,0.0,0.0,0.0,0.0,0.0,0.0,0.0,0.0,0.0,0.0,0.0,0.0,0.0,0.0,0.0,0.0,0.0,0.0,0.0,0.0,0.0,0.0,0.0,5.4991,5.5488,5.5992,5.5992,5.6065,5.5796,5.0644,4.7844,4.6775,4.5112,0.0,0.0,0.0,0.0,0.0,0.0,0.0,0.0,0.0,0.0,0.0,0.0,0.0,0.0,0.0,0.0,0.0,0.0,0.0,0.0,0.0,0.0,3.9274,3.846,3.8284,3.7476,3.4257,0.0,0.0,0.0,0.0,0.0,0.0,0.0,0.0,0.0,0.0,0.0,3.3485,3.4587,3.5799,3.7519,3.7568,3.7461,3.7434,3.6108,3.5398,3.5674,3.4006,3.2671,0.0,0.0,0.0,0.0,0.0,0.0,0.0,0.0,0.0,0.0,0.0,0.0,0.0,0.0,0.0,0.0,0.0,0.0,0.0,0.0,0.0,0.0,0.0,0.0,0.0,0.0,0.0,0.0,0.0,0.0,0.0,0.0,4.2348,4.2291,0.0,0.0,0.0,0.0,0.0,0.0,0.0,0.0,0.0,0.0,0.0,0.0,0.0,5.3142,5.4907,5.7418,5.8525,5.8228,6.0641,6.1608,6.1284,6.1284,6.1414,6.1597,6.0168,0.0,5.142,4.8819,0.0,0.0,0.0,0.0,0.0,0.0,0.0,0.0,0.0,0.0,0.0,0.0,0.0,0.0,0.0,0.0,0.0,0.0,0.0,0.0,0.0,0.0,4.3005,4.1565,4.1275,4.0793,3.8934,3.6358,3.3921,3.2553,3.2369,3.2049,0.0,0.0,0.0,0.0,0.0,0.0,3.3878,3.5354,3.6835,3.8235,3.787,3.8175,3.9886,3.772,3.6562,3.7148,3.5891,3.4543,3.3223,3.2721,0.0,0.0,0.0,0.0,0.0,0.0,0.0,0.0,0.0,0.0,0.0,0.0,0.0,0.0,0.0,0.0,0.0,0.0,0.0,0.0,0.0,0.0,0.0,0.0,0.0,0.0,0.0,0.0,0.0,4.2561,4.3963,4.3235,4.3551,4.304,0.0,0.0,0.0,0.0,0.0,0.0,0.0,0.0,0.0,5.4745,5.6255,5.7939,5.9856,6.185,6.3149,6.3784,6.5368,6.6283,6.6513,6.6513,6.6599,6.6651,6.5876,6.3579,5.9923,5.4887,5.129,4.8756,0.0,0.0,0.0,0.0,4.4984,4.5604,4.7664,4.7818,4.7149,4.7445,0.0,0.0,0.0,0.0,0.0,0.0,0.0,4.1669,4.255,4.3462,4.4094,4.3846,4.3459,4.2943,4.227,4.0323,3.7931,3.5274,3.503,3.4759,3.3035,3.2346,0.0,0.0,0.0,3.3515,3.5244,3.6074,3.6999,3.8385,3.8262,3.8262,3.8785,3.7738,3.703,3.6938,3.6384,3.5795,3.5203,3.4541,3.4036,0.0,0.0,0.0,0.0,0.0,0.0,0.0,0.0,0.0,0.0,0.0,0.0,0.0,0.0,0.0,0.0,0.0,0.0,0.0,0.0,0.0,0.0,0.0,0.0,0.0,0.0,0.0,0.0,4.5144,4.6834,4.5217,4.7334,4.744,0.0,0.0,0.0,0.0,0.0,0.0,5.305,5.4631,5.6801,5.978,6.1193,6.2939,6.5055,6.626,6.7489,6.8678,6.9184,6.9807,7.0438,7.0267,7.0164,7.018,6.922,6.7953,6.6091,6.0174,5.6315,5.385,5.0992,4.9624,4.9256,4.9293,4.9294,4.9626,5.2165,5.2157,5.1036,5.0929,4.9209,4.6675,4.4035,0.0,0.0,0.0,0.0,4.3522,4.4797,4.5227,4.5399,4.5551,4.5125,4.4601,4.4189,4.3141,4.1339,3.8179,3.7561,3.7002,3.5324,3.4282,0.0,0.0,0.0,3.4506,3.6045,3.6384,3.6938,3.8138,3.7954,3.7802,3.7962,3.7498,3.7219,3.7279,3.7091,3.6888,3.6565,3.6048,3.555,3.5235,0.0,0.0,0.0,0.0,0.0,0.0,0.0,0.0,0.0,0.0,0.0,0.0,0.0,0.0,0.0,0.0,0.0,0.0,0.0,0.0,0.0,0.0,0.0,0.0,0.0,0.0,0.0,0.0,0.0,4.9547,5.328,0.0,0.0,0.0,0.0,5.1709,5.3738,5.6208,5.9174,6.0755,6.2935,6.587,6.74,6.8937,7.0482,7.1259,7.1668,7.178,7.1814,7.1978,7.215,7.143,7.1213,7.1319,6.9911,6.8394,6.67,6.3302,6.0081,5.6985,5.4192,5.2132,5.0815,5.086,5.0887,5.1017,5.1946,5.1744,5.133,5.2743,5.121,4.845,4.687,4.529,0.0,0.0,4.5794,4.6486,4.7317,4.8036,4.818,4.6671,4.635,4.5935,4.435,4.3473,4.246,4.0812,3.8953,3.7427,3.6552,0.0,3.4443,3.4443,3.4998,3.543,3.5552,3.6138,3.6753,3.7492,3.6415,3.6661,3.9094,3.7547,3.7268,3.9246,3.8752,3.7823,3.6574,3.6605,3.5941,3.4488,3.4544,0.0,0.0,0.0,0.0,0.0,0.0,0.0,0.0,0.0,0.0,0.0,0.0,0.0,0.0,0.0,0.0,0.0,0.0,0.0,0.0,0.0,0.0,0.0,0.0,0.0,0.0,0.0,0.0,5.4011,5.7637,0.0,5.4736,5.5383,5.6367,5.7184,5.9342,6.1745,6.4316,6.5881,6.7615,6.9604,7.0705,7.1496,7.208,7.2321,7.2218,7.166,7.166,7.1221,7.0375,7.0581,7.0175,6.9291,6.9291,6.8428,6.6842,6.4697,6.2275,5.9689,5.7227,5.562,5.4702,5.4697,5.4419,5.4074,5.4881,5.4667,5.3839,5.2942,5.1275,4.9419,4.8328,4.7266,4.6612,4.7381,4.778,4.818,4.8959,4.939,4.9304,4.8191,4.7615,4.6977,4.5914,4.4705,4.3654,4.3037,4.1149,3.9304,3.814,3.7137,3.652,3.6442,3.6689,3.7038,3.7377,3.7719,3.8033,3.8229,3.7841,3.7733,3.8137,3.7515,3.7237,3.7487,3.7285,3.7163,3.7136,3.6752,3.6467,3.6412,3.5926,3.5754,0.0,0.0,0.0,0.0,0.0,0.0,0.0,0.0,0.0,0.0,0.0,0.0,0.0,0.0,0.0,0.0,0.0,0.0,0.0,0.0,0.0,0.0,0.0,0.0,0.0,5.496,5.86,5.7741,6.1968,6.3517,5.9904,6.0971,6.2282,6.3073,6.4873,6.6773,6.8808,6.9877,7.0877,7.1843,7.2395,7.2575,7.2291,7.2291,7.1877,7.1118,7.1118,7.0601,6.967,6.9911,6.9325,6.8083,6.8118,6.7394,6.6117,6.4565,6.291,6.1116,5.9357,5.8219,5.7529,5.7253,5.6495,5.5667,5.5943,5.5529,5.4563,5.2804,5.1563,5.0562,4.9499,4.9016,4.8907,4.912,4.9189,4.9355,4.9873,4.9804,4.9424,4.8603,4.7844,4.7121,4.6389,4.5389,4.4501,4.3907,4.2193,4.0497,3.9544,3.8623,3.7996,3.7921,3.8002,3.8166,3.852,3.8635,3.8718,3.8718,3.8718,3.8575,3.8243,3.821,3.7985,3.7494,3.7453,3.7476,3.7485,3.7034,3.6865,3.7077,3.6559,3.6284,3.6284,0.0,0.0,0.0,0.0,0.0,0.0,0.0,0.0,0.0,0.0,0.0,0.0,0.0,0.0,0.0,0.0,0.0,0.0,0.0,0.0,0.0,0.0,0.0,5.2444,5.8772,6.2729,6.0771,6.6393,6.8704,6.4289,6.6497,6.8532,6.9291,7.0049,7.1118,7.2644,7.2713,7.2713,7.2713,7.2713,7.2291,7.1498,7.1498,7.1118,7.036,7.036,7.0325,7.0256,6.9532,6.8773,6.7911,6.6462,6.5393,6.4565,6.3048,6.1979,6.122,6.0496,5.9737,5.8944,5.815,5.6909,5.5428,5.477,5.4011,5.3287,5.2463,5.2188,5.1877,5.0493,5.0528,5.0942,5.0218,5.0011,5.0011,5.0011,4.9424,4.8603,4.7879,4.7148,4.6389,4.5569,4.5363,4.4914,4.3517,4.2014,4.0886,4.0728,3.9613,3.8772,3.8772,3.8772,0.0,3.8772,3.8772,3.8772,3.8772,3.8772,3.8989,3.9577,3.9603,3.9581,3.95,3.9455,3.8837,3.7525,3.7478,3.7098,3.6318,3.6284,3.6284,3.6284,0.0,0.0,0.0,0.0,0.0,0.0,0.0,0.0,0.0,0.0,0.0,0.0,0.0,0.0,0.0,0.0,0.0,0.0,0.0,0.0,0.0,5.5702,5.8426,5.8702,6.2494,6.5803,6.7394,6.9704,7.0705,6.9428,7.0084,7.0636,7.0877,7.1601,7.2222,7.2713,7.2713,7.2713,7.2713,7.2713,7.2291,7.1498,7.1498,7.0843,6.9566,6.9566,6.9015,6.7911,6.7704,6.6876,6.56,6.5221,6.46,6.3772,6.2255,6.1496,6.122,6.0496,5.9392,5.815,5.7391,5.615,5.477,5.4563,5.4011,5.3356,5.3149,5.2321,5.1356,5.0942,5.0562,5.0252,5.008,5.0011,5.0011,5.0011,4.9424,4.8603,4.7879,4.7148,4.6389,4.5569,4.4975,4.4458,4.4069,4.2746,4.1498,4.0959,4.0563,4.0245,4.0145,4.022,0.0,4.0145,4.0254,4.0294,4.0294,4.0294,4.0139,3.9713,3.9669,3.9431,3.8871,3.8343,3.7883,3.7512,3.6939,3.6525,3.6284,3.6284,3.6284,0.0,0.0,0.0,0.0,0.0,0.0,0.0,0.0,0.0,0.0,0.0,0.0,0.0,0.0,0.0,0.0,0.0,0.0,0.0,0.0,0.0,0.0,5.9937,6.3269,6.5268,6.6572,6.8083,7.0153,7.105,7.1636,7.1946,7.1981,7.1981,7.1981,7.2429,7.2713,7.2713,7.2713,7.2713,7.2713,7.2713,7.2291,7.1498,7.1187,7.0429,6.9291,6.8946,6.8325,6.7463,6.7463,6.6635,6.5186,6.5186,6.46,6.3531,6.2634,6.1703,6.0771,0.0,0.0,0.0,0.0,5.6012,5.4977,5.4977,5.4046,5.2908,5.2908,5.208,5.1045,5.0735,5.0562,5.0424,5.008,5.0011,5.0011,5.0011,4.9154,4.8224,4.7775,4.6879,4.5949,4.55,4.5079,4.4665,4.438,4.3586,0.0,4.155,4.1101,4.0871,4.081,4.0847,4.0847,4.0776,4.0847,4.0894,4.0894,4.0894,4.0722,4.0215,4.0181,0.0,0.0,0.0,3.8284,3.7996,3.7491,0.0,0.0,0.0,3.7589,3.7596,3.7968,0.0,0.0,3.7318,3.7075,0.0,0.0,0.0,0.0,0.0,0.0,0.0,0.0,0.0,0.0,0.0,0.0,0.0,0.0,0.0,0.0,6.4169,6.7501,7.1255,7.0644,7.0094,7.0857,7.1515,7.2208,7.2901,7.297,7.297,7.297,7.297,7.2929,7.2838,7.2887,0.0,0.0,0.0,7.2589,7.1751,7.1024,7.0302,6.954,6.8704,6.8323,6.8323,6.8254,6.753,6.6283,6.611,6.5244,6.3962,6.3752,6.2402,6.0324,5.9288,5.8495,5.784,5.7185,5.6357,5.5598,5.5497,0.0,0.0,5.2119,5.1602,5.0976,5.0218,5.039,5.07,5.0045,4.9873,4.9873,4.9873,4.8803,4.7672,4.7672,4.65,4.5397,4.5397,4.5397,4.519,4.4527,4.438,4.3862,4.2516,4.1585,4.1032,4.1032,4.0963,4.0929,4.0998,4.0963,4.0894,4.0894,4.0894,0.0,4.0894,4.0894,4.0618,3.9871,3.9733,3.9353,3.8629,3.8594,3.8639,3.8684,3.9083,3.9376,3.9469,3.9825,4.0202,4.0559,3.8672,3.7864,0.0,0.0,0.0,0.0,0.0,0.0,0.0,0.0,0.0,0.0,0.0,0.0,0.0,0.0,0.0,6.4005,6.6885,6.9741,7.3128,7.3257,7.3291,7.4035,7.4248,7.439,7.4567,7.4567,7.4567,7.4567,7.4567,7.4264,7.3637,7.4187,7.4264,7.3597,7.4226,7.4177,7.3432,7.2651,7.1871,7.1055,7.0275,0.0,6.9849,6.9246,6.8855,6.85,6.7188,6.6443,6.6089,6.4811,6.3381,6.164,5.9099,5.8047,5.7874,5.7736,5.6805,5.5529,5.4943,5.4046,5.2977,5.1735,5.1218,5.0976,5.0218,4.9666,0.0,4.9051,4.9016,4.9016,4.9016,4.8361,4.7672,4.7672,4.65,4.5397,4.5397,4.5397,4.5363,4.519,4.4699,4.4207,4.3897,4.2723,4.1792,4.1792,4.1274,4.1101,4.1723,4.1274,4.0894,4.0894,4.0894,4.0894,4.0894,4.0894,4.0825,4.0687,4.0043,3.9353,3.8629,3.8594,3.8794,3.9182,3.93,3.9585,3.9976,4.042,4.0683,4.0752,3.995,3.9914,0.0,0.0,0.0,0.0,0.0,0.0,0.0,0.0,0.0,0.0,0.0,5.5405,5.7784,0.0,6.2803,6.7918,7.0405,7.2547,7.5025,7.5994,7.5985,7.469,7.4476,7.4582,7.4975,7.501,7.5011,7.512,7.5084,7.4903,7.4533,7.4866,7.4902,7.4416,7.479,7.4832,7.444,7.3298,7.2513,7.2084,7.0871,7.0334,7.04,7.0007,6.968,6.935,6.8561,6.7737,6.6877,6.4511,6.3316,6.2742,6.0099,5.9236,5.9495,5.9495,5.8545,5.7138,5.687,5.5735,5.4324,5.3576,5.2745,5.1993,5.1606,5.0702,4.9806,4.9806,4.9617,4.9424,4.9424,4.8534,4.7775,4.8155,4.6776,4.55,4.5914,4.5673,4.5397,4.5397,4.5113,4.4734,4.438,4.3655,4.3034,4.2654,4.2275,4.2033,4.1999,4.1688,4.1309,4.0929,4.0894,4.0894,4.0894,4.0894,4.0894,4.0894,4.0689,4.0466,4.0171,4.0319,4.0594,4.0897,4.1141,4.1374,4.1651,4.2114,4.2299,4.2349,4.2094,4.1759,0.0,0.0,0.0,0.0,0.0,0.0,0.0,5.4206,5.4398,5.6804,5.7418,5.8756,6.2694,6.4187,6.6496,7.1478,7.349,7.5005,7.663,7.7997,7.78,7.5161,7.5037,7.5257,7.5546,7.569,7.5761,7.5718,7.5718,7.5685,7.5726,7.5721,7.5724,7.5801,7.562,7.5618,7.5798,7.4217,7.3426,7.3426,7.1842,7.1117,7.1211,7.1067,7.073,7.0237,6.9911,6.8971,6.7487,6.483,6.3997,6.4186,6.2295,6.1634,6.1728,6.1293,6.0246,5.902,5.8835,5.7522,5.5857,5.5425,5.4475,5.3441,5.3117,5.2106,5.0999,5.0832,5.0511,5.0126,4.9952,4.9117,4.8414,4.8839,4.7525,4.6343,4.703,4.6447,4.5788,4.5788,4.558,4.519,4.4596,4.4492,4.4276,4.3517,4.3276,4.3034,4.2516,4.2344,4.1999,4.1412,4.1343,4.1298,4.1254,4.1105,4.1047,4.1163,4.149,4.1717,4.1846,4.2144,4.2426,4.2602,4.2941,4.3212,4.3335,4.3664,4.3886,4.3913,4.3913,4.3209,5.0903,5.0685,5.2477,5.6485,5.6528,5.6925,0.0,6.1895,6.154,6.4009,6.5114,6.5962,6.7218,6.8694,7.0639,7.3462,7.4709,7.5846,7.7587,7.7908,7.7857,7.757,7.8779,7.902,7.7627,7.8143,7.8253,7.7547,7.751,7.7561,7.7579,7.7536,7.7861,7.8635,7.7903,7.7811,7.8547,7.6965,7.6155,7.6155,7.4499,7.3754,7.3783,7.3055,7.2678,7.2558,7.1057,6.9915,6.8984,6.8055,6.7294,6.6703,6.6433,6.5447,6.3972,6.1978,6.0768,5.9824,5.8421,5.7765,5.7189,5.5127,5.4802,5.4932,5.3529,5.2533,5.173,5.0988,5.0761,5.0534,4.977,5.0008,5.0283,4.9591,4.9221,4.9067,4.9139,4.8112,4.7171,4.7171,4.6213,4.5363,4.5294,4.5259,4.5044,4.4311,4.3621,4.3414,4.3966,4.3483,4.3034,4.293,4.293,4.2826,4.252,4.1866,4.163,4.2103,4.2185,4.2266,4.2386,4.2446,4.264,4.3051,4.3122,4.3387,4.3832,4.3945,4.3955,4.3971,4.3971,4.3849,5.4342,5.4693,5.5941,5.8408,5.9257,6.0336,6.3698,6.392,6.4253,6.7209,6.8058,6.8712,7.0121,7.1701,7.3468,7.555,7.6959,7.8211,7.9417,7.9138,7.8442,7.7599,7.847,7.8986,7.8552,7.8781,7.9106,7.9372,7.9372,7.9364,7.9419,7.9372,7.9268,7.9044,7.8668,7.8448,7.8301,7.7193,7.6602,7.6602,7.542,7.47,7.4302,7.3969,7.3616,7.3178,7.1991,7.1028,7.0112,6.8902,6.7926,6.7147,6.6725,6.5798,6.4614,6.3578,6.2423,6.1251,6.0689,5.9832,5.8854,5.7909,5.7107,5.6305,5.5192,5.4032,5.2921,5.2137,5.1677,5.1371,5.1011,5.0831,5.0818,5.0903,5.0196,4.9693,5.016,4.9412,4.8687,4.8687,4.8235,4.7818,4.7818,4.7818,4.7736,4.7417,4.5982,4.4981,4.5211,4.4975,4.4632,4.424,4.4192,4.4117,4.3971,4.3244,4.2864,4.3109,4.2893,4.2811,4.2904,4.3159,4.3424,4.3627,4.366,4.3742,4.3961,4.4008,4.3986,4.3986,4.3986,4.3971,5.6654,5.7678,5.8681,6.0248,6.1883,6.3571,6.5236,6.5754,6.6716,6.9529,7.0084,7.058,7.2103,7.3686,7.5271,7.6865,7.8425,7.9688,8.0282,7.9465,7.8313,7.6929,7.6865,7.7339,7.8372,7.8861,7.9438,8.0147,8.0406,8.0658,8.0918,8.0695,8.0451,8.0186,7.952,7.8935,7.8602,7.7567,7.7049,7.7049,7.6004,7.5283,7.4772,7.4327,7.3888,7.3361,7.2544,7.1701,7.0784,6.9373,6.8357,6.7577,6.6982,6.6128,6.5139,6.5069,6.3984,6.2561,6.2443,6.1633,6.0497,6.0051,5.9043,5.7777,5.6516,5.5397,5.4319,5.3292,5.2704,5.2363,5.2146,5.1841,5.1718,5.2,5.1405,5.0897,5.1456,5.0836,5.0168,5.0168,4.9839,4.9604,4.9604,4.9604,4.9649,4.982,4.8432,4.7178,4.6671,4.6392,4.6054,4.5585,4.5353,4.5251,4.5409,4.4686,4.4275,4.4411,4.3944,4.3683,4.3789,4.3874,4.3961,4.3986,4.3986,4.3986,4.3986,4.3986,4.3986,4.3986,4.3986,4.3986,5.6531,5.7873,5.9329,6.2479,6.4624,6.6402,6.7999,6.8964,7.0041,7.1775,7.2109,7.2369,7.3187,7.4673,7.6047,7.6939,7.8425,7.9502,7.9502,7.8165,7.6855,7.5936,7.445,7.4487,7.6902,7.8573,7.9502,7.9539,8.0245,8.1063,8.1917,8.1137,8.1434,8.3032,8.0728,7.9837,8.0617,7.9056,7.8239,7.8239,7.6567,7.5787,7.5713,7.4153,7.341,7.3361,7.2544,7.1701,7.0821,7.0004,6.9187,6.8444,6.8444,6.7465,6.6054,6.6054,6.499,6.3431,6.2673,6.2376,6.2079,6.0444,5.9865,5.9383,5.7026,5.6263,5.5872,5.4238,5.3756,5.3551,5.2772,5.3143,5.3514,5.2735,5.3066,5.36,5.3637,5.2516,5.1536,5.1536,5.0496,4.9604,4.9604,4.9604,4.9798,5.0283,5.0347,4.9813,4.851,4.7629,4.714,4.7126,4.6428,4.6163,4.6603,4.5969,4.5755,4.62,4.5456,4.5099,4.5233,4.4416,4.3986,4.3986,4.3986,4.3986,4.3986,4.3986,4.3986,4.3986,4.3986,4.3986,5.8375,6.0752,6.3317,6.6094,6.764,6.8914,7.0586,7.1143,7.1515,7.2098,7.1738,7.1106,7.0289,7.2369,7.445,7.5304,7.8165,8.0691,8.1806,8.0505,7.8573,7.6084,7.5304,7.4673,7.3919,7.5787,7.8165,8.0951,8.0877,8.1285,8.2697,8.2511,8.2363,8.24,8.1025,8.0171,7.9911,7.8833,7.8016,7.7459,7.5787,7.497,7.497,7.3919,7.3398,7.3398,7.3101,7.2184,7.0858,7.0598,6.9707,6.8481,6.8481,6.754,6.6091,6.6091,6.5051,6.3565,6.3305,6.2524,6.1521,6.0964,5.9998,5.8846,5.7509,5.71,5.6878,5.5763,5.5057,5.4537,5.4277,5.4017,5.372,5.346,5.357,5.3774,5.3774,5.3398,5.3057,5.3057,5.2699,5.2377,5.2377,5.2377,5.2455,5.2631,5.1669,5.076,5.0328,5.011,5.0002,5.0002,4.9229,4.8771,4.8938,4.7737,4.7068,4.7242,4.6463,4.6034,4.6104,4.5287,4.4841,4.4841,4.4283,4.3986,4.3986,4.3986,4.3986,4.3986,4.3986,4.3986,6.1337,6.3808,6.6243,6.8741,6.9744,7.0512,7.1875,7.1961,7.1738,7.1738,7.0846,6.9633,6.8296,6.9806,7.1589,7.2666,7.5304,7.809,8.0654,7.9316,7.7719,7.679,7.5899,7.5081,7.4439,7.523,7.7162,8.0431,8.1248,8.1917,8.2734,8.3032,8.2957,8.2437,8.1285,8.0431,7.9911,7.8833,7.7719,7.6604,7.5527,7.471,7.4153,7.3658,7.3398,7.3398,7.3398,7.2444,7.0895,7.0895,6.993,6.8444,6.8208,6.728,6.6054,6.5756,6.4791,6.3602,6.3602,6.2747,6.1596,6.1298,6.0258,5.8958,5.7843,5.7509,5.7323,5.6543,5.5912,5.5466,5.5466,5.5094,5.4686,5.4686,5.4686,5.4686,5.4686,5.4463,5.4314,5.4648,5.4463,5.4351,5.4648,5.4463,5.4128,5.3831,5.2846,5.2029,5.1732,5.1528,5.1416,5.1416,5.0896,5.045,5.0153,4.915,4.8444,4.8147,4.7367,4.6921,4.6921,4.6141,4.5732,4.5732,4.4915,4.4469,4.4469,4.4135,4.3986,4.3986,4.3986,4.3986,6.5199,6.6982,6.8246,7.0561,7.1118,7.1292,7.2072,7.1552,7.0858,7.0747,6.941,6.8036,6.7168,6.7094,6.7725,6.941,7.0524,7.2592,7.6753,7.5368,7.5007,7.7979,7.6307,7.5787,7.8016,7.6902,7.6679,7.8239,8.1248,8.2734,8.2103,8.2771,8.318,8.318,8.1545,8.0691,8.0691,7.9056,7.7422,7.5861,7.5787,7.4933,7.3473,7.3435,7.3398,7.3398,7.3361,7.2406,7.0895,7.0858,6.9893,6.8431,6.7688,6.681,6.5919,6.5139,6.4345,6.3602,6.3602,6.3044,6.2227,6.1447,6.0593,5.9552,5.8029,5.7583,5.7398,5.6655,5.6395,5.6357,5.6357,5.632,5.632,5.632,5.632,5.632,5.632,5.5652,5.5317,5.6134,5.5652,5.5354,5.6172,5.5614,5.4797,5.398,5.3868,5.3571,5.2754,5.2011,5.1528,5.1528,5.1491,5.1119,5.0302,5.019,4.9856,4.9076,4.8259,4.7813,4.7813,4.6995,4.655,4.655,4.5769,4.5361,4.5361,4.4506,4.4061,4.4061,4.4023,4.3986,6.8171,7.0735,7.3038,7.4264,7.4115,7.3558,7.3175,7.1961,7.0375,6.8593,6.6884,6.5125,6.3119,6.4233,6.6364,6.9224,7.2444,7.601,8.0171,8.0691,8.032,7.9316,7.9168,7.8685,7.7523,7.8648,7.9391,7.9205,7.9948,8.1137,8.2809,8.3069,8.318,8.318,8.1545,8.0691,8.0691,7.8499,7.7189,7.678,7.549,7.4673,7.4264,7.3696,7.3398,7.3398,7.2767,7.1886,7.0858,7.0227,6.941,6.8506,6.8283,6.7354,6.6054,6.5831,6.4865,6.3602,6.3602,6.2673,6.1484,6.1261,6.0221,5.8958,5.8512,5.8401,5.8364,5.8141,5.7658,5.7212,5.7212,5.6766,5.632,5.632,5.632,5.632,5.632,5.6134,5.6023,5.6246,5.6134,5.606,5.6246,5.6134,5.5689,5.4834,5.4686,5.4426,5.3608,5.3311,5.32,5.32,5.2642,5.2197,5.1974,5.1416,5.0971,5.0785,4.9968,4.9522,4.9559,4.8184,4.7404,4.7404,4.6587,4.6178,4.6178,4.5361,4.4952,4.4952,4.4283,4.3986,7.0883,7.3187,7.5304,7.6159,7.5453,7.4301,7.3138,7.1292,6.9038,6.6277,6.4382,6.271,6.0964,6.1744,6.3616,6.655,6.988,7.3744,7.8573,7.9985,8.0802,8.1545,8.1434,8.1025,8.0357,8.0877,8.1211,8.1137,8.11,8.1583,8.2623,8.2994,8.318,8.318,8.1954,8.0914,8.0171,7.8833,7.7821,7.7078,7.575,7.4933,7.4561,7.377,7.3398,7.3361,7.2544,7.1701,7.0821,7.0004,6.9224,6.8407,6.7725,6.6908,6.6017,6.5274,6.4419,6.3602,6.3602,6.2562,6.1187,6.1187,6.0295,5.9181,5.8809,5.8698,5.8698,5.8698,5.8364,5.8029,5.8029,5.7695,5.736,5.736,5.736,5.736,5.736,5.71,5.684,5.684,5.71,5.7249,5.6878,5.684,5.6543,5.5689,5.5577,5.5429,5.4946,5.4277,5.3794,5.3794,5.3423,5.2977,5.2642,5.2197,5.1788,5.1416,5.0599,5.0116,5.0153,4.8927,4.8221,4.8221,4.7441,4.7033,4.7033,4.6215,4.5844,4.5807,4.5324,4.5101,7.3447,7.4996,7.6307,7.7078,7.5925,7.4153,7.2406,7.0029,6.728,6.3973,6.2079,6.0778,5.9903,5.9828,6.0831,6.3788,6.6216,6.9806,7.5639,7.7199,7.9391,8.3849,8.3143,8.2846,8.4257,8.3143,8.2549,8.3143,8.318,8.2883,8.2177,8.2809,8.3143,8.3032,8.2363,8.1174,7.9502,7.9502,7.8722,7.7263,7.627,7.5416,7.471,7.3844,7.3398,7.3361,7.2432,7.1589,7.0821,6.9893,6.9113,6.8333,6.6871,6.6202,6.5905,6.4345,6.3713,6.3602,6.349,6.2524,6.1336,6.1224,6.0555,5.9627,5.8921,5.8698,5.8698,5.8698,5.8698,5.8698,5.8698,5.8698,5.8698,5.8698,5.8698,5.8698,5.8698,5.8141,5.7658,5.7658,5.8215,5.8475,5.7769,5.7658,5.7398,5.658,5.6469,5.6432,5.632,5.502,5.4091,5.398,5.398,5.3645,5.2828,5.2754,5.2457,5.1751,5.0896,5.045,5.045,4.967,4.9187,4.9076,4.837,4.7961,4.785,4.7033,4.6694,4.6722,4.661,4.6605,7.6159,7.7152,7.7905,7.8053,7.6307,7.3967,7.1663,6.8729,6.5571,6.2301,6.0815,5.9887,5.9069,5.9478,6.1596,6.681,6.9113,7.2518,7.8945,8.058,8.1954,8.4146,8.4146,8.4072,8.4369,8.4146,8.3775,8.3217,8.318,8.3143,8.2994,8.3106,8.2883,8.2214,8.2066,8.1174,7.9502,7.9502,7.9019,7.8053,7.653,7.5713,7.5527,7.4067,7.3398,7.3298,7.1812,7.1044,7.0784,6.9298,6.8654,6.8407,6.7465,6.6685,6.5979,6.4953,6.4173,6.3527,6.2859,6.245,6.2079,6.141,6.0184,5.8884,5.8735,5.8698,5.8698,5.8698,5.8698,5.8698,5.8698,5.8698,5.8698,5.8698,5.8698,5.8698,5.8698,5.8586,5.8512,5.8512,5.8624,5.8661,5.8512,5.8512,5.8215,5.7398,5.7286,5.7063,5.6395,5.606,5.5577,5.4871,5.4797,5.4463,5.3683,5.3608,5.3534,5.3385,5.2605,5.2159,5.2159,5.1379,5.0636,4.993,4.9745,4.9373,4.8704,4.7887,4.7639,4.7905,4.7206,4.7051,7.8016,7.8945,7.9651,8.0097,7.7385,7.393,7.1452,6.7763,6.3862,6.0593,5.9589,5.9181,5.8772,5.9367,6.1091,6.4753,6.7033,7.0549,7.6679,7.8982,8.1137,8.4035,8.4406,8.4406,8.4406,8.3997,8.3626,8.3217,8.318,8.318,8.318,8.318,8.2994,8.2623,8.2623,8.1806,8.0134,8.0097,7.9502,7.8276,7.6604,7.5787,7.575,7.4142,7.3398,7.3324,7.1626,7.0895,7.0784,6.915,6.8481,6.837,6.7168,6.6462,6.5942,6.4642,6.3936,6.3565,6.3156,6.2747,6.2264,6.1484,6.037,5.9255,5.8846,5.8698,5.8698,5.8698,5.8698,5.8698,5.8698,5.8698,5.8698,5.8698,5.8698,5.8698,5.8698,5.8698,5.8698,5.8698,5.8698,5.8698,5.8698,5.8698,5.8586,5.8178,5.8141,5.7992,5.7621,5.7546,5.6915,5.5206,5.502,5.4686,5.3868,5.3794,5.3794,5.3794,5.3051,5.2605,5.2605,5.1825,5.1212,5.0819,5.0819,5.0445,4.966,4.9449,4.9189,4.8932,4.8648,4.8593,7.8871,8.0097,8.1063,8.136,7.7868,7.3632,7.097,6.6736,6.2487,5.9367,5.8698,5.8698,5.8698,5.9218,6.0348,6.2562,6.4568,6.7948,7.4004,7.6679,7.9539,8.3663,8.4295,8.4406,8.4406,8.3812,8.3366,8.3217,8.318,8.318,8.318,8.318,8.318,8.318,8.318,8.24,8.0728,8.0691,7.9799,7.8016,7.6493,7.5713,7.549,7.4041,7.3398,7.3324,7.1626,7.0895,7.0784,6.915,6.8481,6.8357,6.6945,6.6351,6.6165,6.4493,6.3839,6.3825,6.3453,6.2933,6.2264,6.1484,6.063,5.9754,5.8958,5.8698,5.8698,5.8698,5.8698,5.8698,5.8698,5.8698,5.8698,5.8698,5.8698,5.8698,5.8698,5.8698,5.8698,5.8698,5.8698,5.8698,5.8698,5.8698,5.8698,5.8698,5.8698,5.8698,5.8698,5.8698,5.7881,5.5763,5.5391,5.4871,5.3868,5.3794,5.3794,5.3794,5.3218,5.2903,5.2903,5.2326,5.1933,5.1867,5.1884,5.154,5.0863,5.0847,5.0591,5.0031,5.0025,5.0045,7.8351,8.0097,8.1508,8.0097,7.6567,7.2666,6.9472,6.5496,6.1781,5.9255,5.8698,5.8698,5.8698,5.8772,6.0072,6.3951,6.4768,6.7465,7.4673,7.6567,7.875,8.2809,8.396,8.4406,8.4406,8.4332,8.3997,8.3254,8.318,8.318,8.318,8.318,8.318,8.318,8.318,8.24,8.0728,8.0691,7.9502,7.7226,7.6233,7.5416,7.4673,7.3807,7.3398,7.3324,7.1626,7.0895,7.0784,6.915,6.8481,6.8407,6.754,6.7205,6.6982,6.5287,6.4693,6.447,6.3044,6.245,6.2264,6.1484,6.063,5.9754,5.8958,5.8698,5.8698,5.8698,5.8698,5.8698,5.8698,5.8698,5.8698,5.8698,5.8698,5.8698,5.8698,5.8698,5.8698,5.8698,5.8698,5.8698,5.8698,5.8698,5.8698,5.8698,5.8698,5.8698,5.8698,5.8698,5.8326,5.736,5.6617,5.554,5.3943,5.3794,5.3794,5.3794,5.3851,5.387,5.387,5.385,5.3651,5.3154,5.3132,5.287,5.2308,5.1547,5.1292,5.1491,5.0696,5.0529,7.9056,8.1174,8.2437,8.1285,7.7162,7.2666,6.988,6.5311,6.1113,5.9107,5.8698,5.8698,5.8698,5.8698,5.9255,6.0853,6.1537,6.375,6.9211,7.1106,7.4097,7.9957,8.1393,8.2612,8.4391,8.4567,8.4442,8.4141,8.4104,8.4104,8.4104,8.3508,8.318,8.318,8.2967,8.2301,8.1142,8.0931,7.9717,7.7503,7.6925,7.593,7.4588,7.4305,7.392,7.3387,7.2754,7.232,7.1953,7.0561,6.9992,6.988,6.8525,6.8036,6.781,6.6154,6.5514,6.5364,6.4197,6.3783,6.3633,6.2862,6.1977,6.1168,6.0675,6.0004,5.9446,5.9714,5.9238,5.8698,5.8698,5.8698,5.8698,5.8698,5.8698,5.8698,5.8698,5.9107,5.9292,5.8809,5.9107,5.9292,5.8772,5.8698,5.8698,5.8698,5.8777,5.8882,5.9026,5.9122,5.8951,5.8295,5.7529,5.6419,5.4782,5.469,5.4503,5.4019,5.4196,5.4296,5.4296,5.4468,5.4519,5.4406,5.4368,5.4071,5.3404,5.3207,5.2922,5.2528,5.1808,5.1559,7.8532,8.1205,8.2817,8.1863,7.7273,7.2406,6.9917,6.5125,6.0741,5.9069,5.8698,5.8698,5.8698,5.8698,5.8772,5.9032,5.9775,6.167,6.5571,6.7503,7.0623,7.6306,7.7804,7.9602,8.2699,8.4036,8.4711,8.4711,8.4446,8.4294,8.434,8.3451,8.3002,8.3274,8.2721,8.2059,8.1231,8.0757,7.9532,7.7626,7.7057,7.6029,7.4623,7.4676,7.439,7.3798,7.3363,7.2975,7.2595,7.1237,7.0687,7.0573,6.9397,6.8903,6.8713,6.7025,6.6418,6.6266,6.5127,6.4748,6.4672,6.412,6.3495,6.2968,6.2848,6.162,6.0262,6.0585,5.9835,5.9081,5.9305,5.938,5.9437,5.9738,5.9775,5.9794,5.9833,6.0283,6.0507,5.9945,6.0283,6.0413,5.9589,5.9439,5.9364,5.9083,5.9159,5.9252,5.9444,5.9547,5.9468,5.9109,5.8627,5.7676,5.6006,5.5908,5.5604,5.4777,5.4909,5.4936,5.4708,5.4867,5.5082,5.5224,5.5262,5.5018,5.4572,5.4531,5.4188,5.3581,5.2898,5.2461,7.6016,7.9466,8.2302,8.1019,7.6419,7.1552,6.91,6.4716,6.0741,5.9069,5.8698,5.8698,5.8698,5.8698,5.8958,5.9775,6.063,6.2339,6.5645,6.7503,6.9434,7.1986,7.3316,7.5365,7.8752,8.2487,8.4711,8.4711,8.3892,8.3445,8.3519,8.2662,8.258,8.3377,8.2581,8.171,8.0915,8.0043,7.8815,7.7207,7.6314,7.548,7.4705,7.4705,7.4728,7.4693,7.3022,7.2376,7.2278,7.0604,6.9918,6.9918,6.988,6.988,6.969,6.8015,6.7389,6.7161,6.5503,6.4894,6.4894,6.4894,6.4894,6.4959,6.5355,6.3375,6.1001,6.1001,6.0416,5.9961,6.0774,6.0963,6.1207,6.214,6.2363,6.2379,6.2436,6.2452,6.2452,6.2452,6.2452,6.2185,6.1332,6.118,6.0875,6.0023,5.9908,5.9908,5.9908,5.987,5.987,5.987,6.0021,5.935,5.7606,5.7478,5.7097,5.6231,5.6224,5.5922,5.5145,5.5173,5.5336,5.5577,5.5588,5.573,5.5965,5.5191,5.4774,5.4774,5.3884,5.3033,7.112,7.3474,7.5125,7.4162,7.1755,6.8939,6.6418,6.3784,6.143,5.9809,5.947,5.947,5.947,5.947,5.9734,6.0543,6.1354,6.2447,6.4105,6.7273,7.068,7.4086,7.9225,8.2904,8.3939,8.5141,8.5633,8.5001,8.4733,8.4328,8.373,8.2924,8.2526,8.2656,8.2164,8.15,8.0621,8.0145,7.8897,7.6932,7.698,7.6233,7.4866,7.5463,7.5391,7.4886,7.4938,7.4497,7.3631,7.2831,7.215,7.1535,7.0958,7.0728,7.0612,6.9498,6.9113,6.8858,6.7128,6.6551,6.6423,6.5846,6.5269,6.4975,6.5639,6.4005,6.1863,6.1292,6.1384,6.1688,6.197,6.2046,6.2085,6.2382,6.2459,6.2474,6.2505,6.2924,6.3175,6.262,6.2962,6.3061,6.2239,6.2086,6.201,6.1728,6.1241,6.1,6.1157,6.0763,6.0519,6.0684,6.0757,6.0119,5.853,5.8467,5.8165,5.7349,5.7506,5.722,5.6376,5.6543,5.6396,5.5875,5.5884,5.5912,5.6012,5.5741,5.5354,5.4774,5.4503,5.3923,6.7954,7.0024,7.1237,7.0909,6.9094,6.6938,6.5064,6.3131,6.1401,6.0075,5.9809,5.9809,5.9809,5.9809,5.9961,6.047,6.1494,6.2501,6.3369,6.7157,7.1266,7.52,8.0731,8.4312,8.4455,8.5651,8.6037,8.5188,8.4802,8.4238,8.3456,8.2607,8.2085,8.2005,8.1414,8.0844,8.0306,7.9481,7.8378,7.707,7.7029,7.6429,7.5425,7.5957,7.5928,7.5452,7.5653,7.5297,0.0,7.3652,7.2954,7.2375,7.1525,7.1178,7.1023,6.9903,6.9479,6.9247,6.747,6.6891,6.6814,6.6234,6.5732,6.5357,6.5578,6.4332,6.27,6.2216,6.223,6.2536,6.3201,6.3354,6.3431,6.3765,6.3855,6.3855,6.3896,6.4304,6.4496,6.4011,6.4304,6.4381,6.3589,6.3436,6.3321,6.3014,6.226,6.185,6.2005,6.1357,6.0892,6.106,6.1118,6.0691,5.9739,5.9751,5.9442,5.8635,5.8732,5.8459,5.7572,5.7689,5.7366,5.6506,5.6467,5.6313,5.6012,5.6012,5.5741,5.5238,5.5238,5.4813,0.0,6.833,6.9637,7.0005,6.7846,6.5401,6.453,6.2631,0.0,6.0042,5.989,5.989,5.9966,5.9928,5.9928,6.0042,6.1294,6.2585,6.355,6.7563,7.1897,7.5826,7.9153,8.1224,8.1446,8.4469,8.6013,8.5087,8.4276,8.3456,8.2675,8.1864,8.1388,8.1414,8.0447,7.9916,7.9916,7.8334,7.7485,7.7408,7.6597,7.6212,7.6212,7.6212,7.625,7.6275,7.5386,7.5024,7.4877,7.3264,7.2568,7.2413,7.1562,7.1214,7.1021,6.9396,6.8816,6.8545,6.6882,6.6301,6.6263,6.6224,6.6185,6.6031,6.5218,6.4374,6.367,6.3632,6.3053,6.2871,6.4492,6.4916,6.5082,6.5898,6.6102,6.6123,6.6175,6.6185,6.6185,6.6185,6.6185,6.5953,6.5218,6.5102,6.4803,6.399,6.3129,6.2549,6.2511,6.1776,6.1234,6.1118,6.1157,6.1157,6.1118,6.1118,6.077,6.0035,5.9996,5.9609,5.8729,5.869,5.8294,5.7396,5.7318,5.6854,5.6012,5.6012,5.6012,5.6012,5.6012,5.5586,6.2145,0.0,6.3028,6.3127,6.3088,6.2757,0.0,6.1773,6.1595,6.0751,6.0559,6.0751,6.1454,6.1019,6.0981,6.2285,6.2784,6.3589,6.5137,7.1343,7.727,8.147,8.3895,8.4762,8.354,8.5319,8.5937,8.4429,8.4159,8.336,8.1865,8.1594,8.1169,8.0536,7.9687,7.9249,7.9249,7.8167,7.7316,7.6659,7.6439,7.635,7.635,7.635,7.6362,7.6335,7.5446,7.475,7.4115,7.3032,7.222,7.1523,7.0634,7.0324,7.017,6.9164,6.8816,6.8661,6.7578,6.7191,6.7075,6.6417,6.6185,6.6031,6.5218,6.5237,6.5448,6.483,6.4956,6.5343,6.5768,6.5884,6.5923,6.6126,6.6165,6.6165,6.6185,6.6185,6.6185,6.6185,6.6185,6.6147,6.5953,6.5915,6.5837,6.5644,6.4909,6.4135,6.3478,6.3216,6.2588,6.1234,6.1698,6.1814,6.1157,6.1118,6.1041,6.0847,6.0809,6.046,5.9609,5.9571,5.9184,5.8294,5.7637,5.6854,5.6012,5.6012,5.6012,5.6012,5.6012,5.5896,6.0781,6.1089,6.1408,6.1408,6.1755,6.1985,6.1512,6.1447,6.1358,6.0896,6.0781,6.0935,6.1408,6.1151,6.1278,6.2551,6.3445,6.5264,6.8963,7.3781,7.8515,8.2816,8.4597,8.5256,8.4714,8.5488,8.5294,8.3631,8.3515,8.2935,8.1568,8.1491,8.1117,8.0227,7.9415,7.8796,7.8409,7.7519,7.6862,7.6397,7.6397,7.6397,7.6397,7.6397,7.6165,7.5779,7.5314,7.4425,7.3264,7.28,7.2104,7.1214,7.0324,6.9976,6.986,6.8661,6.8197,6.8081,6.723,6.6882,6.6843,6.634,6.6185,6.6108,6.5682,6.5837,6.6031,6.5218,6.5296,6.5721,6.6108,6.6185,6.6185,6.6185,6.6185,6.6185,6.6185,6.6185,6.6185,6.6185,6.6185,6.6185,6.6185,6.6185,6.6185,6.6185,6.5528,6.4841,6.4377,6.3952,6.3168,6.1853,6.2124,6.2046,6.1157,6.1118,6.1118,6.1118,6.1118,6.0886,6.046,6.046,6.0074,5.9223,5.7946,5.7086,5.6583,5.6583,5.6583,5.6583,5.6583,5.6583,6.0973,6.1627,6.2216,6.1985,6.1985,6.2062,6.1947,6.132,6.0781,6.0781,6.0781,6.0831,6.0985,6.102,6.1389,6.2344,6.4324,6.7788,7.3677,7.5954,7.8451,8.2418,8.3837,8.4598,8.4908,8.514,8.4598,8.2935,8.278,8.2432,8.1542,8.1387,8.0923,8.0034,7.9221,7.8332,7.7326,7.6707,7.6397,7.6397,7.6397,7.6397,7.6397,7.6243,7.5817,7.5071,7.4839,7.3922,7.2607,7.2452,7.1949,7.1214,7.0324,6.9899,6.9628,6.8081,6.7423,6.7191,6.6456,6.6185,6.6185,6.6185,6.6185,6.6185,6.6185,6.6185,6.6069,6.5373,6.518,6.5334,6.6031,6.6185,6.6185,6.6185,6.6185,6.6185,6.6185,6.6185,6.6185,6.6185,6.6185,6.6185,6.6185,6.6185,6.6185,6.6185,6.5605,6.5141,6.5025,6.4454,6.371,6.2704,6.2588,6.224,6.1389,6.1195,6.1118,6.1118,6.1118,6.1118,6.1118,6.1118,6.0731,5.9919,5.8449,5.7628,5.7512,5.7512,5.7512,5.7512,5.7512,5.7512,6.1716,6.2512,6.2781,6.1358,6.155,6.1908,6.1166,6.0896,6.0781,6.0781,6.0781,6.1035,6.1774,6.1905,6.2432,6.4046,6.7537,7.1929,7.7331,7.9546,8.1427,8.3618,8.5243,8.541,8.336,8.4482,8.4598,8.2935,8.278,8.2432,8.1542,8.0807,8.0034,7.9221,7.8332,7.7132,7.5508,7.6088,7.6397,7.6397,7.6397,7.6397,7.6359,7.5624,7.5237,7.5032,7.3612,7.2839,7.2529,7.1794,7.1407,7.1214,7.0324,6.9589,6.8854,6.7887,6.7036,6.6379,6.6263,6.6185,6.6185,6.6185,6.6185,6.6185,6.6185,6.6185,6.6185,6.6031,6.6031,6.6031,6.6185,6.6185,6.6185,6.6185,6.6185,6.6185,6.6185,6.6185,6.6185,6.6185,6.6185,6.6185,6.6185,6.6185,6.6185,6.6185,6.6108,6.576,6.5102,6.5489,6.5218,6.3681,6.3487,6.3129,6.2278,6.1505,6.1118,6.1118,6.1118,6.1118,6.1118,6.1118,6.0731,5.9919,5.9648,5.9145,5.841,5.841,5.841,5.841,5.841,5.841,6.0589,6.132,6.1897,6.1589,6.2474,6.3358,6.2935,6.2497,6.2213,6.2166,6.219,6.234,6.2721,6.3581,6.5427,6.9069,7.2005,7.5015,7.8426,7.9945,8.135,8.3115,8.4456,8.4792,8.3631,8.4211,8.394,8.2238,8.1658,8.1233,8.0807,7.9995,7.9183,7.8332,7.7906,7.7094,7.5817,7.6204,7.6165,7.5701,7.6165,7.6165,7.5662,7.5276,7.485,7.4386,7.3148,7.2336,7.1872,7.1485,7.1021,7.0556,7.017,6.9783,6.928,6.7965,6.7268,6.6843,6.6379,6.6185,6.6263,6.6766,6.6882,6.6882,6.6882,6.6882,6.6882,6.6882,6.6572,6.6185,6.6185,6.6185,6.6185,6.6185,6.6185,6.6185,6.6185,6.6185,6.6185,6.6185,6.6185,6.6185,6.6185,6.6185,6.6185,6.6185,6.6185,6.6069,6.5682,6.5953,6.5721,6.4532,6.4416,6.3864,6.2511,6.2472,6.2085,6.1157,6.1118,6.1118,6.1118,6.1118,6.0925,6.0576,6.0112,5.9687,5.93,5.93,5.93,5.93,5.93,5.93,5.9435,6.0127,6.0973,6.1639,6.2743,6.3897,6.473,6.4265,6.3877,6.442,6.4405,6.4259,6.4078,6.5511,6.8231,7.2805,7.5219,7.7306,7.9495,8.0512,8.1594,8.3127,8.3953,8.4211,8.3824,8.3592,8.2857,8.131,8.042,7.9918,7.9918,7.9144,7.8293,7.7403,7.7403,7.69,7.5817,7.6204,7.6049,7.543,7.5856,7.574,7.5071,7.4695,7.4193,7.3535,7.2684,7.191,7.1291,7.1291,7.0905,7.0286,7.0092,6.986,6.9551,6.8042,6.7617,6.7694,6.7036,6.6688,6.665,6.7539,6.7655,6.7501,6.7501,6.7501,6.7462,6.7268,6.6843,6.6495,6.6495,6.6495,6.6456,6.6263,6.6185,6.6185,6.6185,6.6185,6.6185,6.6185,6.6185,6.6185,6.6185,6.6185,6.6185,6.6185,6.6185,6.6185,6.6185,6.6185,6.5953,6.5334,6.5102,6.4367,6.2859,6.3129,6.282,6.1505,6.1195,6.1118,6.1118,6.1118,6.1118,6.1118,6.0499,6.019,6.019,6.019,6.019,6.019,6.019,6.019,5.9319,6.0127,6.0819,6.0858,6.0973,6.192,6.5149,6.5238,6.53,6.7711,6.7568,6.6807,6.6052,6.7338,6.9424,7.2179,7.5347,7.8683,8.2032,8.3283,8.4134,8.5011,8.5178,8.4598,8.3051,8.2161,8.131,8.0382,7.9531,7.9105,7.9105,7.8254,7.7403,7.6514,7.6475,7.5701,7.4115,7.5624,7.6359,7.6281,7.5546,7.516,7.5032,7.3496,7.2761,7.2645,7.1756,7.1369,7.1291,7.1291,7.1253,7.1137,7.0324,6.9551,6.8777,6.7849,6.8003,6.87,6.8622,6.8081,6.7539,6.8429,6.8158,6.7501,6.7501,6.7501,6.7346,6.6533,6.6843,6.7423,6.7423,6.7423,6.7191,6.6379,6.6185,6.6185,6.6185,6.6185,6.6185,6.6185,6.6185,6.6185,6.6185,6.6185,6.6185,6.6185,6.6185,6.6185,6.6185,6.6185,6.6185,6.6108,6.545,6.4609,6.3681,6.2936,6.2433,6.2317,6.1543,6.1118,6.1118,6.1118,6.1118,6.1118,6.1041,6.1002,6.1002,6.1002,6.1002,6.1002,6.1002,6.1002,5.7857,5.8934,6.0127,6.0666,6.1204,6.2497,6.597,6.7355,6.8355,6.9845,7.0807,7.0908,6.954,7.1158,7.3346,7.5395,7.814,8.086,8.3283,8.3902,8.4211,8.4521,8.4559,8.3863,8.2161,8.1697,8.0923,7.9569,7.868,7.8177,7.8177,7.6862,7.6165,7.6397,7.5856,7.5546,7.5469,7.6088,7.6127,7.5585,7.4734,7.4347,7.4309,7.2568,7.1794,7.1756,7.0866,7.0479,7.0479,7.0479,7.0479,7.044,7.0131,6.9512,6.87,6.781,6.7694,6.8003,6.8003,6.7771,6.7733,6.9087,6.9319,6.9048,6.9048,6.87,6.8352,6.8506,6.8429,6.8197,6.7655,6.7501,6.7423,6.7075,6.6572,6.6185,6.6185,6.6185,6.6185,6.6185,6.6185,6.6185,6.6185,6.6185,6.6185,6.6185,6.6185,6.6185,6.6185,6.6185,6.6185,6.6185,6.5489,6.5064,6.5218,6.398,6.3207,6.3207,6.1892,6.1118,6.1118,6.1118,6.1118,6.1118,6.1118,6.1118,6.1118,6.1118,6.1118,6.1118,6.1118,6.1118,5.7044,5.8055,5.9375,6.0222,6.1505,6.3569,6.7571,6.9408,7.0899,7.3135,7.3906,7.3787,7.2318,7.3501,7.5276,7.7016,7.9415,8.1697,8.3438,8.367,8.367,8.367,8.3438,8.2703,8.1233,8.0614,7.984,7.868,7.7519,7.7016,7.7248,7.5895,7.5392,7.5972,7.5662,7.5662,7.5972,7.6243,7.5856,7.4695,7.3612,7.3071,7.3032,7.1291,7.0518,7.0479,6.986,6.9628,6.9628,6.9899,6.986,6.9589,6.9319,6.8854,6.8313,6.7733,6.7655,6.7926,6.7926,6.7926,6.8158,6.9551,6.9976,6.9976,6.9976,6.9435,6.8854,6.9125,6.8816,6.8236,6.7655,6.7887,6.8158,6.7617,6.7268,6.7036,6.7036,6.6804,6.6611,6.6611,6.6611,6.6611,6.6611,6.6843,6.7036,6.7036,6.7036,6.692,6.665,6.6611,6.6495,6.6224,6.5721,6.5605,6.6147,6.4909,6.399,6.3719,6.2588,6.166,6.1118,6.1118,6.1118,6.1118,6.1118,6.1118,6.1118,6.1118,6.1118,6.1118,6.1118,6.1118,5.7107,5.7755,5.8634,5.9503,6.1664,6.4889,7.0042,7.1178,7.2633,7.7921,7.6939,7.4889,7.4077,7.3922,7.4502,7.6127,7.8525,8.0807,8.2548,8.278,8.278,8.278,8.2006,8.1117,8.0266,7.8641,7.7674,7.7674,7.6088,7.5469,7.6359,7.5585,7.5109,7.5109,7.5933,7.5972,7.5071,7.5933,7.5546,7.3844,7.2104,7.1291,7.1214,6.9551,6.8816,6.8777,6.8816,6.8816,6.8854,6.9628,6.9512,6.87,6.7849,6.7501,6.7501,6.7501,6.8042,6.8777,6.8777,6.8777,6.8932,6.9744,7.0015,7.0015,7.0015,6.9435,6.8622,6.7771,6.7539,6.7539,6.7501,6.8777,6.9589,6.7926,6.8158,6.8777,6.8816,6.8119,6.7501,6.7501,6.7501,6.7501,6.7501,6.8236,6.8777,6.8777,6.8777,6.8468,6.7617,6.7501,6.7152,6.6301,6.6185,6.6185,6.6185,6.545,6.4648,6.3758,6.3719,6.2946,6.1157,6.1118,6.1118,6.1118,6.1079,6.1079,6.1118,6.1118,6.1118,6.1118,6.1118,6.1118,5.7261,5.8179,5.9801,6.1857,6.4751,6.8131,7.2128,7.3029,7.4149,7.8165,7.7906,7.6668,7.5817,7.6668,7.7442,7.7326,7.8448,7.9956,8.1658,8.0885,8.0343,8.0885,8.0227,7.9144,7.7674,7.7094,7.6514,7.5933,7.5392,7.5469,7.6359,7.5585,7.5109,7.5109,7.5353,7.4811,7.338,7.4193,7.3767,7.2065,7.0363,6.9821,7.0363,6.928,6.8468,6.7965,6.9125,6.8622,6.7036,6.7887,6.8119,6.7849,6.7617,6.7114,6.6572,6.6572,6.6766,6.7075,6.7655,6.8274,6.8932,6.9744,7.0402,7.0905,7.0905,7.0324,6.9589,6.9319,6.9241,6.9125,6.8545,6.9667,7.0479,6.8816,6.8158,6.8042,6.8661,6.8622,6.8429,6.8429,6.8429,6.8429,6.8429,6.8119,6.7887,6.7887,6.7346,6.6882,6.6611,6.6572,6.6495,6.6224,6.6185,6.6185,6.6185,6.6087,6.5622,6.4729,6.4765,6.3719,6.1205,6.1785,6.1858,6.1237,6.1298,6.1305,6.1237,6.1237,6.1173,6.1079,6.122,6.1237,5.8634,5.9716,6.1484,6.4353,6.7404,7.066,7.4494,7.6118,7.7445,7.9557,7.9299,7.8525,7.8022,7.8525,7.8834,7.8293,7.8912,7.9724,8.042,7.9647,7.9183,7.9685,7.8989,7.8061,7.7016,7.6591,7.6165,7.5662,7.5314,7.5469,7.6359,7.5585,7.5276,7.5624,7.5276,7.4618,7.3612,7.3458,7.2491,7.075,6.9435,6.87,6.8468,6.8352,6.781,6.7036,6.8042,6.781,6.6727,6.692,6.7384,6.7965,6.7268,6.6882,6.6688,6.634,6.6185,6.6301,6.7191,6.8081,6.8932,6.9744,7.0595,7.1291,7.1291,7.0672,6.9976,6.9976,6.9783,6.9396,6.8932,6.9551,7.0131,6.9435,6.9125,6.9164,6.9667,6.9512,6.928,6.928,6.928,6.928,6.928,6.9125,6.8893,6.8545,6.7462,6.6727,6.6727,6.6448,6.6272,6.6272,6.6334,6.6376,6.6376,6.6429,6.6095,6.5239,6.5584,6.4588,6.1849,6.2316,6.2244,6.1349,6.1378,6.1383,6.1349,6.1349,6.1305,6.1221,6.1285,6.1328,6.0538,6.1737,6.3362,6.6843,6.986,7.3032,7.7016,7.9801,8.1465,8.131,8.0769,8.0343,8.0343,7.9647,7.9105,7.9105,7.9608,7.9724,7.9105,7.8873,7.8796,7.8873,7.8099,7.7558,7.7481,7.6668,7.6165,7.6165,7.5353,7.5237,7.6127,7.543,7.5314,7.6011,7.5353,7.4889,7.4657,7.3187,7.1601,6.986,6.9087,6.7849,6.634,6.7075,6.6998,6.6301,6.6224,6.6688,6.7423,6.6572,6.7114,6.8429,6.6804,6.6688,6.7307,6.6572,6.6301,6.6456,6.7307,6.8197,6.9048,6.9744,7.0595,7.1291,7.1214,7.0634,6.9976,6.9821,6.9357,6.8893,6.8816,6.8904,6.9234,6.9969,7.0655,7.1214,7.1291,7.0672,7.0103,7.0124,7.0124,7.0135,7.0155,7.0736,7.093,7.0039,6.8607,6.7639,6.7561,6.6941,6.6492,6.6414,6.6528,6.659,6.659,6.66,6.6259,6.5484,6.6191,6.5494,6.2964,6.2838,6.2366,6.1426,6.1435,6.1435,6.1431,6.1431,6.1426,6.1383,6.1409,6.1421,5.9959,6.1708,6.4367,6.8429,7.3419,7.7751,7.9299,8.0614,8.1117,7.9801,8.0459,8.122,8.122,8.0536,7.9956,7.9956,7.8989,7.8409,7.8912,7.7829,7.721,7.7906,7.721,7.6397,7.574,7.4928,7.4425,7.4425,7.3612,7.3535,7.4386,7.427,7.3922,7.3419,7.3883,7.3187,7.1098,7.1407,7.0711,6.9048,6.8197,6.7578,6.7191,6.6727,6.6766,6.7191,6.6495,6.6688,6.7423,6.6572,6.6417,6.6727,6.634,6.6301,6.6533,6.7036,6.723,6.7346,6.8236,6.9048,6.9783,6.9938,7.0595,7.1175,7.0479,7.0131,6.9744,6.839,6.8854,6.9589,6.897,6.9837,7.0956,7.115,7.0729,7.0479,7.1137,7.1137,7.1035,7.1162,7.1189,7.1201,7.1329,7.0921,7.0298,6.9403,6.8981,6.8507,6.7807,6.7597,6.7259,6.6635,6.6579,6.659,6.659,6.6662,6.658,6.6427,6.6659,6.5969,6.4056,6.3833,6.3107,6.1588,6.1623,6.1626,6.1564,6.1564,6.1507,6.1389,6.1522,6.1579,6.0693,6.3226,6.6727,7.1794,7.6049,7.9221,8.0034,8.0885,8.1271,8.0382,8.0885,8.1387,8.0962,8.0498,7.9956,7.9144,7.8254,7.7713,7.7751,7.6978,7.6552,7.7016,7.6668,7.6204,7.5779,7.4966,7.4463,7.4463,7.4038,7.3844,7.3883,7.427,7.4077,7.3264,7.3264,7.2413,7.0634,7.0286,6.9473,6.8158,6.7307,6.6688,6.6301,6.6224,6.6688,6.7462,6.6572,6.6456,6.6843,6.6379,6.6456,6.6766,6.6379,6.6456,6.6843,6.6843,6.6882,6.7075,6.8352,6.9087,6.9473,6.986,7.0359,7.0709,7.0215,7.0123,7.0113,6.9647,7.0152,7.0735,7.0308,7.0875,7.1601,7.1601,7.1186,7.0929,7.1395,7.1473,7.1497,7.158,7.1601,7.1621,7.1689,7.0965,7.0269,6.9801,6.9372,6.8943,6.8471,6.8475,6.8344,6.7953,6.7595,6.7378,6.7378,6.701,6.6787,6.6787,6.6873,6.6328,6.4961,6.4878,6.4015,6.2299,6.2695,6.2929,6.289,6.289,6.2849,6.2803,6.2851,6.2656,6.1238,6.4733,6.9121,7.4661,7.7534,7.9165,7.9707,8.0561,8.1233,8.1117,8.131,8.1259,8.0575,8.0188,7.9531,7.8138,7.7674,7.721,7.6514,7.6397,7.6397,7.6397,7.6281,7.6243,7.6397,7.5353,7.4734,7.4889,7.4618,7.4154,7.3496,7.4077,7.4077,7.3264,7.2529,7.1756,7.0866,6.9473,6.8352,6.7501,6.6611,6.5857,6.5277,6.5935,6.6525,6.7036,6.6456,6.6185,6.6185,6.6225,6.6661,6.7251,6.6545,6.6718,6.7261,6.668,6.6486,6.6718,6.8297,6.884,6.8956,6.9624,6.992,6.9997,6.9818,6.998,7.0292,7.0881,7.1232,7.1466,7.1466,7.1599,7.1731,7.1731,7.1746,7.1746,7.1711,7.17,7.1705,7.1726,7.1746,7.1755,7.1755,7.1135,7.0672,7.0672,7.0048,6.9541,6.9385,6.9477,6.9427,6.9154,6.855,6.8125,6.8008,6.7305,6.6914,6.6914,6.6914,6.6523,6.5625,6.5742,6.5077,6.3471,6.386,6.4092,6.409,6.4089,6.4166,6.4281,6.4314,6.3919,5.9227,6.4043,6.9811,7.3542,7.6863,7.901,7.835,7.9332,8.0188,7.9492,8.0498,8.1465,8.1336,8.015,7.9105,7.8873,7.7558,7.6514,7.6397,7.6397,7.6397,7.6397,7.574,7.5585,7.632,7.4309,7.3264,7.3999,7.2645,7.1756,7.164,7.1756,7.1407,7.0556,7.0402,6.9976,6.9125,6.8932,6.8352,6.7501,6.6611,6.6205,6.6206,6.6322,6.6006,6.5373,6.5953,6.6185,6.6195,6.6334,6.6431,6.6563,6.6543,6.6624,6.678,6.7364,6.7597,6.7714,6.8721,6.9065,6.9065,6.9182,6.9233,6.9095,6.836,6.8644,6.9128,6.8504,6.9406,7.0575,7.0575,7.1187,7.178,7.178,7.1893,7.1898,7.1741,7.17,7.1731,7.1767,7.1895,7.1949,7.1949,7.1872,7.1794,7.1794,7.1677,7.1325,7.0583,7.0506,6.996,6.8515,6.8242,6.789,6.7148,6.6953,6.6914,6.6914,6.6914,6.6523,6.5623,6.6322,6.6278,6.5253,6.3899,6.3159,6.3154,6.3186,6.3568,6.4304,6.4301,6.4223,6.1817,6.5021,6.8683,7.3085,7.569,7.726,7.7792,7.8787,7.9537,7.9091,7.9608,7.9956,7.9453,7.9183,7.868,7.7713,7.69,7.6243,7.574,7.6088,7.6049,7.5121,7.5044,7.5237,7.5624,7.3806,7.3148,7.4463,7.2993,7.2026,7.2026,7.1639,7.1,7.0147,6.97,6.9096,6.8241,6.8241,6.7813,6.6997,6.6609,6.645,6.651,6.651,6.629,6.5917,6.6266,6.6422,6.6422,6.6491,6.651,6.6516,6.6574,6.659,6.6629,6.698,6.7135,6.7252,6.8071,6.8382,6.8382,6.8382,6.8417,6.8422,6.8039,6.8538,6.9303,6.9384,7.0321,7.1297,7.1297,7.1583,7.1906,7.1906,7.1951,7.1991,7.1889,7.188,7.1887,7.1903,7.1951,7.1992,7.1992,7.1992,7.1992,7.1992,7.1992,7.1875,7.1484,7.1445,7.1133,7.039,6.9883,6.9453,6.9062,6.8593,6.8084,6.7614,6.7575,6.7183,6.636,6.671,6.6471,6.5609,6.5295,6.5137,6.5132,6.5128,6.5316,6.5704,6.5704,6.5468,6.2769,6.4805,6.6962,7.1257,7.3968,7.5797,7.6798,7.7984,7.885,7.8504,7.8628,7.8512,7.762,7.8142,7.8254,7.6939,7.6552,7.6111,7.5277,7.5703,7.558,7.4159,7.4314,7.4625,7.4857,7.3355,7.2967,7.4431,7.32,7.227,7.2037,7.1503,7.0712,6.9631,6.9071,6.8338,6.7486,6.7291,6.6863,6.6278,6.6278,6.6371,6.6633,6.6399,6.6291,6.635,6.6537,6.659,6.6595,6.6619,6.6633,6.6633,6.6658,6.6666,6.6666,6.6666,6.6666,6.6744,6.7368,6.7559,6.7559,6.7559,6.7637,6.7709,6.7711,6.851,6.957,7.0195,7.1172,7.1992,7.1992,7.1992,7.1992,7.1992,7.1992,7.1992,7.1992,7.1992,7.1992,7.1992,7.1992,7.1992,7.1992,7.1992,7.1992,7.1992,7.1992,7.1992,7.1992,7.1992,7.1914,7.1679,7.1093,7.0624,7.0386,6.9761,6.9135,6.8466,6.8427,6.8074,6.7253,6.7213,6.6782,6.592,6.6492,6.668,6.6488,6.6485,6.66,6.6795,6.6795,6.6483,5.9074,6.1824,6.4882,6.6796,7.1505,7.5485,7.4744,7.6439,7.7922,7.7092,7.7559,7.7871,7.7014,7.7341,7.7751,7.7635,7.6939,7.6129,7.539,7.5331,7.5089,7.4262,7.3502,7.3346,7.4158,7.2729,7.2106,7.2957,7.2223,7.1405,7.0547,7.0475,6.9696,6.7982,6.7876,6.7486,6.6668,6.585,6.5416,6.5377,6.5377,6.5823,6.6675,6.5853,6.5526,6.5702,6.6319,6.659,6.66,6.6688,6.6675,6.6719,6.6831,6.6874,6.6874,6.6874,6.6874,6.6874,6.6914,6.6953,6.6953,6.6953,6.6953,6.6953,6.6953,6.8164,6.9492,6.9531,7.0742,7.1992,7.1992,7.1992,7.1992,7.1992,7.1992,7.1992,7.1992,7.1992,7.1992,7.1992,7.1992,7.1992,7.1992,7.1992,7.1992,7.1992,7.1992,7.1992,7.1992,7.1992,7.1679,7.0857,7.074,7.0386,6.9521,6.9441,6.9363,6.9324,6.9324,6.893,6.8062,6.8023,6.7629,6.6759,6.6798,6.641,6.5677,6.5668,6.6053,6.6795,6.6795,6.6795,5.8903,6.0428,6.2461,6.5351,6.8513,7.1042,7.1756,7.3875,7.5595,7.5212,7.6253,7.7155,7.6843,7.7421,7.7773,7.7229,7.6879,7.6156,7.4767,7.5086,7.4717,7.2819,7.2785,7.3019,7.3325,7.2357,7.2284,7.3637,7.2474,7.1544,7.126,7.0277,6.9135,6.7965,6.6915,6.5993,6.5134,6.4821,6.4665,6.4665,6.4665,6.4828,6.5151,6.4838,6.5037,6.5625,6.5848,6.5956,6.5995,6.6592,6.6831,6.6831,6.6874,6.6914,6.6914,6.6914,6.6914,6.6914,6.6914,6.6914,6.6914,6.6914,6.6914,6.6914,6.6914,6.8125,6.9492,6.9453,7.0664,7.1992,7.1992,7.1992,7.1992,7.1992,7.1992,7.1992,7.1992,7.1992,7.1992,7.1992,7.1992,7.1992,7.1992,7.1992,7.1992,7.1992,7.1992,7.1992,7.1991,7.1991,7.1873,7.1555,7.1516,7.1395,7.1114,7.1073,7.0837,7.0282,7.0243,6.985,6.8989,6.8911,6.8791,6.8474,6.8474,6.7774,6.6373,6.6368,6.6522,6.6795,6.6795,6.6795,5.875,5.957,6.1094,6.3984,6.6055,6.789,7.0061,7.1891,7.3288,7.3793,7.5031,7.6166,7.6439,7.7219,7.7589,7.6894,7.6565,7.5881,7.4475,7.4514,7.3982,7.203,7.2264,7.2611,7.2611,7.2108,7.2264,7.3388,7.242,7.1562,7.0969,6.9962,6.8691,6.7244,6.6169,6.5039,6.3867,6.3867,6.3867,6.3867,6.3867,6.4023,6.4297,6.3984,6.418,6.4726,6.5039,6.5508,6.6094,6.664,6.6914,6.6914,6.6914,6.6914,6.6914,6.6914,6.6914,6.6914,6.6914,6.6914,6.6914,6.6914,6.7109,6.7344,6.7344,6.8555,6.9883,6.9844,7.0898,7.1992,7.1992,7.1992,7.1992,7.1992,7.1992,7.1992,7.1992,7.1992,7.1992,7.1992,7.1992,7.1992,7.1992,7.1992,7.1992,7.1992,7.1991,7.199,7.1988,7.1987,7.1985,7.2016,7.2016,7.2012,7.2002,7.2,7.1763,7.1167,7.1128,7.0738,6.9879,6.984,6.9684,6.9411,6.9411,6.8708,6.7224,6.7224,6.7107,6.6795,6.6795,6.6795,0.0,0.0,0.0,6.2461,6.418,6.6328,6.9687,7.0469,7.1015,7.2773,7.3867,7.4765,7.5664,7.6523,7.7022,7.677,7.6031,7.525,7.4516,7.3663,7.2824,7.2109,7.1992,7.1992,7.1992,7.1992,7.1992,7.1992,7.1992,7.125,6.9609,6.9414,6.8203,6.5625,6.5547,6.4687,6.2969,6.2969,6.2969,6.2969,6.2969,6.3437,6.4219,6.3398,6.3047,6.3125,6.3984,6.5312,6.6914,6.6914,6.6914,6.6914,6.6914,6.6914,6.6914,6.6914,6.6914,6.6953,6.6953,6.6953,6.6992,6.6953,6.7539,6.8242,6.8242,6.9375,7.0703,7.0703,7.1328,7.1992,7.1992,7.1992,7.1992,7.1992,7.1992,7.1992,7.1992,7.1992,7.1992,7.2031,7.2031,7.2031,7.207,7.203,7.2028,7.2067,7.2063,7.2058,7.2058,7.2058,7.2016,7.2006,7.2006,7.2002,7.199,7.1987,7.2026,7.2026,7.2026,7.1675,7.0816,7.0777,7.0387,6.9489,6.9489,6.9059,6.8161,6.8122,6.7654,6.6795,6.6795,6.6795,5.9101,0.0,0.0,0.0,0.0,0.0,6.3828,6.5156,6.6758,6.9101,7.0781,7.2226,7.375,7.4726,7.5312,7.5223,7.5532,7.5496,7.4644,7.3785,7.2927,7.2109,7.1992,7.1992,7.1992,7.1992,7.1992,7.1992,7.1406,7.0586,6.9492,6.7695,6.6055,6.4687,6.4062,6.3203,6.207,6.207,6.207,6.207,6.207,6.2539,6.3359,6.3125,6.3672,6.4883,6.5156,6.5859,6.6914,6.6914,6.6914,6.6914,6.6914,6.6914,6.6914,6.6914,6.7305,6.7851,6.7851,6.8242,6.8789,6.8711,6.8867,6.9062,6.914,6.9883,7.0703,7.0703,7.1328,7.1992,7.1992,7.1992,7.199,7.199,7.1989,7.1986,7.1986,7.1986,7.2182,7.281,7.242,7.2381,7.3666,7.2844,7.2413,7.3702,7.3349,7.2955,7.2949,7.2948,7.2709,7.2073,7.1993,7.1993,7.1987,7.1987,7.226,7.2885,7.2924,7.2846,7.2573,7.2573,7.2182,7.1285,7.1285,7.0855,6.9996,6.8708,6.7654,6.6795,6.6795,6.6795,0.0,0.0,0.0,0.0,0.0,0.0,6.2344,6.2734,6.3398,6.6015,6.7656,6.9101,7.0859,7.2148,7.3086,7.3476,7.3945,7.4219,7.4062,7.3633,7.2969,7.2109,7.1992,7.1992,7.1992,7.1992,7.1836,7.1484,7.0976,7.0156,6.8945,6.6797,6.5195,6.4336,6.3437,6.2578,6.1719,6.1719,6.1719,6.1719,6.1719,6.2148,6.3008,6.3008,6.375,6.5078,6.543,6.5898,6.6406,6.6758,6.6914,6.6914,6.6914,6.6914,6.6914,6.6914,6.7461,6.8203,6.8203,6.875,6.9453,6.9453,6.9687,6.9961,7.0,7.0586,7.125,7.125,7.1601,7.1992,7.1992,7.1991,7.1989,7.1987,7.1984,7.2019,7.2019,7.2294,7.2606,7.2727,7.2337,7.2455,7.3817,7.2915,7.26,7.4357,7.3535,7.3022,7.3718,7.3523,7.3244,7.3041,7.3041,7.3041,7.3041,7.2729,7.2768,7.3275,7.2963,7.2768,7.2768,7.2768,7.2534,7.2026,7.1987,7.1558,7.0699,6.9684,6.8552,6.7342,6.6951,6.6795,0.0,0.0,0.0,0.0,0.0,0.0,6.3086,6.1953,6.0976,6.3476,6.4648,6.5742,6.7578,6.9219,7.0547,7.1328,7.168,7.2187,7.3164,7.3203,7.2851,7.2109,7.1992,7.1992,7.1992,7.1914,7.1523,7.0742,7.0547,6.9726,6.8125,6.6406,6.5156,6.4453,6.3398,6.2539,6.1836,6.1758,6.1719,6.1719,6.1719,6.2148,6.3008,6.3086,6.3633,6.4492,6.5351,6.5742,6.5781,6.6562,6.6914,6.6914,6.6914,6.6914,6.6914,6.6914,6.75,6.8359,6.8359,6.8945,6.9687,6.9765,7.0273,7.0859,7.0859,7.1406,7.1992,7.1992,7.1992,7.1992,7.199,7.1989,7.1987,7.1981,7.2056,7.2134,7.2134,7.2837,7.3189,7.2447,7.2291,7.2603,7.354,7.2909,7.2863,7.4621,7.3479,7.2963,7.4447,7.4017,7.3822,7.4447,7.4486,7.4486,7.4486,7.3744,7.3354,7.3432,7.2612,7.2143,7.2143,7.2143,7.2104,7.1987,7.1987,7.1636,7.0855,7.066,6.9762,6.8239,6.7459,6.7107,0.0,0.0,0.0,0.0,0.0,0.0,6.0351,5.9805,5.9961,6.1836,6.2344,6.3203,6.5664,6.6953,6.7695,6.7851,6.9609,7.1484,7.3086,7.2695,7.2187,7.2031,7.1992,7.1992,7.1992,7.1367,7.0898,7.0703,6.9453,6.8242,6.7226,6.5508,6.4805,6.5312,6.3125,6.2226,6.2734,6.2031,6.1719,6.1719,6.1719,6.2148,6.3008,6.3711,6.4531,6.539,6.6289,6.664,6.664,6.6836,6.6914,6.6914,6.6914,6.6914,6.6914,6.6914,6.789,6.9258,6.9258,7.0234,7.1484,7.1523,7.1601,7.1758,7.1758,7.1875,7.1992,7.1991,7.1988,7.1984,7.1982,7.2017,7.2012,7.201,7.2549,7.3049,7.3049,7.3674,7.422,7.4064,7.4072,7.4584,7.6097,7.5038,7.4606,7.6362,7.5738,7.5188,7.5501,7.5423,7.511,7.4564,7.4486,7.4486,7.4486,7.3744,7.3588,7.4212,7.351,7.3041,7.3041,7.3041,7.2729,7.2026,7.1987,7.1909,7.1753,7.0348,6.9489,6.9137,6.8981,6.8903,0.0,0.0,0.0,6.2226,0.0,0.0,0.0,5.9765,5.914,6.125,6.0703,6.0586,6.3164,6.4023,6.4609,6.5469,6.7031,6.8906,7.1055,7.1719,7.1836,7.1406,7.1015,7.0742,7.0703,7.0351,6.9922,6.9492,6.8281,6.7187,6.6289,6.5,6.4297,6.4297,6.2617,6.1914,6.2344,6.1914,6.1719,6.1719,6.1719,6.2148,6.3047,6.3906,6.4531,6.5039,6.6328,6.664,6.6289,6.6719,6.6914,6.6914,6.6914,6.7187,6.7539,6.7539,6.8633,7.0117,7.0117,7.0937,7.1992,7.1992,7.1992,7.1992,7.1992,7.199,7.1989,7.1987,7.1984,7.2019,7.2014,7.201,7.2004,7.2,7.2344,7.2651,7.2651,7.3627,7.4486,7.4486,7.5233,7.5977,7.6362,7.5384,7.5071,7.6828,7.6008,7.5462,7.632,7.6086,7.5813,7.5813,7.5813,7.5813,7.5813,7.5032,7.472,7.511,7.4369,7.39,7.39,7.351,7.2885,7.2026,7.1987,7.1987,7.1987,7.1128,7.0465,7.0035,6.9606,6.9411,0.0,0.0,0.0,0.0,0.0,6.1797,0.0,0.0,0.0,6.1055,5.9805,5.9062,6.1289,6.1562,6.1914,6.332,6.457,6.6015,6.789,6.9805,7.0898,7.0508,6.9609,6.9101,6.9375,6.914,6.8633,6.7773,6.7031,6.6289,6.539,6.4687,6.4062,6.3515,6.25,6.2031,6.2187,6.2031,6.1875,6.1719,6.1875,6.2305,6.3047,6.4062,6.4531,6.4648,6.6211,6.6484,6.5898,6.6601,6.6914,6.6914,6.6914,6.7344,6.7969,6.7969,6.9023,7.0469,7.0469,7.1133,7.1992,7.1992,7.1992,7.1992,7.1989,7.1985,7.2017,7.2017,7.2016,7.2014,7.2004,7.2119,7.2234,7.2263,7.2495,7.2729,7.2729,7.3939,7.4993,7.4993,7.6125,7.6867,7.6164,7.5462,7.5462,7.6906,7.5891,7.5501,7.6906,7.6477,7.632,7.7023,7.7101,7.7101,7.7101,7.6281,7.5816,7.5816,7.4993,7.4486,7.4486,7.3861,7.3119,7.226,7.2417,7.2417,7.226,7.226,7.1792,7.0933,7.023,6.9918,0.0,0.0,0.0,0.0,6.4687,0.0,0.0,0.0,6.1133,6.0664,0.0,6.043,6.1484,0.0,0.0,6.082,6.2851,6.4297,6.3789,6.5898,6.8008,6.9375,6.8164,6.7812,6.9336,6.8086,6.6836,6.5976,6.5781,6.5351,6.4492,6.4336,6.4609,6.5273,6.3711,6.3203,6.3984,6.3242,6.2461,6.1719,6.2461,6.289,6.3047,6.4687,6.5469,6.5508,6.6484,6.6836,6.6758,6.6875,6.6914,6.6914,6.6914,6.6953,6.7031,6.7031,6.8164,6.9648,6.9648,7.0664,7.1992,7.1992,7.1992,7.1989,7.1984,7.2016,7.2008,7.2008,7.2,7.1993,7.199,7.2576,7.3158,7.3158,7.429,7.5386,7.5386,7.6125,7.6789,7.6789,7.6945,7.7062,7.6984,7.6867,7.6867,7.7062,7.6945,7.6867,7.7062,7.7023,7.6984,7.7101,7.7101,7.7101,7.7101,7.6281,7.5816,7.5816,7.4993,7.4486,7.4486,7.4408,7.3978,7.3158,7.3861,7.3861,7.3158,7.3158,7.269,7.1831,7.1753,7.1714,0.0,0.0,0.0,0.0,0.0,0.0,6.2969,0.0,6.1133,0.0,0.0,0.0,0.0,0.0,0.0,0.0,6.207,6.2851,6.2969,6.3086,6.414,6.6875,6.6133,6.5664,6.6406,6.582,6.5039,6.414,6.457,6.4258,6.2851,6.375,6.4258,6.4101,6.3398,6.3437,6.4297,6.3437,6.3086,6.3203,6.3594,6.375,6.3789,6.5039,6.5312,6.4922,6.6289,6.6601,6.6172,6.668,6.6914,6.6914,6.6914,6.7226,6.7695,6.8164,6.914,7.0273,7.0781,7.1406,7.1991,7.1989,7.1985,7.2017,7.2014,7.2004,7.2112,7.262,7.2732,7.2846,7.3315,7.3705,7.4017,7.4017,7.4525,7.5032,7.5032,7.5735,7.636,7.636,7.675,7.7101,7.7101,7.7101,7.7101,7.7101,7.7101,7.7101,7.7101,7.7101,7.7101,7.7101,7.7101,7.7101,7.7101,7.675,7.6555,7.6555,7.6203,7.5774,7.5266,7.5266,7.4876,7.4017,7.433,7.433,7.4017,7.4017,7.3822,7.3432,7.2456,7.1987,6.4883,0.0,0.0,0.0,0.0,0.0,0.0,0.0,0.0,0.0,0.0,0.0,0.0,0.0,0.0,0.0,0.0,6.2109,6.2265,6.1406,6.1797,6.457,6.4765,6.4648,6.4648,6.4453,6.3945,6.3086,6.3594,6.3164,6.1445,6.3203,6.4023,6.3398,6.3594,6.3906,6.4297,6.3906,6.3789,6.3945,6.4414,6.4648,6.4687,6.5547,6.5625,6.5078,6.6367,6.6523,6.6015,6.664,6.6914,6.6914,6.6914,6.7422,6.8281,6.8867,6.9765,7.0781,7.1406,7.1795,7.1987,7.2019,7.2012,7.2006,7.2002,7.1995,7.2182,7.3041,7.3119,7.3197,7.4212,7.4486,7.4486,7.4486,7.4876,7.5149,7.4915,7.554,7.6164,7.6164,7.6672,7.7101,7.7101,7.7101,7.7101,7.7101,7.7101,7.7101,7.7101,7.7101,7.7101,7.7101,7.7101,7.7101,7.7101,7.7101,7.7101,7.7101,7.7101,7.6828,7.6164,7.6164,7.5735,7.4876,7.5071,7.511,7.4876,7.4876,7.4876,7.4837,7.3354,7.269,0.0,0.0,0.0,6.4961,0.0,0.0,0.0,0.0,6.3945,0.0,0.0,0.0,0.0,0.0,0.0,0.0,0.0,0.0,0.0,6.1172,6.1992,6.2969,6.4531,6.5547,6.5547,6.4805,6.3945,6.3086,6.3047,6.2265,6.0547,6.289,6.4297,6.4258,6.5078,6.5117,6.4297,6.5117,6.4687,6.3047,6.4765,6.5547,6.5586,6.6445,6.6836,6.6836,6.6875,6.6875,6.6875,6.6875,6.6914,6.6914,6.6914,6.7422,6.8203,6.8242,6.9297,7.0703,7.0741,7.1284,7.2019,7.201,7.2006,7.2004,7.1993,7.1987,7.2182,7.3041,7.269,7.2417,7.4056,7.4486,7.4486,7.4486,7.5774,7.6789,7.593,7.6438,7.7062,7.7062,7.7062,7.7101,7.7101,7.7101,7.7101,7.7101,7.7101,7.7101,7.7101,7.7101,7.7101,7.7101,7.7101,7.7101,7.7101,7.7101,7.7101,7.7101,7.7101,7.7101,7.7062,7.7062,7.6633,7.5777,7.6594,7.6594,7.5777,7.5777,7.5777,7.5738,7.4837,7.4408,6.7383,6.8125,6.8515,6.6523,0.0,0.0,0.0,0.0,0.0,0.0,0.0,0.0,0.0,0.0,0.0,0.0,0.0,0.0,0.0,6.0195,6.0351,6.1172,6.2305,6.3008,6.3008,6.2734,6.1992,6.0586,6.0508,6.0234,5.9648,6.1484,6.3125,6.4258,6.4609,6.5156,6.6015,6.5742,6.5586,6.5586,6.6172,6.6445,6.6484,6.6758,6.6914,6.6914,6.6914,6.6914,6.6914,6.6914,6.6914,6.6953,6.7539,6.8281,6.9062,6.9023,6.9726,7.078,7.1356,7.1741,7.201,7.1997,7.1995,7.211,7.269,7.2846,7.3041,7.3861,7.3861,7.3783,7.4369,7.4486,7.4642,7.5227,7.5813,7.632,7.6594,7.6906,7.7101,7.7101,7.757,7.796,7.796,7.8429,7.8429,7.7257,7.7101,7.7296,7.7882,7.7453,7.7335,7.7882,7.7453,7.7101,7.7101,7.7648,7.796,7.796,7.8507,7.8546,7.796,7.8507,7.8429,7.7531,7.7804,7.7804,7.7531,7.6945,7.6672,7.6633,7.636,7.5618,6.8281,6.8789,6.9101,6.7695,6.6953,0.0,6.4726,0.0,6.543,0.0,0.0,0.0,0.0,0.0,0.0,0.0,0.0,0.0,0.0,5.9765,5.9726,5.9961,6.1289,6.2148,6.2148,6.1875,6.1015,5.9336,5.9219,5.9219,5.9219,6.0781,6.25,6.4258,6.4609,6.5312,6.6445,6.6172,6.6172,6.6445,6.6758,6.6914,6.6914,6.6914,6.6914,6.6914,6.6914,6.6914,6.6914,6.6914,6.6914,6.6992,6.7851,6.8711,6.9531,6.9765,7.0427,7.124,7.1815,7.2004,7.2,7.199,7.2221,7.2573,7.3119,7.351,7.3978,7.511,7.4993,7.472,7.5657,7.5423,7.511,7.566,7.6047,7.632,7.6594,7.6867,7.7101,7.7101,7.7804,7.839,7.839,7.9131,7.9326,7.8194,7.8038,7.8233,7.878,7.835,7.8233,7.878,7.835,7.8038,7.8038,7.8546,7.8858,7.8858,7.9405,7.9444,7.8897,7.9342,7.9596,7.963,7.8974,7.8954,7.9539,7.8369,7.7823,7.7784,7.7472,7.6731]}]]